[[{"header":{"parameterUnit":"m.s-1","parameterCategory":1,"la1":31.0,"la2":29.5877,"lo1":-88.7671,"lo2":-86.6584,"dy":0.0162,"dx":0.0185,"nx":115,"ny":88,"refTime":"2023-05-05T12:00:00:Z","depth":0,"parameterNumber":2,"parameterNumberName":"U-component_of_WINDS"},"data":[0.0,0.0,0.0,0.0,0.0,0.0,0.0,0.0,0.0,0.0,0.0,0.0,0.0,0.0,0.0,0.0,0.0,0.0,0.0,0.0,0.0,0.0,0.0,0.0,0.0,0.0,0.0,0.0,0.0,0.0,0.0,0.0,0.0,0.0,0.0,0.0,0.0,0.0,0.0,0.0,0.0,0.0,0.0,0.0,0.0,0.0,0.0,0.0,0.0,0.0,0.0,0.0,0.0,0.0,0.0,0.0,0.0,0.0,0.0,0.0,0.0,0.0,0.0,0.0,0.0,0.0,0.0,0.0,0.0,0.0,0.0,0.0,0.0,0.0,0.0,0.0,0.0,0.0,0.0,0.0,0.0,0.0,0.0,0.0,0.0,0.0,0.0,0.0,0.0,0.0,0.0,0.0,0.0,0.0,0.0,0.0,0.0,0.0,0.0,0.0,0.0,0.0,0.0,0.0,0.0,0.0,0.0,0.0,0.0,0.0,0.0,0.0,0.0,0.0,0.0,0.0,0.0,0.0,0.0,0.0,0.0,0.0,0.0,0.0,0.0,0.0,0.0,0.0,0.0,0.0,0.0,0.0,0.0,0.0,0.0,0.0,0.0,0.0,0.0,0.0,0.0,0.0,0.0,0.0,0.0,0.0,0.0,0.0,0.0,0.0,0.0,0.0,0.0,0.0,0.0,0.0,0.0,0.0,0.0,0.0,0.0,0.0,0.0,0.0,0.0,0.0,0.0,0.0,0.0,0.0,0.0,0.0,0.0,0.0,0.0,0.0,0.0,0.0,0.0,0.0,0.0,0.0,0.0,0.0,0.0,0.0,0.0,0.0,0.0,0.0,0.0,0.0,0.0,0.0,0.0,0.0,0.0,0.0,0.0,0.0,0.0,0.0,0.0,0.0,0.0,0.0,0.0,0.0,0.0,0.0,0.0,0.0,0.0,0.0,0.0,0.0,0.0,0.0,0.0,0.0,0.0,0.0,0.0,0.0,0.0,0.0,0.0,0.0,0.0,0.0,0.0,0.0,0.0,0.0,0.0,0.0,0.0,0.0,0.0,0.0,0.0,0.0,0.0,0.0,0.0,0.0,0.0,0.0,0.0,0.0,0.0,0.0,0.0,0.0,0.0,0.0,0.0,0.0,0.0,0.0,0.0,0.0,0.0,0.0,0.0,0.0,0.0,0.0,0.0,0.0,0.0,0.0,0.0,0.0,0.0,0.0,0.0,0.0,0.0,0.0,0.0,0.0,0.0,0.0,0.0,0.0,0.0,0.0,0.0,0.0,0.0,0.0,0.0,0.0,0.0,0.0,0.0,0.0,0.0,0.0,0.0,0.0,0.0,0.0,0.0,0.0,0.0,0.0,0.0,0.0,0.0,0.0,0.0,0.0,0.0,0.0,0.0,0.0,0.0,0.0,0.0,0.0,0.0,0.0,0.0,0.0,0.0,0.0,0.0,0.0,0.0,0.0,0.0,0.0,0.0,0.0,0.0,0.0,0.0,0.0,0.0,0.0,0.0,0.0,0.0,0.0,0.0,0.0,0.0,0.0,0.0,0.0,0.0,0.0,0.0,0.0,0.0,0.0,0.0,0.0,0.0,0.0,0.0,0.0,0.0,0.0,0.0,0.0,0.0,0.0,0.0,0.0,0.0,0.0,0.0,0.0,0.0,0.0,0.0,0.0,0.0,0.0,0.0,0.0,0.0,0.0,0.0,0.0,0.0,0.0,0.0,0.0,0.0,0.0,0.0,0.0,0.0,0.0,0.0,0.0,0.0,0.0,0.0,0.0,0.0,0.0,0.0,0.0,0.0,0.0,0.0,0.0,0.0,0.0,0.0,0.0,0.0,0.0,0.0,0.0,0.0,0.0,0.0,0.0,0.0,0.0,0.0,0.0,0.0,0.0,0.0,0.0,0.0,0.0,0.0,0.0,0.0,0.0,0.0,0.0,0.0,0.0,0.0,0.0,0.0,0.0,0.0,0.0,0.0,0.0,0.0,0.0,0.0,0.0,0.0,0.0,0.0,0.0,0.0,0.0,0.0,0.0,0.0,0.0,0.0,0.0,0.0,0.0,0.0,0.0,0.0,0.0,0.0,0.0,0.0,0.0,0.0,0.0,0.0,0.0,0.0,0.0,0.0,0.0,0.0,0.0,0.0,0.0,0.0,0.0,0.0,0.0,0.0,0.0,0.0,0.0,0.0,0.0,0.0,0.0,0.0,0.0,0.0,0.0,0.0,0.0,0.0,0.0,0.0,0.0,0.0,0.0,0.0,0.0,0.0,0.0,0.0,0.0,0.0,0.0,0.0,0.0,0.0,0.0,0.0,0.0,0.0,0.0,0.0,0.0,0.0,0.0,0.0,0.0,0.0,0.0,0.0,0.0,0.0,0.0,0.0,0.0,0.0,0.0,0.0,0.0,0.0,0.0,0.0,0.0,0.0,0.0,0.0,0.0,0.0,0.0,0.0,0.0,0.0,0.0,0.0,0.0,0.0,0.0,0.0,0.0,0.0,0.0,0.0,0.0,0.0,0.0,0.0,0.0,0.0,0.0,0.0,0.0,0.0,0.0,0.0,0.0,0.0,0.0,0.0,0.0,0.0,0.0,0.0,0.0,0.0,0.0,0.0,0.0,0.0,0.0,0.0,0.0,0.0,0.0,0.0,0.0,0.0,0.0,0.0,0.0,0.0,0.0,0.0,0.0,0.0,0.0,0.0,0.0,0.0,0.0,0.0,0.0,0.0,0.0,0.0,0.0,0.0,0.0,0.0,0.0,0.0,0.0,0.0,0.0,0.0,0.0,0.0,0.0,0.0,0.0,0.0,0.0,0.0,0.0,0.0,0.0,0.0,0.0,0.0,0.0,0.0,0.0,0.0,0.0,0.0,0.0,0.0,0.0,0.0,0.0,0.0,0.0,0.0,0.0,0.0,0.0,0.0,0.0,0.0,0.0,0.0,0.0,0.0,0.0,0.0,0.0,0.0,0.0,0.0,0.0,0.0,0.0,0.0,0.0,0.0,0.0,0.0,0.0,0.0,0.0,0.0,0.0,0.0,0.0,0.0,0.0,0.0,0.0,0.0,0.0,0.0,0.0,0.0,0.0,0.0,0.0,0.0,0.0,0.0,0.0,0.0,0.0,0.0,0.0,0.0,0.0,0.0,0.0,0.0,0.0,0.0,0.0,0.0,0.0,0.0,0.0,0.0,0.0,0.0,0.0,0.0,0.0,0.0,0.0,0.0,0.0,0.0,0.0,0.0,0.0,0.0,0.0,0.0,0.0,0.0,0.0,0.0,0.0,0.0,0.0,0.0,0.0,0.0,0.0,0.0,0.0,0.0,0.0,0.0,0.0,0.0,0.0,0.0,0.0,0.0,0.0,0.0,0.0,0.0,0.0,0.0,0.0,0.0,0.0,0.0,0.0,0.0,0.0,0.0,0.0,0.0,0.0,0.0,0.0,0.0,0.0,0.0,0.0,0.0,0.0,0.0,0.0,0.0,0.0,0.0,0.0,0.0,0.0,0.0,0.0,0.0,0.0,0.0,0.0,0.0,0.0,0.0,0.0,0.0,0.0,0.0,0.0,0.0,0.0,0.0,0.0,0.0,0.0,0.0,0.0,0.0,0.0,0.0,0.0,0.0,0.0,0.0,0.0,0.0,0.0,0.0,0.0,0.0,0.0,0.0,0.0,0.0,0.0,0.0,0.0,0.0,0.0,0.0,0.0,0.0,0.0,0.0,0.0,0.0,0.0,0.0,0.0,0.0,0.0,0.0,0.0,0.0,0.0,0.0,0.0,0.0,0.0,0.0,0.0,0.0,0.0,0.0,0.0,0.0,0.0,0.0,0.0,0.0,0.0,0.0,0.0,0.0,0.0,0.0,0.0,0.0,0.0,0.0,0.0,0.0,0.0,0.0,0.0,0.0,0.0,0.0,0.0,0.0,0.0,0.0,0.0,0.0,0.0,0.0,0.0,0.0,0.0,0.0,0.0,0.0,0.0,0.0,0.0,0.0,0.0,0.0,0.0,0.0,0.0,0.0,0.0,0.0,0.0,0.0,0.0,0.0,0.0,0.0,0.0,0.0,0.0,0.0,0.0,0.0,0.0,0.0,0.0,0.0,0.0,0.0,0.0,0.0,0.0,0.0,0.0,0.0,0.0,0.0,0.0,0.0,0.0,0.0,0.0,0.0,0.0,0.0,0.0,0.0,0.0,0.0,0.0,0.0,0.0,0.0,0.0,0.0,0.0,0.0,0.0,0.0,0.0,0.0,0.0,0.0,0.0,-1.454,0.0,0.0,0.0,0.0,0.0,0.0,0.0,0.0,0.0,0.0,0.0,0.0,0.0,0.0,0.0,0.0,0.0,0.0,0.0,0.0,0.0,0.0,0.0,0.0,0.0,0.0,0.0,0.0,0.0,0.0,0.0,0.0,0.0,0.0,0.0,0.0,0.0,0.0,0.0,0.0,0.0,0.0,0.0,0.0,0.0,0.0,0.0,0.0,0.0,0.0,0.0,0.0,0.0,0.0,0.0,0.0,0.0,0.0,0.0,0.0,0.0,0.0,0.0,0.0,0.0,0.0,0.0,0.0,0.0,0.0,0.0,0.0,0.0,0.0,0.0,0.0,0.0,0.0,0.0,0.0,0.0,0.0,0.0,0.0,0.0,0.0,0.0,0.0,0.0,0.0,0.0,0.0,0.0,0.0,0.0,0.0,0.0,0.0,0.0,0.0,0.0,0.0,0.0,0.0,0.0,0.0,0.0,0.0,0.0,0.0,-1.468,-1.4587,-1.4549,-1.4516,-1.4433,0.0,0.0,0.0,0.0,0.0,0.0,0.0,0.0,0.0,0.0,0.0,0.0,0.0,0.0,0.0,0.0,0.0,0.0,0.0,0.0,0.0,0.0,0.0,0.0,0.0,0.0,0.0,0.0,0.0,0.0,0.0,0.0,0.0,0.0,0.0,0.0,0.0,0.0,0.0,0.0,0.0,0.0,0.0,0.0,0.0,0.0,0.0,0.0,0.0,0.0,0.0,0.0,0.0,0.0,0.0,0.0,0.0,0.0,0.0,0.0,0.0,0.0,0.0,0.0,0.0,0.0,0.0,0.0,0.0,0.0,0.0,0.0,0.0,0.0,0.0,0.0,0.0,0.0,0.0,0.0,0.0,0.0,0.0,0.0,0.0,0.0,0.0,0.0,0.0,0.0,0.0,0.0,0.0,0.0,0.0,0.0,0.0,0.0,0.0,0.0,0.0,0.0,0.0,0.0,0.0,0.0,0.0,0.0,0.0,0.0,0.0,0.0,-1.4481,-1.4453,-1.4368,0.0,0.0,0.0,0.0,0.0,0.0,0.0,0.0,0.0,0.0,0.0,0.0,0.0,0.0,0.0,0.0,0.0,0.0,0.0,0.0,0.0,0.0,0.0,0.0,0.0,0.0,0.0,0.0,0.0,0.0,0.0,0.0,0.0,0.0,0.0,0.0,0.0,0.0,0.0,0.0,0.0,0.0,0.0,0.0,0.0,0.0,0.0,0.0,0.0,0.0,0.0,0.0,0.0,0.0,0.0,0.0,0.0,0.0,0.0,0.0,0.0,0.0,0.0,0.0,0.0,0.0,0.0,0.0,0.0,0.0,0.0,0.0,0.0,0.0,0.0,0.0,0.0,0.0,0.0,0.0,0.0,0.0,0.0,0.0,0.0,0.0,0.0,0.0,0.0,0.0,0.0,0.0,0.0,0.0,0.0,0.0,0.0,0.0,0.0,0.0,0.0,0.0,0.0,0.0,0.0,0.0,0.0,0.0,0.0,0.0,-1.4573,-1.4499,-1.4428,0.0,-1.4305,0.0,0.0,0.0,0.0,0.0,0.0,0.0,0.0,0.0,0.0,0.0,0.0,0.0,0.0,0.0,0.0,0.0,0.0,0.0,0.0,0.0,0.0,0.0,0.0,0.0,0.0,0.0,0.0,0.0,0.0,0.0,0.0,0.0,0.0,0.0,0.0,0.0,0.0,0.0,0.0,0.0,0.0,0.0,0.0,0.0,0.0,0.0,0.0,0.0,0.0,0.0,0.0,0.0,0.0,0.0,0.0,0.0,0.0,0.0,0.0,0.0,0.0,0.0,0.0,0.0,0.0,0.0,0.0,0.0,0.0,0.0,0.0,0.0,0.0,0.0,0.0,0.0,0.0,0.0,0.0,0.0,0.0,0.0,0.0,0.0,0.0,0.0,0.0,0.0,0.0,0.0,0.0,0.0,0.0,0.0,0.0,0.0,0.0,0.0,0.0,0.0,0.0,0.0,0.0,0.0,0.0,0.0,0.0,0.0,0.0,-1.4517,-1.4429,-1.4337,-1.4262,0.0,0.0,0.0,0.0,0.0,0.0,0.0,0.0,0.0,0.0,0.0,0.0,0.0,0.0,0.0,0.0,0.0,0.0,0.0,0.0,0.0,0.0,0.0,0.0,0.0,0.0,0.0,0.0,0.0,0.0,0.0,0.0,0.0,0.0,0.0,0.0,0.0,0.0,0.0,0.0,0.0,0.0,0.0,0.0,0.0,0.0,0.0,0.0,0.0,0.0,0.0,0.0,0.0,0.0,0.0,0.0,0.0,0.0,0.0,0.0,0.0,0.0,0.0,0.0,0.0,0.0,0.0,0.0,0.0,0.0,0.0,0.0,0.0,0.0,0.0,0.0,0.0,0.0,0.0,0.0,0.0,0.0,0.0,0.0,0.0,0.0,0.0,0.0,0.0,0.0,0.0,0.0,0.0,0.0,0.0,0.0,0.0,0.0,0.0,0.0,0.0,0.0,0.0,0.0,0.0,0.0,0.0,0.0,0.0,0.0,-1.4463,-1.4441,-1.4361,-1.4242,-1.4132,-1.4075,0.0,0.0,0.0,0.0,0.0,0.0,0.0,0.0,0.0,0.0,0.0,0.0,0.0,0.0,0.0,0.0,0.0,0.0,0.0,0.0,0.0,0.0,0.0,0.0,0.0,0.0,0.0,0.0,0.0,0.0,0.0,0.0,0.0,0.0,0.0,0.0,0.0,0.0,0.0,0.0,0.0,0.0,0.0,0.0,0.0,0.0,0.0,0.0,0.0,0.0,0.0,0.0,0.0,0.0,0.0,0.0,0.0,0.0,0.0,0.0,0.0,0.0,0.0,0.0,0.0,0.0,0.0,0.0,0.0,0.0,0.0,0.0,0.0,0.0,0.0,0.0,0.0,0.0,0.0,0.0,0.0,0.0,0.0,0.0,0.0,0.0,0.0,0.0,0.0,0.0,0.0,0.0,0.0,0.0,0.0,0.0,0.0,0.0,0.0,0.0,0.0,0.0,0.0,0.0,0.0,0.0,0.0,0.0,-1.4398,-1.4416,-1.4368,-1.4304,-1.4165,-1.406,0.0,0.0,0.0,0.0,0.0,0.0,0.0,0.0,0.0,0.0,0.0,0.0,0.0,0.0,0.0,0.0,0.0,0.0,0.0,0.0,0.0,0.0,0.0,0.0,0.0,0.0,0.0,0.0,0.0,0.0,0.0,0.0,0.0,0.0,0.0,0.0,0.0,0.0,0.0,0.0,0.0,0.0,0.0,0.0,0.0,0.0,0.0,0.0,0.0,0.0,0.0,0.0,0.0,0.0,0.0,0.0,0.0,0.0,0.0,0.0,0.0,0.0,0.0,0.0,0.0,0.0,0.0,0.0,0.0,0.0,0.0,0.0,0.0,0.0,0.0,0.0,0.0,0.0,0.0,0.0,0.0,0.0,0.0,0.0,0.0,0.0,0.0,0.0,0.0,0.0,0.0,0.0,0.0,0.0,0.0,0.0,0.0,0.0,0.0,0.0,0.0,0.0,0.0,0.0,0.0,0.0,0.0,0.0,0.0,-1.4405,-1.4325,-1.4273,-1.4237,-1.4096,-1.4005,0.0,0.0,0.0,0.0,0.0,0.0,0.0,0.0,0.0,0.0,0.0,0.0,0.0,0.0,0.0,0.0,0.0,0.0,0.0,0.0,0.0,0.0,0.0,0.0,0.0,0.0,0.0,0.0,0.0,0.0,0.0,0.0,0.0,0.0,0.0,0.0,0.0,0.0,0.0,0.0,0.0,0.0,0.0,0.0,0.0,0.0,0.0,0.0,0.0,0.0,0.0,0.0,0.0,0.0,0.0,0.0,0.0,0.0,0.0,0.0,0.0,0.0,0.0,0.0,0.0,0.0,0.0,0.0,0.0,0.0,0.0,0.0,0.0,0.0,0.0,0.0,0.0,0.0,0.0,0.0,0.0,0.0,0.0,0.0,0.0,0.0,0.0,0.0,0.0,0.0,0.0,0.0,0.0,0.0,0.0,0.0,0.0,0.0,0.0,0.0,0.0,0.0,0.0,0.0,0.0,0.0,0.0,0.0,0.0,-1.4304,0.0,-1.4183,-1.41,-1.4044,-1.3951,0.0,0.0,0.0,0.0,0.0,0.0,0.0,0.0,0.0,0.0,0.0,0.0,0.0,0.0,0.0,0.0,0.0,0.0,0.0,0.0,0.0,0.0,0.0,0.0,0.0,0.0,0.0,0.0,0.0,0.0,0.0,0.0,0.0,0.0,0.0,0.0,0.0,0.0,0.0,0.0,0.0,0.0,0.0,0.0,0.0,0.0,0.0,0.0,0.0,0.0,0.0,0.0,0.0,0.0,0.0,0.0,0.0,0.0,0.0,0.0,0.0,0.0,0.0,0.0,0.0,0.0,0.0,0.0,0.0,0.0,0.0,0.0,0.0,0.0,0.0,0.0,0.0,0.0,0.0,0.0,0.0,0.0,0.0,0.0,0.0,0.0,0.0,0.0,0.0,0.0,0.0,0.0,0.0,0.0,0.0,0.0,0.0,0.0,0.0,0.0,0.0,0.0,0.0,0.0,0.0,0.0,0.0,0.0,-1.4213,-1.4138,-1.4239,-1.4186,-1.3948,-1.4005,-1.3915,0.0,0.0,0.0,0.0,0.0,0.0,0.0,0.0,0.0,0.0,0.0,0.0,0.0,0.0,0.0,0.0,0.0,0.0,0.0,0.0,0.0,0.0,0.0,0.0,0.0,0.0,0.0,0.0,0.0,0.0,0.0,0.0,0.0,0.0,0.0,0.0,0.0,0.0,0.0,0.0,0.0,0.0,0.0,0.0,0.0,0.0,0.0,0.0,0.0,0.0,0.0,0.0,0.0,0.0,0.0,0.0,0.0,0.0,0.0,0.0,0.0,0.0,0.0,0.0,0.0,0.0,0.0,0.0,0.0,0.0,0.0,0.0,0.0,0.0,0.0,0.0,0.0,0.0,0.0,0.0,0.0,0.0,0.0,0.0,0.0,0.0,0.0,0.0,0.0,0.0,0.0,0.0,0.0,0.0,0.0,0.0,0.0,0.0,0.0,0.0,0.0,0.0,0.0,0.0,0.0,0.0,0.0,0.0,0.0,-1.4876,-1.4325,-1.4472,-1.5334,-1.4358,-1.396,0.0,0.0,0.0,0.0,0.0,0.0,0.0,0.0,0.0,0.0,0.0,0.0,0.0,0.0,0.0,0.0,0.0,0.0,0.0,0.0,0.0,0.0,0.0,0.0,0.0,0.0,0.0,0.0,0.0,0.0,0.0,0.0,0.0,0.0,0.0,0.0,0.0,0.0,0.0,0.0,0.0,0.0,0.0,0.0,0.0,0.0,0.0,0.0,0.0,0.0,0.0,0.0,0.0,0.0,0.0,0.0,0.0,0.0,0.0,0.0,0.0,0.0,0.0,0.0,0.0,0.0,0.0,0.0,0.0,0.0,0.0,0.0,0.0,0.0,0.0,0.0,0.0,0.0,0.0,0.0,0.0,0.0,0.0,0.0,0.0,0.0,0.0,0.0,0.0,0.0,0.0,0.0,0.0,0.0,0.0,0.0,0.0,0.0,0.0,0.0,0.0,0.0,0.0,0.0,0.0,0.0,0.0,0.0,0.0,-1.6427,-1.5375,-1.5198,-1.6037,-1.4793,-1.4237,-1.4491,0.0,0.0,0.0,0.0,0.0,0.0,0.0,0.0,0.0,0.0,0.0,0.0,0.0,0.0,0.0,0.0,0.0,0.0,0.0,0.0,0.0,0.0,0.0,0.0,0.0,0.0,0.0,0.0,0.0,0.0,0.0,0.0,0.0,0.0,0.0,0.0,0.0,0.0,0.0,0.0,0.0,0.0,0.0,0.0,0.0,0.0,0.0,0.0,0.0,0.0,0.0,0.0,0.0,0.0,0.0,0.0,0.0,0.0,0.0,0.0,0.0,0.0,0.0,0.0,0.0,0.0,0.0,0.0,0.0,0.0,0.0,0.0,0.0,0.0,0.0,0.0,0.0,0.0,0.0,0.0,0.0,0.0,0.0,0.0,0.0,0.0,0.0,0.0,0.0,0.0,0.0,0.0,0.0,0.0,0.0,0.0,0.0,0.0,0.0,0.0,0.0,0.0,0.0,0.0,0.0,0.0,0.0,0.0,-1.8635,-1.7179,-1.6342,-1.6218,-1.528,-1.4684,0.0,0.0,0.0,0.0,0.0,0.0,0.0,0.0,0.0,0.0,0.0,0.0,0.0,0.0,0.0,0.0,0.0,0.0,0.0,0.0,0.0,0.0,0.0,0.0,0.0,0.0,0.0,0.0,0.0,0.0,0.0,0.0,0.0,0.0,0.0,0.0,0.0,0.0,0.0,0.0,0.0,0.0,0.0,0.0,0.0,0.0,0.0,0.0,0.0,0.0,0.0,0.0,0.0,0.0,0.0,0.0,0.0,0.0,0.0,0.0,0.0,0.0,0.0,0.0,0.0,0.0,0.0,0.0,0.0,0.0,0.0,0.0,0.0,0.0,0.0,0.0,0.0,0.0,0.0,0.0,0.0,0.0,0.0,0.0,0.0,0.0,0.0,0.0,0.0,0.0,0.0,0.0,0.0,0.0,0.0,0.0,0.0,0.0,0.0,0.0,0.0,0.0,0.0,0.0,0.0,0.0,0.0,0.0,0.0,-1.9188,-1.8286,-1.7979,-1.835,-1.5879,-1.4686,0.0,0.0,0.0,0.0,0.0,0.0,0.0,0.0,0.0,0.0,0.0,0.0,0.0,0.0,0.0,0.0,0.0,0.0,0.0,0.0,0.0,0.0,0.0,0.0,0.0,0.0,0.0,0.0,0.0,0.0,0.0,0.0,0.0,0.0,0.0,0.0,0.0,0.0,0.0,0.0,0.0,0.0,0.0,0.0,0.0,0.0,0.0,0.0,0.0,0.0,0.0,0.0,0.0,0.0,0.0,0.0,0.0,0.0,0.0,0.0,0.0,0.0,0.0,0.0,0.0,0.0,0.0,0.0,0.0,0.0,0.0,0.0,0.0,0.0,0.0,0.0,0.0,0.0,0.0,0.0,0.0,0.0,0.0,0.0,0.0,0.0,0.0,0.0,0.0,0.0,0.0,0.0,0.0,0.0,0.0,0.0,0.0,0.0,0.0,0.0,0.0,0.0,0.0,0.0,0.0,0.0,0.0,0.0,-1.8988,-1.988,-1.8815,-1.8706,-1.9624,-1.6796,-1.5204,0.0,0.0,0.0,0.0,0.0,0.0,0.0,0.0,0.0,0.0,0.0,0.0,0.0,0.0,0.0,0.0,0.0,0.0,0.0,0.0,0.0,0.0,0.0,0.0,0.0,0.0,0.0,0.0,0.0,0.0,0.0,0.0,0.0,0.0,0.0,0.0,0.0,0.0,0.0,0.0,0.0,0.0,0.0,0.0,0.0,0.0,0.0,0.0,0.0,0.0,0.0,0.0,0.0,0.0,0.0,0.0,0.0,0.0,0.0,0.0,0.0,0.0,0.0,0.0,0.0,0.0,0.0,0.0,0.0,0.0,0.0,0.0,0.0,0.0,0.0,0.0,0.0,0.0,0.0,0.0,0.0,0.0,0.0,0.0,0.0,0.0,0.0,0.0,0.0,0.0,0.0,0.0,0.0,0.0,0.0,0.0,0.0,0.0,0.0,0.0,0.0,0.0,0.0,0.0,0.0,0.0,0.0,0.0,-1.916,-2.0316,-1.8949,-1.8748,-1.9806,-1.7618,-1.5951,0.0,0.0,0.0,0.0,0.0,0.0,0.0,0.0,0.0,0.0,0.0,0.0,0.0,0.0,0.0,0.0,0.0,0.0,0.0,0.0,0.0,0.0,0.0,0.0,0.0,0.0,0.0,0.0,0.0,0.0,0.0,0.0,0.0,0.0,0.0,0.0,0.0,0.0,0.0,0.0,0.0,0.0,0.0,0.0,0.0,0.0,0.0,0.0,0.0,0.0,0.0,0.0,0.0,0.0,0.0,0.0,0.0,0.0,0.0,0.0,0.0,0.0,0.0,0.0,0.0,0.0,0.0,0.0,0.0,0.0,0.0,0.0,0.0,0.0,0.0,0.0,0.0,0.0,0.0,0.0,0.0,0.0,0.0,0.0,0.0,0.0,0.0,0.0,0.0,0.0,0.0,0.0,0.0,0.0,0.0,0.0,0.0,0.0,0.0,0.0,0.0,0.0,0.0,0.0,0.0,0.0,0.0,0.0,-1.8718,-1.9436,-1.8542,-1.8325,-1.8897,-1.7169,-1.5828,0.0,0.0,0.0,0.0,0.0,0.0,0.0,0.0,0.0,0.0,0.0,0.0,0.0,0.0,0.0,0.0,0.0,0.0,0.0,0.0,0.0,0.0,0.0,0.0,0.0,0.0,0.0,0.0,0.0,0.0,0.0,0.0,0.0,0.0,0.0,0.0,0.0,0.0,0.0,0.0,0.0,0.0,0.0,0.0,0.0,0.0,0.0,0.0,-1.1608,0.0,0.0,0.0,0.0,0.0,0.0,0.0,0.0,0.0,0.0,0.0,0.0,0.0,0.0,0.0,0.0,0.0,0.0,0.0,0.0,0.0,0.0,0.0,0.0,0.0,0.0,0.0,0.0,0.0,0.0,0.0,0.0,0.0,0.0,0.0,0.0,0.0,0.0,0.0,0.0,0.0,0.0,0.0,0.0,0.0,0.0,0.0,0.0,0.0,0.0,0.0,0.0,0.0,0.0,0.0,0.0,0.0,0.0,0.0,-1.8489,-1.9052,-1.8313,-1.8115,-1.8464,-1.6873,-1.5584,0.0,0.0,0.0,0.0,0.0,0.0,0.0,0.0,0.0,0.0,0.0,0.0,0.0,0.0,0.0,0.0,0.0,0.0,0.0,0.0,0.0,0.0,0.0,0.0,0.0,0.0,0.0,0.0,0.0,0.0,0.0,0.0,0.0,0.0,0.0,0.0,0.0,0.0,0.0,0.0,0.0,0.0,0.0,0.0,0.0,0.0,0.0,0.0,0.0,0.0,0.0,0.0,0.0,0.0,0.0,0.0,0.0,0.0,0.0,0.0,0.0,0.0,0.0,0.0,0.0,0.0,0.0,0.0,0.0,0.0,0.0,0.0,0.0,0.0,0.0,0.0,0.0,0.0,0.0,0.0,0.0,0.0,0.0,0.0,0.0,0.0,0.0,0.0,0.0,0.0,0.0,0.0,0.0,0.0,0.0,0.0,0.0,0.0,0.0,0.0,0.0,0.0,0.0,0.0,0.0,0.0,0.0,-1.8027,-1.8306,-1.8772,-1.8132,-1.7942,-1.8264,-1.6584,-1.534,-1.4629,0.0,0.0,0.0,0.0,0.0,0.0,0.0,0.0,0.0,0.0,0.0,0.0,0.0,0.0,0.0,0.0,0.0,0.0,0.0,0.0,0.0,0.0,0.0,0.0,0.0,0.0,0.0,0.0,0.0,0.0,0.0,0.0,0.0,0.0,0.0,0.0,0.0,0.0,-1.3158,-1.3129,0.0,0.0,0.0,0.0,0.0,0.0,0.0,0.0,-1.1641,0.0,0.0,0.0,0.0,0.0,0.0,0.0,0.0,0.0,0.0,0.0,0.0,0.0,0.0,0.0,0.0,0.0,0.0,0.0,0.0,0.0,0.0,0.0,0.0,0.0,0.0,0.0,0.0,0.0,0.0,0.0,0.0,0.0,0.0,0.0,0.0,0.0,0.0,0.0,0.0,0.0,0.0,0.0,0.0,0.0,0.0,0.0,0.0,0.0,0.0,0.0,0.0,0.0,0.0,0.0,0.0,-1.7911,-1.7916,-1.7984,-1.807,-1.7782,-1.7557,-1.7392,-1.6175,-1.5393,-1.5033,0.0,0.0,0.0,0.0,0.0,0.0,0.0,0.0,0.0,0.0,0.0,0.0,0.0,0.0,0.0,0.0,0.0,0.0,0.0,0.0,0.0,0.0,0.0,0.0,0.0,0.0,0.0,0.0,0.0,0.0,0.0,0.0,0.0,0.0,0.0,0.0,0.0,0.0,0.0,-1.3031,-1.2928,0.0,0.0,0.0,0.0,0.0,0.0,0.0,0.0,-1.1001,0.0,0.0,0.0,0.0,0.0,0.0,0.0,0.0,0.0,0.0,0.0,0.0,0.0,0.0,0.0,0.0,0.0,0.0,0.0,0.0,0.0,0.0,0.0,0.0,0.0,0.0,0.0,0.0,0.0,0.0,0.0,0.0,0.0,0.0,0.0,0.0,0.0,0.0,0.0,0.0,0.0,0.0,0.0,0.0,0.0,0.0,0.0,0.0,0.0,0.0,0.0,0.0,0.0,0.0,0.0,-1.7833,-1.7755,-1.7726,-1.7794,-1.7566,-1.7172,-1.6604,-1.5849,-1.5377,0.0,0.0,0.0,0.0,0.0,0.0,0.0,0.0,0.0,0.0,0.0,0.0,0.0,0.0,0.0,0.0,0.0,0.0,0.0,0.0,0.0,0.0,0.0,0.0,0.0,0.0,0.0,0.0,0.0,0.0,0.0,0.0,0.0,0.0,0.0,0.0,0.0,0.0,0.0,0.0,-1.2668,-1.2745,-1.2333,0.0,0.0,0.0,0.0,0.0,0.0,-1.1296,-1.1416,0.0,0.0,0.0,0.0,0.0,0.0,0.0,0.0,0.0,0.0,0.0,0.0,0.0,0.0,0.0,0.0,0.0,0.0,0.0,0.0,0.0,0.0,0.0,0.0,0.0,0.0,0.0,0.0,0.0,0.0,0.0,0.0,0.0,0.0,0.0,0.0,0.0,0.0,0.0,0.0,0.0,0.0,0.0,0.0,0.0,0.0,0.0,0.0,0.0,0.0,0.0,0.0,0.0,0.0,0.0,-1.7721,-1.7554,-1.7519,-1.763,-1.7389,-1.684,-1.5998,-1.5715,-1.5428,0.0,0.0,0.0,0.0,0.0,0.0,0.0,0.0,0.0,0.0,0.0,0.0,0.0,0.0,0.0,0.0,0.0,0.0,0.0,0.0,0.0,0.0,0.0,0.0,0.0,0.0,0.0,0.0,0.0,0.0,0.0,0.0,0.0,0.0,0.0,0.0,0.0,0.0,0.0,0.0,0.0,-1.2773,-1.2194,-1.238,0.0,0.0,0.0,0.0,-1.1511,-1.1707,0.0,0.0,0.0,0.0,0.0,0.0,0.0,0.0,0.0,0.0,0.0,0.0,0.0,0.0,0.0,0.0,0.0,0.0,0.0,0.0,0.0,0.0,0.0,0.0,0.0,0.0,0.0,0.0,0.0,0.0,0.0,0.0,0.0,0.0,0.0,0.0,0.0,0.0,0.0,0.0,0.0,0.0,0.0,0.0,0.0,0.0,0.0,0.0,0.0,0.0,0.0,0.0,0.0,0.0,0.0,0.0,-1.7524,-1.746,-1.742,-1.742,-1.724,-1.6714,-1.5855,-1.6061,-1.5777,0.0,0.0,0.0,0.0,0.0,0.0,0.0,0.0,0.0,0.0,0.0,0.0,0.0,0.0,0.0,0.0,0.0,0.0,0.0,0.0,0.0,0.0,0.0,0.0,0.0,0.0,0.0,0.0,0.0,0.0,0.0,0.0,0.0,0.0,0.0,0.0,0.0,0.0,0.0,0.0,0.0,-1.3639,-1.3492,-1.2917,-1.2726,0.0,0.0,0.0,-1.1861,-1.1328,0.0,0.0,0.0,0.0,0.0,0.0,0.0,0.0,0.0,0.0,0.0,0.0,0.0,0.0,0.0,0.0,0.0,0.0,0.0,0.0,0.0,0.0,0.0,0.0,0.0,0.0,0.0,0.0,0.0,0.0,0.0,0.0,0.0,0.0,0.0,0.0,0.0,0.0,0.0,0.0,0.0,0.0,0.0,0.0,0.0,0.0,0.0,0.0,0.0,0.0,0.0,0.0,0.0,0.0,0.0,-1.7422,-1.7437,-1.7453,-1.7417,-1.7341,-1.7232,-1.6483,-1.5094,-1.5874,-1.563,0.0,0.0,0.0,0.0,0.0,0.0,0.0,0.0,0.0,0.0,0.0,0.0,0.0,0.0,0.0,0.0,0.0,0.0,0.0,0.0,0.0,0.0,0.0,0.0,0.0,0.0,0.0,0.0,0.0,0.0,0.0,0.0,0.0,0.0,0.0,0.0,0.0,0.0,0.0,0.0,0.0,0.0,-1.3637,-1.2962,0.0,0.0,0.0,-1.1693,-1.1914,0.0,0.0,0.0,0.0,0.0,0.0,0.0,0.0,0.0,0.0,0.0,0.0,0.0,0.0,0.0,0.0,0.0,0.0,0.0,0.0,0.0,0.0,0.0,0.0,0.0,0.0,0.0,0.0,0.0,0.0,0.0,0.0,0.0,0.0,0.0,0.0,0.0,0.0,0.0,0.0,0.0,0.0,0.0,0.0,0.0,0.0,0.0,0.0,0.0,0.0,0.0,0.0,0.0,0.0,0.0,0.0,0.0,-1.7365,-1.7422,-1.7391,-1.7261,-1.7133,-1.624,-1.4577,-1.5441,0.0,0.0,0.0,0.0,0.0,0.0,0.0,0.0,0.0,0.0,0.0,0.0,0.0,0.0,0.0,0.0,0.0,0.0,0.0,0.0,0.0,0.0,0.0,0.0,0.0,0.0,0.0,-1.1474,0.0,0.0,0.0,0.0,0.0,0.0,0.0,0.0,0.0,0.0,0.0,0.0,0.0,0.0,-1.3637,-1.379,-1.312,-1.2567,0.0,0.0,-1.2125,-1.2048,-1.1292,-1.0872,0.0,0.0,0.0,0.0,0.0,0.0,0.0,0.0,0.0,0.0,0.0,0.0,0.0,0.0,0.0,0.0,0.0,0.0,0.0,0.0,0.0,0.0,0.0,0.0,0.0,0.0,0.0,0.0,0.0,0.0,0.0,0.0,0.0,0.0,0.0,0.0,0.0,0.0,0.0,0.0,0.0,0.0,0.0,0.0,0.0,0.0,0.0,0.0,0.0,0.0,0.0,0.0,0.0,0.0,0.0,-1.7306,-1.7306,-1.7285,-1.7199,-1.6834,-1.5956,-1.455,-1.4829,-1.4538,0.0,0.0,0.0,0.0,0.0,0.0,0.0,0.0,0.0,0.0,0.0,0.0,0.0,0.0,0.0,0.0,0.0,0.0,0.0,0.0,0.0,0.0,0.0,0.0,0.0,0.0,0.0,0.0,0.0,0.0,0.0,0.0,0.0,0.0,0.0,0.0,0.0,0.0,0.0,0.0,0.0,-1.372,-1.4369,-1.3654,-1.3022,0.0,0.0,-1.2515,-1.2376,-1.1639,-1.1115,-1.1227,0.0,0.0,0.0,0.0,0.0,0.0,0.0,0.0,0.0,0.0,0.0,0.0,0.0,0.0,0.0,0.0,0.0,0.0,0.0,0.0,0.0,0.0,0.0,0.0,0.0,0.0,0.0,0.0,0.0,0.0,0.0,0.0,0.0,0.0,0.0,0.0,0.0,0.0,0.0,0.0,0.0,0.0,0.0,0.0,0.0,0.0,0.0,0.0,0.0,0.0,0.0,0.0,0.0,-1.717,-1.717,-1.7224,-1.7145,-1.6949,-1.6727,-1.5816,-1.416,-1.4602,-1.4398,0.0,0.0,0.0,0.0,0.0,0.0,0.0,0.0,0.0,0.0,0.0,0.0,0.0,0.0,0.0,0.0,0.0,0.0,0.0,0.0,0.0,0.0,0.0,0.0,0.0,0.0,0.0,0.0,-0.9493,-0.997,-1.0957,0.0,0.0,0.0,0.0,0.0,0.0,0.0,0.0,0.0,0.0,-1.386,-1.3659,-1.2941,0.0,0.0,-1.2033,-1.196,-1.2242,-1.1517,-1.1169,-1.1996,-1.1395,0.0,0.0,0.0,0.0,0.0,0.0,0.0,0.0,0.0,0.0,0.0,0.0,0.0,0.0,0.0,0.0,0.0,0.0,0.0,0.0,0.0,0.0,0.0,0.0,0.0,0.0,0.0,0.0,0.0,0.0,0.0,0.0,0.0,0.0,0.0,0.0,0.0,0.0,0.0,0.0,0.0,0.0,0.0,0.0,0.0,0.0,0.0,0.0,0.0,0.0,0.0,0.0,-1.7045,-1.6991,-1.7029,-1.6937,-1.6727,-1.653,-1.573,-1.4313,-1.433,-1.4148,0.0,0.0,0.0,0.0,0.0,0.0,0.0,0.0,0.0,0.0,0.0,0.0,0.0,0.0,0.0,0.0,0.0,0.0,0.0,0.0,0.0,0.0,0.0,0.0,0.0,0.0,0.0,0.0,-0.9395,-1.0295,-1.1774,0.0,0.0,0.0,0.0,0.0,0.0,0.0,0.0,0.0,0.0,-1.3419,-1.3308,-1.278,-1.2369,-1.2225,-1.2192,-1.2213,-1.2367,-1.1762,-1.1556,-1.2279,0.0,0.0,0.0,0.0,0.0,0.0,0.0,0.0,0.0,0.0,0.0,0.0,0.0,0.0,0.0,0.0,0.0,0.0,0.0,0.0,0.0,0.0,0.0,0.0,0.0,0.0,0.0,0.0,0.0,0.0,0.0,0.0,0.0,0.0,0.0,0.0,0.0,0.0,0.0,0.0,0.0,0.0,0.0,0.0,0.0,0.0,0.0,0.0,0.0,0.0,0.0,0.0,0.0,0.0,-1.6725,-1.6725,-1.6659,-1.6485,-1.6191,-1.5706,-1.4951,-1.3982,-1.366,-1.417,0.0,0.0,0.0,0.0,0.0,0.0,0.0,0.0,0.0,0.0,0.0,0.0,0.0,0.0,0.0,0.0,0.0,0.0,0.0,0.0,0.0,0.0,0.0,0.0,0.0,0.0,-1.1557,-1.1079,-1.1173,0.0,0.0,0.0,0.0,0.0,0.0,0.0,0.0,0.0,0.0,-1.3086,-1.2261,-1.356,-1.3534,-1.3266,-1.3148,-1.3571,-1.3643,-1.2886,-1.2595,-1.2292,0.0,0.0,0.0,0.0,0.0,0.0,0.0,0.0,0.0,0.0,0.0,0.0,0.0,0.0,0.0,0.0,0.0,0.0,0.0,0.0,0.0,0.0,0.0,0.0,0.0,0.0,0.0,0.0,-1.5806,0.0,0.0,0.0,0.0,0.0,0.0,0.0,0.0,0.0,0.0,0.0,-1.6447,-1.7,0.0,0.0,0.0,0.0,0.0,0.0,0.0,0.0,0.0,0.0,0.0,0.0,-1.6795,-1.7117,-1.6682,-1.6382,-1.6232,-1.6025,-1.5539,-1.4755,-1.4218,-1.3927,-1.3925,0.0,0.0,0.0,0.0,0.0,0.0,0.0,0.0,0.0,0.0,0.0,0.0,0.0,0.0,0.0,0.0,0.0,0.0,0.0,0.0,0.0,0.0,0.0,0.0,0.0,-1.1706,0.0,0.0,0.0,0.0,0.0,0.0,0.0,0.0,0.0,0.0,0.0,-1.3889,-1.3833,-1.3603,-1.3406,-1.3342,-1.3262,-1.3013,0.0,0.0,0.0,0.0,0.0,0.0,0.0,0.0,0.0,0.0,0.0,0.0,0.0,0.0,-1.1381,-1.076,-1.0701,-1.0729,-1.0535,0.0,0.0,0.0,0.0,0.0,0.0,0.0,0.0,0.0,0.0,0.0,0.0,0.0,0.0,0.0,0.0,-1.6754,0.0,0.0,0.0,0.0,0.0,0.0,0.0,0.0,-1.7137,-1.7273,-1.7303,-1.7777,-1.7888,0.0,-1.744,-1.7118,0.0,0.0,0.0,0.0,0.0,0.0,0.0,0.0,-1.6794,-1.7602,-1.6928,-1.646,-1.6317,-1.6187,-1.5698,-1.4875,-1.4573,-1.414,-1.3514,-1.4208,-1.4432,0.0,0.0,0.0,0.0,0.0,0.0,0.0,0.0,0.0,0.0,0.0,0.0,0.0,0.0,0.0,0.0,0.0,0.0,0.0,0.0,0.0,0.0,0.0,-1.1757,0.0,0.0,0.0,0.0,0.0,0.0,0.0,0.0,0.0,-1.4255,-1.4054,-1.3724,-1.3199,-1.3499,-1.3629,-1.3319,0.0,0.0,0.0,0.0,0.0,0.0,0.0,-1.3369,-1.3045,-1.2368,-1.1637,-1.0917,-1.0974,-1.107,-1.0785,0.0,0.0,-1.0537,-1.0497,-1.0474,-1.0232,-1.0373,-1.0478,-1.0263,-1.0392,-1.0508,0.0,0.0,0.0,0.0,0.0,0.0,0.0,0.0,-1.8071,-1.7657,0.0,-1.7387,0.0,0.0,0.0,0.0,0.0,0.0,0.0,0.0,-1.8144,-1.8081,-1.7888,-1.8352,-1.8282,-1.7698,-1.8216,-1.8191,-1.7651,-1.6443,0.0,0.0,0.0,0.0,0.0,0.0,-1.6958,-1.813,-1.741,-1.691,-1.6727,-1.6558,-1.6093,-1.5283,-1.5026,-1.4276,-1.3095,-1.3967,-1.4206,-1.3577,-1.397,0.0,0.0,0.0,0.0,0.0,0.0,0.0,0.0,0.0,0.0,0.0,0.0,0.0,0.0,0.0,0.0,0.0,0.0,0.0,0.0,-1.1106,0.0,0.0,0.0,0.0,0.0,0.0,0.0,0.0,0.0,0.0,-1.3912,-1.3542,-1.3131,-1.2872,0.0,0.0,0.0,0.0,-1.3558,-1.4121,-1.4208,-1.416,-1.4103,-1.3914,-1.3562,-1.2896,0.0,0.0,-1.0558,-1.136,-1.1834,-1.112,-1.1016,-1.1121,-1.129,-1.1262,-1.1087,-1.0579,-1.0738,-1.0792,-1.0113,-1.0096,-1.0268,-2.3747,0.0,0.0,0.0,0.0,-2.0198,-2.03,-2.0391,-2.0479,-2.0055,-1.9261,-1.8933,0.0,0.0,0.0,0.0,0.0,0.0,-1.7892,-1.7908,-1.8292,-1.8416,-1.8316,-1.8755,-1.8852,-1.8673,-1.8425,-1.8209,-1.8022,-1.7203,-1.6954,-1.7269,0.0,0.0,0.0,0.0,-1.7692,-1.8392,-1.7693,-1.727,-1.7207,-1.6605,-1.5891,-1.5039,-1.4932,-1.4641,-1.4064,-1.4337,-1.4351,-1.4011,-1.4173,0.0,0.0,0.0,0.0,0.0,0.0,0.0,0.0,0.0,0.0,0.0,0.0,0.0,0.0,0.0,0.0,0.0,0.0,0.0,-1.3712,-1.1919,-1.1473,0.0,0.0,0.0,0.0,0.0,0.0,0.0,0.0,0.0,-1.3288,-1.3376,-1.3383,0.0,0.0,-1.3946,-1.4015,-1.3979,-1.3789,-1.3364,0.0,0.0,0.0,-1.3336,-1.333,-1.2573,-1.1492,-1.0782,-1.0895,-1.0765,-1.0713,-1.0872,-1.0505,-1.033,-1.0774,-1.0581,-1.0297,-1.0091,-0.9897,-0.9662,-0.9475,-0.9497,-0.953,-2.4739,-2.2668,-2.227,-2.1903,-2.1641,-2.1852,-2.1738,-2.1406,-2.1667,-2.1093,-1.9975,-1.998,-1.9414,-1.8429,-1.862,0.0,0.0,0.0,-1.851,-1.856,-1.879,-1.8895,-1.8874,-1.9023,-1.9116,-1.9087,-1.8738,-1.8546,-1.8491,-1.8154,-1.8063,-1.8273,0.0,0.0,-1.8685,-1.8007,-1.8093,-1.8906,-1.8209,-1.767,-1.7386,-1.6301,-1.5475,-1.4979,-1.4902,-1.4779,-1.4592,-1.4531,-1.4436,-1.4287,-1.4287,-1.4001,0.0,0.0,0.0,0.0,0.0,0.0,0.0,0.0,0.0,0.0,0.0,-1.3185,0.0,0.0,0.0,0.0,-1.2566,-1.2977,-1.2977,-1.1926,0.0,0.0,0.0,0.0,0.0,0.0,0.0,-1.4671,-1.3933,-1.3367,-1.3335,-1.3523,-1.3536,-1.3202,-1.3746,-1.4121,-1.3977,0.0,-1.3743,-1.3214,-1.3474,-1.3544,-1.3008,-1.3175,-1.3112,-1.2312,-1.1732,-1.1174,-1.0923,-1.0809,-1.0837,-1.0954,-1.0782,-1.0716,-1.1178,-1.0789,-1.0252,-0.987,-0.9499,-0.9232,-0.9047,-0.8987,-0.8987,-2.5516,-2.5415,-2.6248,-2.5457,-2.3691,-2.4079,-2.3396,-2.1989,-2.2043,-2.1318,-2.0113,-2.0684,-2.0282,-1.9174,-1.9579,0.0,0.0,-1.9575,-1.9642,-1.9746,-1.9561,-1.9439,-1.9372,-1.9234,-1.9174,-1.9188,-1.9174,-1.9146,-1.9085,-1.9132,-1.9169,-1.9145,-1.8107,-1.7969,-1.8574,-1.8056,-1.8337,-1.956,-1.8844,-1.8106,-1.7422,-1.5926,-1.511,-1.5023,-1.4869,-1.473,-1.4653,-1.4545,-1.4452,-1.4367,-1.4332,-1.3689,-1.2473,0.0,0.0,0.0,0.0,0.0,0.0,0.0,0.0,0.0,0.0,0.0,0.0,0.0,0.0,0.0,-1.0991,0.0,-1.0483,-1.1503,0.0,0.0,0.0,-1.4135,-1.405,-1.3954,-1.3868,-1.3853,0.0,0.0,0.0,0.0,-1.3674,-1.2997,-1.3441,-1.3758,-1.3615,-1.3564,-1.3527,-1.3488,-1.3497,-1.3497,-1.3344,-1.3259,-1.2916,-1.2253,-1.2365,-1.2096,-1.1193,-1.1305,-1.1645,-1.1457,-1.1512,-1.1697,-1.201,-1.1519,-1.0877,-0.9903,-0.9626,-0.9392,-0.8953,-0.8797,-0.88,-2.8275,-2.8162,-2.7907,-2.623,-2.3836,-2.4492,-2.4304,-2.3496,-2.3426,-2.3035,-2.2372,-2.1709,-2.1347,-2.1175,-2.1087,-2.1177,-2.1355,-2.1103,-2.0719,-2.0241,-2.0169,-1.9809,-1.922,-1.9643,-1.987,-1.9856,-1.987,-1.9817,-1.969,-1.9685,-1.9704,-1.9695,-1.944,-1.9288,-1.9207,-1.9045,-1.9118,-1.9376,-1.9086,-1.8509,-1.7641,-1.6752,-1.6008,-1.5382,-1.4794,-1.4431,-1.4332,-1.4303,-1.4254,-1.4252,-1.4284,-1.4052,-1.3554,-1.4416,0.0,0.0,0.0,0.0,0.0,0.0,0.0,0.0,0.0,-1.4343,-1.403,0.0,-1.3752,0.0,-1.0559,-1.0653,-1.2881,-1.2314,0.0,0.0,-1.3684,-1.4025,-1.4328,-1.3917,-1.3745,-1.4209,-1.3861,-1.3577,-1.3577,-1.389,-1.4019,-1.376,-1.3805,-1.3791,-1.3577,-1.3644,-1.3674,-1.3527,-1.348,-1.3378,-1.3104,-1.2908,-1.2749,-1.2558,-1.2196,-1.1893,-1.2047,-1.1646,-1.1492,-1.1838,-1.1537,-1.145,-1.1802,-1.1398,-1.0931,-1.0558,-1.0206,-0.9843,-0.9414,-0.93,-0.9189,-2.945,-2.9209,-2.8857,-2.7607,-2.5886,-2.5834,-2.54,-2.4695,-2.4343,-2.3828,-2.3209,-2.2152,-2.1709,-2.1709,-2.1505,-2.1465,-2.1545,-2.1364,-2.1037,-2.066,-2.0675,-2.041,-1.9957,-2.032,-2.0454,-2.0414,-2.0414,-2.0194,-1.9855,-2.0047,-1.9924,-1.941,-1.9666,-1.9593,-1.922,-1.9246,-1.9246,-1.9213,-1.8807,-1.8342,-1.7778,-1.7008,-1.6407,-1.6006,-1.5483,-1.5169,-1.5104,-1.5091,-1.5053,-1.4967,-1.5002,-1.4657,-1.3924,-1.4782,-1.4805,0.0,0.0,0.0,0.0,0.0,0.0,0.0,0.0,0.0,0.0,0.0,-1.4076,0.0,-1.1347,0.0,-1.3693,-1.3058,-1.2814,-1.3542,-1.3607,-1.3809,-1.4282,-1.3764,-1.3602,-1.4197,-1.3799,-1.3463,-1.3459,-1.3829,-1.4055,-1.3902,-1.4071,-1.4075,-1.3732,-1.3534,-1.3408,-1.3442,-1.3391,-1.322,-1.2931,-1.282,-1.2697,-1.2567,-1.23,-1.2135,-1.2182,-1.1972,-1.1844,-1.2003,-1.18,-1.162,-1.1802,-1.1565,-1.1293,-1.1217,-1.097,-1.0508,-0.9909,-0.9806,-0.9708,-2.9892,-2.9662,-2.9444,-2.9113,-2.8652,-2.7513,-2.6564,-2.5794,-2.5042,-2.4267,-2.3408,-2.2396,-2.1879,-2.1737,-2.1559,-2.1451,-2.1276,-2.127,-2.1191,-2.1133,-2.1119,-2.109,-2.0988,-2.1075,-2.1056,-2.0931,-2.0937,-2.0587,-1.9957,-2.0415,-2.0137,-1.9207,-1.9606,-1.9638,-1.9233,-1.918,-1.915,-1.9082,-1.8436,-1.8053,-1.7957,-1.7076,-1.6671,-1.6749,-1.639,-1.6205,-1.6264,-1.6177,-1.6046,-1.59,-1.5877,-1.53,-1.4088,-1.4985,-1.4992,0.0,-1.468,0.0,0.0,0.0,0.0,0.0,0.0,0.0,0.0,-1.4873,-1.4397,-1.4134,-1.2704,-1.2379,-1.3721,-1.3629,-1.3442,-1.3374,-1.3374,-1.353,-1.3914,-1.3534,-1.3391,-1.3934,-1.3672,-1.3454,-1.3479,-1.3792,-1.3958,-1.3968,-1.422,-1.4314,-1.3982,-1.3476,-1.3194,-1.3361,-1.3168,-1.3025,-1.2913,-1.2838,-1.2715,-1.252,-1.2496,-1.2431,-1.1963,-1.2138,-1.2264,-1.1993,-1.2,-1.2036,-1.1872,-1.1792,-1.1767,-1.1693,-1.1549,-1.1209,-1.0492,-1.031,-1.0174,-3.112,-3.1516,-3.0256,-2.9822,-2.9959,-2.8773,-2.7793,-2.6996,-2.6209,-2.5167,-2.3927,-2.3061,-2.2856,-2.3073,-2.2747,-2.2703,-2.2863,-2.2636,-2.2272,-2.1815,-2.1815,-2.1532,-2.1046,-2.1554,-2.1736,-2.1629,-2.1715,-2.1549,-2.1167,-2.1325,-2.1254,-2.0975,-2.1053,-2.0841,0.0,0.0,0.0,0.0,-1.8712,-1.8436,-1.8201,-1.7618,-1.7417,-1.7626,-1.6654,0.0,-1.6558,-1.6102,-1.5798,-1.5808,-1.5729,0.0,0.0,0.0,0.0,0.0,0.0,0.0,0.0,0.0,0.0,0.0,-1.5354,-1.5162,-1.4741,-1.4237,-1.4278,-1.5016,-1.3873,-1.334,-1.4024,-1.3588,-1.325,-1.325,-1.325,-1.3283,-1.3366,-1.3261,-1.3278,-1.3353,-1.357,-1.3715,-1.3722,-1.3985,-1.4309,-1.4618,-1.4445,-1.4197,-1.4168,-1.3901,-1.3591,-1.3111,-1.2925,-1.2873,-1.2896,-1.2855,-1.275,-1.2644,-1.2365,-1.2222,-1.212,-1.1954,-1.1892,-1.1808,-1.1844,-1.1808,-1.1623,-1.1653,-1.1682,-1.1496,-1.1571,-1.1505,-1.1016,-1.0877,-1.0626,-3.1518,0.0,-3.0735,-3.016,0.0,-2.9093,-2.8527,-2.8008,-2.6872,-2.5607,-2.4277,-2.3787,-2.3487,-2.3268,-2.3,-2.2978,-2.309,-2.297,-2.2736,-2.2446,-2.2432,-2.2258,-2.1939,-2.2287,-2.238,-2.2305,-2.2372,-2.2147,-2.1683,-2.1896,-2.1695,-2.1126,-2.1286,-2.0917,-2.0075,-1.9438,-1.9024,-1.8841,-1.862,-1.8411,-1.824,-1.7754,-1.7596,-1.7774,0.0,0.0,0.0,0.0,0.0,0.0,0.0,0.0,0.0,0.0,0.0,-1.5677,-1.5874,-1.5869,-1.5525,-1.5509,-1.5546,-1.5745,-1.5654,-1.5423,-1.5016,-1.4924,-1.4974,-1.5203,-1.4433,-1.4111,-1.4585,-1.3793,-1.3315,-1.3584,-1.3378,-1.3298,-1.3559,-1.3378,-1.3288,-1.346,-1.3479,-1.3525,-1.3594,-1.3997,-1.4409,-1.4821,-1.4898,-1.4746,-1.4458,-1.4038,-1.3515,-1.2918,-1.2768,-1.2768,-1.2838,-1.2703,-1.2627,-1.2561,-1.2347,-1.2174,-1.2156,-1.1968,-1.1804,-1.1833,-1.18,-1.1719,-1.1626,-1.1589,-1.1589,-1.1552,-1.1626,-1.1664,-1.1465,-1.1456,-1.1142,-3.184,-3.1423,-3.1201,-3.0567,-2.9694,-2.9377,-2.9089,-2.8669,0.0,0.0,0.0,-2.456,-2.4076,-2.3478,-2.3304,-2.32,-2.3084,-2.3084,-2.3004,-2.2888,-2.2888,-2.2888,-2.2888,-2.2888,-2.2872,-2.2795,-2.2818,-2.2507,-2.1973,-2.2281,-2.1965,-2.1112,-2.1306,-2.0878,-1.9761,-1.9164,-1.8818,-1.8764,-1.8447,-1.8234,-1.8103,-1.7754,-1.7665,-1.7826,-1.7581,-1.7465,-1.7549,-1.7416,-1.7225,-1.7023,-1.6981,-1.6952,-1.6854,-1.6641,-1.65,-1.6479,-1.6318,-1.6234,-1.62,-1.6088,-1.6022,-1.5966,-1.5814,-1.569,-1.559,-1.5784,-1.5771,-1.5433,-1.4908,-1.4734,-1.5146,-1.4112,-1.3576,-1.4053,-1.3559,-1.3446,-1.3959,-1.3654,-1.3447,-1.3698,-1.3631,-1.3533,-1.3658,-1.4038,-1.4448,-1.4813,-1.5122,-1.532,-1.4745,-1.3939,-1.3286,-1.2951,-1.2764,-1.268,-1.2768,-1.2662,-1.2526,-1.2675,-1.2466,-1.2233,-1.2205,-1.205,-1.192,-1.1859,-1.1771,-1.1701,-1.1645,-1.1571,-1.1522,-1.1637,-1.1682,-1.173,-1.1793,-1.1856,-1.1595,-3.2859,-3.2381,-3.1998,-3.1653,-3.1226,-3.0567,-2.9663,-2.8547,-2.7539,-2.6762,-2.61,-2.5329,-2.4973,-2.4879,-2.4645,-2.4259,-2.376,-2.3746,-2.3447,0.0,-2.2888,-2.2888,-2.2888,-2.2888,-2.2872,-2.2795,-2.2849,-2.2754,-2.2523,-2.2549,-2.2432,-2.2189,-2.2108,-2.1715,-2.104,-2.0428,-1.9768,-1.9052,-1.8485,-1.8049,-1.7781,-1.7821,-1.7989,-1.8265,-1.7748,-1.7707,-1.816,-1.7452,-1.7044,-1.6989,-1.6939,-1.6854,-1.6718,-1.6599,-1.6479,-1.6414,-1.6392,-1.6318,-1.6222,-1.6178,-1.6078,-1.5859,-1.5814,-1.5822,-1.5922,-1.5719,-1.5856,-1.6509,-1.5769,-1.5214,-1.5171,-1.4547,-1.4094,-1.4091,-1.3584,-1.3441,-1.4047,-1.3938,-1.3791,-1.376,-1.4253,-1.4467,-1.4334,-1.4341,-1.4512,-1.4875,-1.4961,-1.4724,-1.4613,-1.3763,-1.3212,-1.3193,-1.2799,-1.2609,-1.2768,-1.2803,-1.2818,-1.3213,-1.277,-1.2465,-1.2623,-1.224,-1.1925,-1.1763,-1.1738,-1.1656,-1.1507,-1.1477,-1.1485,-1.1496,-1.1589,-1.1701,-1.1793,-1.1874,-1.1743,-3.255,-3.233,-3.1925,-3.1518,-3.1113,-3.0355,-2.9475,-2.8566,-2.8148,-2.7306,-2.6298,-2.5874,-2.5453,-2.5034,-2.4912,-2.4704,-2.4399,-2.4375,-2.4041,-2.3484,-2.3432,-2.3244,-2.2917,-2.2888,-2.2902,-2.2886,-2.2894,-2.2834,-2.2712,-2.2638,-2.2546,-2.2365,-2.1953,-2.1729,-2.1715,-2.085,-2.0263,-1.9899,-1.8987,-1.8249,-1.7604,-1.7563,-1.7601,-1.7734,-1.74,-1.7316,-1.754,-1.708,-1.6812,-1.6714,-1.6693,-1.665,-1.6599,-1.6426,-1.6349,-1.6392,-1.6262,-1.6154,-1.61,-1.6013,-1.5925,-1.5814,-1.5814,-1.5814,-1.5891,-1.588,-1.611,-1.66,-1.6059,-1.5806,-1.6037,-1.528,-1.4827,-1.5043,-1.4538,-1.4311,-1.4513,-1.45,-1.4387,-1.4253,-1.4417,-1.4496,-1.4302,-1.4189,-1.4292,-1.4689,-1.4814,-1.4939,-1.4995,-1.4315,-1.3587,-1.3232,-1.289,-1.2676,-1.2645,-1.2609,-1.2681,-1.2889,-1.2693,-1.2591,-1.2688,-1.2308,-1.2064,-1.2046,-1.1885,-1.1682,-1.1582,-1.1533,-1.1515,-1.1496,-1.1571,-1.1701,-1.1793,-1.1936,-1.1858,-3.2259,-3.2107,-3.1754,-3.1368,-3.087,-3.0101,-2.9451,-2.8988,-2.8659,-2.7787,-2.6684,-2.6463,-2.604,-2.5417,-2.5338,-2.5212,-2.5042,-2.5027,-2.4718,-2.4152,-2.4123,-2.3775,-2.3186,-2.3128,-2.3033,-2.2902,-2.2888,-2.2857,-2.2795,-2.2652,-2.2509,-2.2314,-2.1775,-2.1744,-2.218,-2.1212,-2.0673,-2.0506,-1.9566,-1.8626,-1.7673,-1.7479,-1.7321,-1.7149,-1.7044,-1.6952,-1.6854,-1.674,-1.6599,-1.6522,-1.6513,-1.6513,-1.65,-1.6349,-1.6318,-1.6383,-1.6219,-1.6054,-1.601,-1.5913,-1.5836,-1.5814,-1.5814,-1.5814,-1.5814,-1.5969,-1.6231,-1.6429,-1.6304,-1.6281,-1.6453,-1.5909,-1.5511,-1.5805,-1.5334,-1.5018,-1.5125,-1.5104,-1.4947,-1.4742,-1.47,-1.4605,-1.4334,-1.4231,-1.4388,-1.4731,-1.5034,-1.5244,-1.522,-1.4819,-1.4232,-1.3593,-1.3181,-1.2969,-1.2653,-1.2602,-1.2625,-1.2632,-1.2556,-1.2591,-1.262,-1.2416,-1.226,-1.2336,-1.2052,-1.1864,-1.1841,-1.17,-1.16,-1.1589,-1.1664,-1.1738,-1.183,-1.2016,-1.1965,-3.2754,-3.2099,-3.1968,-3.1768,-3.1345,-3.0561,-3.0177,-2.9941,-2.8857,-2.8134,-2.7671,-2.7291,-2.6972,-2.6802,-2.6614,-2.6253,-2.572,-2.5716,-2.5357,-2.4873,-2.4805,-2.4442,-2.3804,-2.3789,-2.3499,-2.296,-2.2888,-2.2849,-2.2772,-2.2652,-2.2463,-2.2231,-2.2137,-2.21,-2.2119,-2.1824,-2.1239,-2.0438,-2.006,-1.9291,-1.8131,-1.8044,-1.7683,-1.7023,-1.6939,-1.6846,-1.6718,-1.6599,-1.6522,-1.65,-1.6513,-1.6513,-1.65,-1.6479,-1.6436,-1.6426,-1.6371,-1.625,-1.6022,-1.6001,-1.5913,-1.5814,-1.5814,-1.5814,-1.5814,-1.5836,-1.6035,-1.6389,-1.6663,-1.6573,-1.6158,-1.5979,-1.5906,-1.5812,-1.5351,-1.5104,-1.5537,-1.5516,-1.5303,-1.4992,-1.531,-1.5438,-1.5009,-1.4941,-1.5068,-1.5023,-1.5095,-1.5142,-1.5131,-1.5039,-1.4821,-1.4303,-1.3868,-1.3495,-1.3216,-1.3113,-1.304,-1.3017,-1.2768,-1.2691,-1.2733,-1.2554,-1.2283,-1.2585,-1.231,-1.211,-1.2192,-1.2109,-1.1715,-1.1682,-1.1727,-1.18,-1.1899,-1.2041,-1.1953,-3.2479,-3.2094,-3.194,-3.1741,-3.1406,-3.0651,-3.0312,-3.015,-2.8793,-2.8071,-2.7822,-2.7319,-2.6989,-2.6873,-2.682,-2.666,-2.6413,-2.6373,-2.6065,-2.5444,-2.5415,-2.4878,-2.3963,-2.382,-2.3441,-2.2892,-2.2766,-2.2661,-2.256,-2.2431,-2.2301,-2.2184,-2.2044,-2.1973,-2.1926,-2.1616,-2.1167,-2.0649,-2.0441,-1.9867,-1.891,-1.8203,-1.7729,-1.7406,-1.6991,-1.6774,-1.6709,-1.6577,-1.6513,-1.6513,-1.6513,-1.6513,-1.6513,-1.6457,-1.6457,-1.6457,-1.6362,-1.6231,-1.6122,-1.5979,-1.5859,-1.5814,-1.5814,-1.5814,-1.5814,-1.5814,-1.5947,-1.6275,-1.6522,-1.6579,-1.643,-1.6488,-1.6454,-1.6296,-1.6077,-1.6027,-1.6241,-1.6162,-1.6014,-1.5911,-1.5823,-1.5594,-1.518,-1.4945,-1.4858,-1.486,-1.4945,-1.5108,-1.5085,-1.5028,-1.4948,-1.4822,-1.4516,-1.4081,-1.3654,-1.3552,-1.3416,-1.3186,-1.3366,-1.3557,-1.2782,-1.3162,-1.3286,-1.3012,-1.2815,-1.2653,-1.2619,-1.2462,-1.2143,-1.1904,-1.1719,-1.1763,-1.1874,-1.2034,-1.198,-3.2219,-3.2107,-3.1826,-3.1597,-3.1408,-3.0787,-3.0494,-3.0259,-2.8937,-2.8257,-2.8046,-2.7328,-2.6925,-2.682,-2.6794,-2.6794,-2.6794,-2.6794,-2.6559,-2.6108,-2.6079,-2.5498,-2.4471,-2.4341,-2.3851,-2.3141,-2.2956,-2.2726,-2.2422,-2.2184,-2.2091,-2.2044,-2.1831,-2.1712,-2.1664,-2.1302,-2.0981,-2.0759,-2.0535,-2.0115,-1.9467,-1.8552,-1.7915,-1.7642,-1.7032,-1.6697,-1.6641,-1.6543,-1.65,-1.6479,-1.6479,-1.6457,-1.6426,-1.6383,-1.6362,-1.6392,-1.6253,-1.6144,-1.6144,-1.5925,-1.5814,-1.5814,-1.5814,-1.5814,-1.5814,-1.5814,-1.5881,-1.6057,-1.6297,-1.6491,-1.6675,-1.6769,-1.6782,-1.6675,-1.662,-1.6577,-1.65,-1.6414,-1.6281,-1.6207,-1.591,-1.566,-1.527,-1.494,-1.4757,-1.4814,-1.4957,-1.5028,-1.4959,-1.4891,-1.4915,-1.4925,-1.4846,-1.4608,-1.3973,-1.3914,-1.3715,-1.3476,-1.3713,-1.3737,-1.2941,-1.3627,-1.4087,-1.359,-1.3561,-1.3511,-1.3354,-1.308,-1.2443,-1.1867,-1.1645,-1.1808,-1.2103,-1.2196,-1.227,-3.2247,-3.1996,-3.1655,-3.1453,-3.1278,-3.1102,-3.0911,-3.0587,-2.9373,-2.8763,-2.8446,-2.7477,-2.6925,-2.6794,-2.6779,-2.6794,-2.6779,-2.6779,-2.6779,-2.6736,-2.6707,-2.6358,-2.5759,-2.5691,-2.4964,-2.3693,-2.3597,-2.3193,-2.2432,-2.202,-2.1831,-2.1807,-2.1544,-2.1423,-2.1337,-2.0981,-2.0759,-2.056,-2.022,-1.9952,-1.9736,-1.9196,-1.8451,-1.7609,-1.7023,-1.667,-1.6522,-1.6522,-1.6479,-1.6426,-1.6426,-1.6349,-1.6231,-1.6234,-1.6246,-1.6234,-1.6113,-1.6035,-1.6025,-1.5893,-1.5814,-1.5814,-1.5814,-1.5814,-1.5814,-1.5814,-1.5814,-1.5836,-1.6057,-1.6318,-1.659,-1.6633,-1.6599,-1.6488,-1.638,-1.6238,-1.6054,-1.6066,-1.5891,-1.5714,-1.5714,-1.5668,-1.5477,-1.5254,-1.5118,-1.5129,-1.5153,-1.4993,-1.4718,-1.4755,-1.4789,-1.4696,-1.4787,-1.4913,-1.4476,-1.4458,-1.4194,-1.3905,-1.3901,-1.3871,-1.3776,-1.3749,-1.4025,-1.4132,-1.3937,-1.3874,-1.3987,-1.3547,-1.269,-1.2098,-1.1721,-1.1832,-1.2368,-1.2522,-1.2588,-3.2247,-3.1996,-3.1769,-3.1524,-3.1292,-3.1161,-3.0793,-3.0134,-2.92,-2.849,-2.7969,-2.721,-2.6846,-2.6779,-2.6671,-2.6604,-2.6618,-2.6525,-2.6741,-2.7126,-2.6726,-2.6395,-2.6217,-2.5764,-2.5045,-2.4162,-2.3975,-2.3491,-2.263,-2.2072,-2.1712,-2.1482,-2.1177,-2.1031,-2.0945,-2.0548,-2.0245,-2.0182,-1.9978,-1.9862,-1.9761,-1.9271,-1.8619,-1.7856,-1.7385,-1.6942,-1.6513,-1.6513,-1.6479,-1.6457,-1.6457,-1.6414,-1.6365,-1.6576,-1.6704,-1.6704,-1.6579,-1.6511,-1.6452,-1.6061,-1.5814,-1.5814,-1.5814,-1.5826,-1.5814,-1.5814,-1.5814,-1.5814,-1.5859,-1.6069,-1.6175,-1.6241,-1.6241,-1.6175,-1.6066,-1.5979,-1.5891,-1.5869,-1.5824,-1.5714,-1.5647,-1.5547,-1.5413,-1.5278,-1.521,-1.5165,-1.5131,-1.5005,-1.4902,-1.4892,-1.4869,-1.4845,-1.4914,-1.4983,-1.5048,-1.5055,-1.496,-1.4613,-1.4425,-1.4229,-1.4095,-1.4433,-1.4756,-1.4504,-1.4281,-1.4271,-1.4363,-1.3652,-1.2832,-1.2625,-1.2237,-1.1979,-1.2643,-1.2678,-1.2809,-3.2178,-3.1968,-3.1741,-3.1482,-3.1234,-3.1073,-3.0676,-3.0032,-2.9101,-2.8434,-2.794,-2.7171,-2.6794,-2.6753,-2.6592,-2.6457,-2.6445,-2.6324,-2.6662,-2.7157,-2.6512,-2.6244,-2.624,-2.5684,-2.4976,-2.4243,-2.3707,-2.3206,-2.2652,-2.1865,-2.1494,-2.1486,-2.0927,-2.0727,-2.0769,-2.031,-1.999,-1.9965,-1.9888,-1.9798,-1.9748,-1.9434,-1.8846,-1.8099,-1.7781,-1.7287,-1.6529,-1.6479,-1.6457,-1.6457,-1.6392,-1.6306,-1.6268,-1.6669,-1.6953,-1.6953,-1.702,-1.7058,-1.7011,-1.6592,-1.6259,-1.609,-1.6044,-1.603,-1.5862,-1.5814,-1.5814,-1.5814,-1.5814,-1.5836,-1.5881,-1.5869,-1.5869,-1.5891,-1.5824,-1.5691,-1.5637,-1.5649,-1.5659,-1.5659,-1.5491,-1.5334,-1.5244,-1.5233,-1.5153,-1.5051,-1.5062,-1.5051,-1.4902,-1.4948,-1.4914,-1.4935,-1.5038,-1.5209,-1.532,-1.5419,-1.5408,-1.5117,-1.4868,-1.4671,-1.4593,-1.5011,-1.5105,-1.4853,-1.475,-1.4751,-1.438,-1.3692,-1.3341,-1.3144,-1.2469,-1.1957,-1.2419,-1.2736,-1.2959,-3.2025,-3.1925,-3.1509,-3.1263,-3.1102,-3.0925,-3.0717,-3.0308,-2.9217,-2.8636,-2.8317,-2.7343,-2.6779,-2.6753,-2.6566,-2.6418,-2.6286,-2.6218,-2.6438,-2.6753,-2.6224,-2.6005,-2.61,-2.5632,-2.5039,-2.4326,-2.3034,-2.2579,-2.2729,-2.1634,-2.1215,-2.1444,-2.0784,-2.0592,-2.1078,-2.0423,-2.0028,-1.9965,-1.9837,-1.9798,-1.9798,-1.9722,-1.9171,-1.8163,-1.8084,-1.7583,-1.6492,-1.6417,-1.6414,-1.6371,-1.6175,-1.5957,-1.5975,-1.6502,-1.685,-1.6949,-1.7302,-1.7581,-1.7581,-1.74,-1.7003,-1.6691,-1.6583,-1.6343,-1.6006,-1.585,-1.5814,-1.5814,-1.5852,-1.583,-1.5753,-1.5722,-1.5687,-1.5736,-1.5647,-1.5491,-1.5368,-1.53,-1.5345,-1.5424,-1.5277,-1.5142,-1.5119,-1.5142,-1.5085,-1.4983,-1.5028,-1.4993,-1.4729,-1.4879,-1.4878,-1.4803,-1.501,-1.5356,-1.5547,-1.5738,-1.566,-1.5525,-1.5331,-1.5137,-1.5011,-1.522,-1.5153,-1.4958,-1.4947,-1.4924,-1.4597,-1.3972,-1.3609,-1.3292,-1.2542,-1.2184,-1.2637,-1.3097,-1.3271,-3.2094,-3.1968,-3.1596,-3.1307,-3.1087,-3.0895,-3.0469,-2.9856,-2.9015,-2.8434,-2.7926,-2.7157,-2.6738,-2.6592,-2.6433,-2.6245,-2.6029,-2.5867,-2.6077,-2.6469,-2.6104,-2.599,-2.5992,-2.5549,-2.5093,-2.4694,-2.3947,-2.3473,-2.3138,-2.2034,-2.1629,-2.1731,-2.113,-2.0805,-2.0957,-2.0622,-2.0317,-1.9874,-1.9824,-1.9759,-1.9682,-1.9656,-1.9205,-1.84,-1.8055,-1.7524,-1.6743,-1.6504,-1.6426,-1.6457,-1.6253,-1.6078,-1.6114,-1.6748,-1.7183,-1.7267,-1.7713,-1.8015,-1.7967,-1.7653,-1.7363,-1.7111,-1.6835,-1.6571,-1.6343,-1.6006,-1.5816,-1.5852,-1.6024,-1.6159,-1.6103,-1.6255,-1.6103,-1.5529,-1.5334,-1.5289,-1.521,-1.5153,-1.5176,-1.5198,-1.5153,-1.5074,-1.5006,-1.5017,-1.5062,-1.4949,-1.5006,-1.5005,-1.497,-1.4993,-1.5085,-1.4991,-1.5277,-1.5519,-1.5762,-1.5995,-1.6055,-1.588,-1.5683,-1.5509,-1.5405,-1.5142,-1.5096,-1.5074,-1.5074,-1.4983,-1.4654,-1.4328,-1.3926,-1.3581,-1.3058,-1.3062,-1.3343,-1.3449,-1.3417,-3.2194,-3.1898,-3.1524,-3.1263,-3.1087,-3.0821,-3.0439,-2.9871,-2.9044,-2.8448,-2.7984,-2.7157,-2.6686,-2.6498,-2.6353,-2.6096,-2.5839,-2.5688,-2.5697,-2.5847,-2.5833,-2.572,-2.5619,-2.5094,-2.4939,-2.4869,-2.4141,-2.3628,-2.3464,-2.2335,-2.1885,-2.2065,-2.1502,-2.114,-2.1102,-2.0833,-2.0402,-1.9886,-1.9798,-1.9747,-1.9682,-1.963,-1.9253,-1.8558,-1.8228,-1.7763,-1.7143,-1.6939,-1.6705,-1.6427,-1.6231,-1.6152,-1.6262,-1.6954,-1.7496,-1.7772,-1.8169,-1.8494,-1.8458,-1.8217,-1.7893,-1.7651,-1.7195,-1.6895,-1.6728,-1.6249,-1.5864,-1.6036,-1.6229,-1.635,-1.6291,-1.6569,-1.6437,-1.588,-1.5579,-1.5326,-1.5188,-1.5119,-1.5119,-1.5119,-1.5119,-1.504,-1.496,-1.5006,-1.5028,-1.4949,-1.5006,-1.5234,-1.528,-1.528,-1.5349,-1.5476,-1.573,-1.5928,-1.601,-1.622,-1.6431,-1.6243,-1.5998,-1.5812,-1.5661,-1.52,-1.496,-1.4971,-1.4994,-1.4983,-1.4722,-1.4516,-1.4186,-1.3845,-1.3451,-1.3361,-1.3325,-1.3215,-1.3259,-3.2342,-3.1757,-3.1322,-3.1146,-3.1058,-3.0762,-3.0613,-3.038,-2.9218,-2.8609,-2.832,-2.7194,-2.6566,-2.6377,-2.615,-2.5921,-2.5744,-2.5748,-2.5468,-2.5143,-2.5226,-2.5328,-2.4811,-2.4429,-2.4511,-2.4721,-2.3757,-2.3241,-2.3271,-2.2339,-2.202,-2.2464,-2.1933,-2.1559,-2.1471,-2.1031,-2.0528,-2.0012,-1.9849,-1.9785,-1.9747,-1.963,-1.9315,-1.8669,-1.8522,-1.8203,-1.7715,-1.7423,-1.7033,-1.6402,-1.6215,-1.6274,-1.6654,-1.7123,-1.7675,-1.801,-1.8612,-1.8831,-1.8927,-1.8819,-1.8674,-1.8253,-1.776,-1.7363,-1.7098,-1.6526,-1.606,-1.6194,-1.6432,-1.648,-1.6408,-1.6729,-1.6802,-1.6623,-1.6118,-1.5659,-1.5246,-1.52,-1.5246,-1.5234,-1.5154,-1.5143,-1.5119,-1.5143,-1.512,-1.5085,-1.5165,-1.5441,-1.5739,-1.5844,-1.5938,-1.6054,-1.6171,-1.6241,-1.6298,-1.6573,-1.6794,-1.6763,-1.646,-1.6204,-1.5799,-1.5257,-1.488,-1.4892,-1.4926,-1.4903,-1.4754,-1.4512,-1.4257,-1.3914,-1.3611,-1.3367,-1.3248,-1.3221,-1.3278,-3.2357,-3.1771,-3.1424,-3.119,-3.1087,-3.0866,-3.0702,-3.0438,-2.9146,-2.8483,-2.7968,-2.6732,-2.5976,-2.5578,-2.555,-2.5477,-2.5474,-2.5512,-2.5595,-2.5507,-2.5608,-2.5122,-2.4458,-2.4171,-2.4145,-2.419,-2.3842,-2.3615,-2.3434,-2.2706,-2.2629,-2.3137,-2.2459,-2.2083,-2.2008,-2.1531,-2.1018,-2.0439,-1.9895,-1.9668,-1.9604,-1.942,-1.924,-1.9042,-1.8576,-1.8283,-1.7967,-1.7255,-1.7002,-1.7074,-1.664,-1.6643,-1.6991,-1.7393,-1.7606,-1.7682,-1.8313,-1.8725,-1.8576,-1.8782,-1.8891,-1.8782,-1.819,-1.7783,-1.7228,-1.7002,-1.648,-1.6208,-1.6573,-1.7083,-1.6869,-1.73,-1.7511,-1.7166,-1.644,-1.5889,-1.5739,-1.5682,-1.5694,-1.5716,-1.598,-1.5945,-1.5714,-1.5623,-1.5623,-1.5588,-1.5645,-1.5784,-1.6093,-1.629,-1.6316,-1.6371,-1.6451,-1.6486,-1.6623,-1.6917,-1.7111,-1.7189,-1.6959,-1.6623,-1.6024,-1.529,-1.5005,-1.4857,-1.4926,-1.4949,-1.464,-1.4326,-1.4106,-1.3941,-1.37,-1.3465,-1.3496,-1.3499,-1.3468,-3.2496,-3.167,-3.1409,-3.1205,-3.1073,-3.0895,-3.0672,-3.0289,-2.9377,-2.8641,-2.8008,-2.6877,-2.6036,-2.5586,-2.5325,-2.5124,-2.5071,-2.5292,-2.5259,-2.5083,-2.5301,-2.5171,-2.4749,-2.4303,-2.3964,-2.4099,-2.3833,-2.3582,-2.3357,-2.2989,-2.3035,-2.3144,-2.2854,-2.2548,-2.2272,-2.1963,-2.1359,-2.0684,-2.0074,-1.9772,-1.9511,-1.9328,-1.9223,-1.9121,-1.8738,-1.853,-1.8422,-1.7662,-1.7195,-1.6991,-1.6572,-1.6441,-1.6824,-1.7171,-1.7394,-1.7436,-1.8125,-1.838,-1.8295,-1.8593,-1.875,-1.8587,-1.8235,-1.7986,-1.7672,-1.7399,-1.6751,-1.6665,-1.7221,-1.7357,-1.7329,-1.7732,-1.7932,-1.7645,-1.6784,-1.6221,-1.6174,-1.6187,-1.6187,-1.6279,-1.6403,-1.648,-1.6086,-1.6039,-1.5966,-1.5881,-1.5917,-1.6101,-1.6332,-1.6487,-1.6656,-1.6676,-1.6768,-1.6839,-1.6991,-1.7237,-1.726,-1.7347,-1.7263,-1.6937,-1.6373,-1.5585,-1.5208,-1.5026,-1.5017,-1.4902,-1.4622,-1.4341,-1.4093,-1.3894,-1.3705,-1.361,-1.361,-1.361,-1.361,-3.2721,-3.1482,-3.1351,-3.1234,-3.1073,-3.0895,-3.0642,-3.0241,-2.9517,-2.8994,-2.8324,-2.7182,-2.6253,-2.5992,-2.5221,-2.4916,-2.4728,-2.5266,-2.508,-2.4962,-2.5084,-2.53,-2.5187,-2.4348,-2.4034,-2.4128,-2.3641,-2.3368,-2.3185,-2.31,-2.307,-2.3113,-2.307,-2.2844,-2.2506,-2.2189,-2.1583,-2.0909,-2.0459,-2.0118,-1.9787,-1.9531,-1.9364,-1.934,-1.9025,-1.8888,-1.8718,-1.8197,-1.7527,-1.6788,-1.6261,-1.6443,-1.6729,-1.6969,-1.7161,-1.7646,-1.7984,-1.8151,-1.8039,-1.8243,-1.8441,-1.8186,-1.7993,-1.7917,-1.7993,-1.7613,-1.7285,-1.7136,-1.7563,-1.7665,-1.7685,-1.7936,-1.8043,-1.7917,-1.7217,-1.6839,-1.6667,-1.6633,-1.6587,-1.6587,-1.6587,-1.6632,-1.6331,-1.6227,-1.6162,-1.6063,-1.6092,-1.6149,-1.6328,-1.6466,-1.6717,-1.6968,-1.7082,-1.722,-1.7392,-1.7561,-1.7458,-1.7404,-1.7329,-1.7094,-1.6806,-1.6164,-1.5593,-1.5298,-1.523,-1.5065,-1.4799,-1.4497,-1.4204,-1.3931,-1.3755,-1.3659,-1.361,-1.361,-1.361,-3.2721,-3.1496,-3.1351,-3.1205,-3.1087,-3.0881,-3.0612,-3.0224,-2.929,-2.8792,-2.8138,-2.6578,-2.5778,-2.5649,-2.4946,-2.4718,-2.5398,-2.5629,-2.5728,-2.5967,-2.5891,-2.5376,-2.4926,-2.4399,-2.4133,-2.3803,-2.3509,-2.33,-2.3138,-2.3095,-2.3095,-2.3095,-2.3065,-2.3045,-2.2865,-2.2342,-2.2039,-2.165,-2.1035,-2.0657,-2.0412,-1.9918,-1.9667,-1.9646,-1.9135,-1.8836,-1.8622,-1.7906,-1.7489,-1.756,-1.7461,-1.7435,-1.7853,-1.7955,-1.776,-1.7601,-1.7962,-1.7966,-1.7478,-1.779,-1.8174,-1.8054,-1.8005,-1.7962,-1.7775,-1.8011,-1.7586,-1.7275,-1.7484,-1.7913,-1.797,-1.8058,-1.8084,-1.7977,-1.7809,-1.7504,-1.7243,-1.6839,-1.6554,-1.6415,-1.6985,-1.7361,-1.6389,-1.658,-1.6494,-1.6322,-1.6234,-1.621,-1.6309,-1.6452,-1.6707,-1.6994,-1.6991,-1.7022,-1.7128,-1.7217,-1.7077,-1.7191,-1.7257,-1.7162,-1.6874,-1.6565,-1.591,-1.5583,-1.5439,-1.5207,-1.4895,-1.4775,-1.451,-1.4167,-1.3851,-1.3824,-1.3796,-1.3724,-1.3655,-3.242,-3.1337,-3.1249,-3.1102,-3.0955,-3.0836,-3.0582,-3.0131,-2.9464,-2.9002,-2.8384,-2.6698,-2.6001,-2.6178,-2.5129,-2.5014,-2.5579,-2.5699,-2.5921,-2.6149,-2.5968,-2.5237,-2.4517,-2.4336,-2.4075,-2.3466,-2.3288,-2.3198,-2.3138,-2.3095,-2.3095,-2.3095,-2.3047,-2.2987,-2.2957,-2.2478,-2.2112,-2.1812,-2.1392,-2.095,-2.055,-2.0208,-1.9608,-1.9317,-1.8729,-1.8356,-1.8209,-1.7732,-1.7586,-1.7711,-1.7719,-1.776,-1.7991,-1.7961,-1.7663,-1.7451,-1.7544,-1.7561,-1.717,-1.7307,-1.7667,-1.7705,-1.7815,-1.7908,-1.7867,-1.8132,-1.799,-1.7588,-1.7741,-1.8111,-1.8084,-1.7947,-1.7947,-1.7918,-1.772,-1.738,-1.7037,-1.6917,-1.6784,-1.6516,-1.6951,-1.6957,-1.6751,-1.6722,-1.6645,-1.6388,-1.6455,-1.6418,-1.6179,-1.6351,-1.6635,-1.6806,-1.6743,-1.676,-1.6788,-1.6747,-1.6548,-1.6763,-1.7079,-1.6951,-1.6758,-1.6477,-1.615,-1.5961,-1.577,-1.5289,-1.5009,-1.4898,-1.474,-1.4335,-1.408,-1.4047,-1.3982,-1.3908,-1.3838,-3.2053,-3.1014,-3.1043,-3.0955,-3.0806,-3.0732,-3.0476,-3.0111,-2.9727,-2.93,-2.8787,-2.7126,-2.6507,-2.6742,-2.559,-2.5345,-2.5626,-2.5696,-2.5897,-2.5917,-2.5563,-2.4893,-2.4316,-2.4151,-2.391,-2.3381,-2.3198,-2.3095,-2.3095,-2.3095,-2.3078,-2.3047,-2.2969,-2.2909,-2.2818,-2.2561,-2.2232,-2.1861,-2.1578,-2.1176,-2.0547,-2.0252,-1.961,-1.876,-1.83,-1.7956,-1.7799,-1.7503,-1.7418,-1.7591,-1.749,-1.7395,-1.7338,-1.7277,-1.7262,-1.7198,-1.7252,-1.7107,-1.6856,-1.6972,-1.7172,-1.7172,-1.7379,-1.7711,-1.7936,-1.8007,-1.7988,-1.8027,-1.8057,-1.8057,-1.8057,-1.792,-1.7865,-1.7813,-1.742,-1.6954,-1.6729,-1.7054,-1.6991,-1.6425,-1.6647,-1.6796,-1.6633,-1.6526,-1.649,-1.6495,-1.6574,-1.6563,-1.6305,-1.614,-1.6347,-1.6424,-1.6328,-1.624,-1.6257,-1.6889,-1.663,-1.6488,-1.6849,-1.6949,-1.6762,-1.6495,-1.6313,-1.6317,-1.6055,-1.5561,-1.5232,-1.5168,-1.4929,-1.4486,-1.4328,-1.4318,-1.4251,-1.414,-1.4013,-3.1884,-3.0702,-3.0806,-3.0836,-3.0762,-3.0507,-3.0266,-3.0036,-2.9574,-2.9261,-2.8856,-2.718,-2.6667,-2.6756,-2.5669,-2.5323,-2.5747,-2.582,-2.5639,-2.5467,-2.5122,-2.4653,-2.4091,-2.3983,-2.3743,-2.3294,-2.3095,-2.3095,-2.3095,-2.3095,-2.3047,-2.2969,-2.2891,-2.283,-2.2708,-2.2525,-2.231,-2.2061,-2.1761,-2.1407,-2.1112,-2.0373,-1.9539,-1.8554,-1.8194,-1.7917,-1.7562,-1.7163,-1.7095,-1.7564,-1.7252,-1.7256,-1.7359,-1.7398,-1.728,-1.7148,-1.713,-1.6976,-1.6658,-1.6733,-1.6846,-1.6874,-1.6959,-1.7267,-1.759,-1.7767,-1.7838,-1.8002,-1.7991,-1.7963,-1.7925,-1.7854,-1.7909,-1.7957,-1.7877,-1.7603,-1.7291,-1.7194,-1.6899,-1.6047,-1.637,-1.674,-1.6568,-1.6476,-1.6546,-1.6425,-1.6349,-1.6311,-1.6153,-1.5924,-1.5847,-1.5879,-1.5822,-1.5745,-1.5661,-1.6603,-1.6953,-1.653,-1.6722,-1.716,-1.6968,-1.6644,-1.6477,-1.6385,-1.617,-1.5744,-1.5509,-1.5423,-1.5188,-1.4851,-1.473,-1.4665,-1.4568,-1.4445,-1.4128,-3.1366,-3.0142,-3.0507,-3.0582,-3.0431,-3.0357,-3.0219,-3.0019,-2.9543,-2.9324,-2.8823,-2.7629,-2.7207,-2.7407,-2.6522,-2.6114,-2.6304,-2.5977,-2.5617,-2.5147,-2.4697,-2.4173,-2.3615,-2.3631,-2.345,-2.3188,-2.3095,-2.3108,-2.3095,-2.3017,-2.2969,-2.2878,-2.2726,-2.2604,-2.2494,-2.2266,-2.2161,-2.2049,-2.1683,-2.1325,-2.1207,-2.0207,-1.9247,-1.8696,-1.8175,-1.7793,-1.7338,-1.7095,-1.6847,-1.6896,-1.6759,-1.6776,-1.6896,-1.6976,-1.6976,-1.6983,-1.6994,-1.6835,-1.6488,-1.6545,-1.6648,-1.679,-1.679,-1.6976,-1.7301,-1.7468,-1.759,-1.7783,-1.7963,-1.7897,-1.7897,-1.7788,-1.7772,-1.7865,-1.7865,-1.7655,-1.7433,-1.7322,-1.6731,-1.6023,-1.6517,-1.6773,-1.6481,-1.6471,-1.6578,-1.6451,-1.6213,-1.6088,-1.6022,-1.5917,-1.5785,-1.5876,-1.5939,-1.5759,-1.5658,-1.6181,-1.683,-1.6504,-1.6488,-1.694,-1.6933,-1.6513,-1.638,-1.637,-1.6109,-1.5716,-1.5743,-1.5669,-1.5415,-1.5249,-1.5235,-1.5152,-1.4954,-1.4732,-1.4405,-3.0837,-2.9634,-3.0189,-3.031,-3.0189,-3.0144,-3.0158,-2.9988,-2.9512,-2.9338,-2.9268,-2.7976,-2.7672,-2.7975,-2.7393,-2.6842,-2.6974,-2.6128,-2.5476,-2.4798,-2.4324,-2.3728,-2.3258,-2.3108,-2.3103,-2.3072,-2.3047,-2.309,-2.309,-2.3,-2.2921,-2.28,-2.2543,-2.2359,-2.2297,-2.208,-2.1925,-2.1663,-2.1273,-2.0912,-2.0406,-1.9758,-1.9041,-1.8701,-1.8249,-1.7821,-1.7362,-1.7229,-1.6958,-1.6726,-1.6543,-1.6482,-1.6303,-1.6336,-1.6552,-1.6768,-1.6779,-1.662,-1.6488,-1.6402,-1.6477,-1.6581,-1.6637,-1.6797,-1.705,-1.7217,-1.7385,-1.7562,-1.7728,-1.7788,-1.776,-1.7623,-1.7617,-1.7673,-1.7623,-1.7495,-1.7465,-1.7402,-1.7323,-1.6987,-1.7025,-1.6802,-1.6531,-1.6409,-1.6492,-1.641,-1.6182,-1.6159,-1.6095,-1.6143,-1.6095,-1.6198,-1.6163,-1.5938,-1.5831,-1.5762,-1.617,-1.6136,-1.625,-1.658,-1.6483,-1.6227,-1.6226,-1.6249,-1.5881,-1.5584,-1.5746,-1.5817,-1.5551,-1.5453,-1.564,-1.5608,-1.5331,-1.4939,-1.4523,-3.0625,-2.9617,-2.9665,-3.0036,-3.0371,-2.9913,-2.9851,-2.9988,-2.9415,-2.9131,-2.9135,-2.7922,-2.7611,-2.7802,-2.7317,-2.6652,-2.6184,-2.579,-2.5187,-2.4457,-2.4174,-2.3722,-2.3195,-2.3108,-2.3087,-2.3014,-2.2946,-2.3,-2.3049,-2.3001,-2.283,-2.2678,-2.2451,-2.2352,-2.2262,-2.1961,-2.1757,-2.1443,-2.0935,-2.0313,-1.9682,-1.953,-1.9123,-1.8677,-1.8468,-1.826,-1.776,-1.7626,-1.7386,-1.7097,-1.6959,-1.6755,-1.6462,-1.6379,-1.6402,-1.6459,-1.6431,-1.6441,-1.6374,-1.6363,-1.6278,-1.6267,-1.6239,-1.6371,-1.6627,-1.706,-1.7217,-1.7056,-1.7346,-1.7512,-1.754,-1.7523,-1.7573,-1.7629,-1.7617,-1.7661,-1.7691,-1.7436,-1.7362,-1.7315,-1.7152,-1.6862,-1.658,-1.6468,-1.6392,-1.6306,-1.6228,-1.6177,-1.6156,-1.6151,-1.6181,-1.6241,-1.6186,-1.5998,-1.5946,-1.5877,-1.5821,-1.5848,-1.6025,-1.6251,-1.6169,-1.6069,-1.611,-1.6005,-1.5647,-1.5445,-1.5535,-1.5555,-1.5536,-1.5478,-1.54,-1.5536,-1.5661,-1.5177,-1.4513,-3.0378,-2.955,-2.9432,-2.9481,-2.956,-2.9449,-2.9526,-2.9574,-2.9463,-2.9289,-2.8962,-2.8219,-2.7715,-2.7456,-2.6977,-2.6667,-2.6274,-2.5829,-2.5222,-2.4607,-2.4349,-2.3917,-2.3249,-2.3268,-2.3368,-2.3146,-2.301,-2.3047,-2.3077,-2.2887,-2.2574,-2.2512,-2.224,-2.2135,-2.2198,-2.182,-2.1562,-2.119,-2.062,-1.9846,-1.9274,-1.9164,-1.9048,-1.8489,-1.8545,-1.8376,-1.812,-1.7955,-1.7626,-1.7252,-1.7046,-1.6839,-1.6581,-1.657,-1.6645,-1.6259,-1.6506,-1.6506,-1.6261,-1.623,-1.6134,-1.6048,-1.599,-1.6066,-1.6267,-1.6542,-1.6797,-1.6627,-1.705,-1.7245,-1.7262,-1.7385,-1.7357,-1.7396,-1.7423,-1.7479,-1.7496,-1.7496,-1.7335,-1.7307,-1.7207,-1.6849,-1.6565,-1.6532,-1.6358,-1.6153,-1.6077,-1.6028,-1.6007,-1.6009,-1.6038,-1.6112,-1.6063,-1.5957,-1.5983,-1.5981,-1.5873,-1.5857,-1.5857,-1.6034,-1.5997,-1.5951,-1.5933,-1.5865,-1.5603,-1.5458,-1.5381,-1.5294,-1.5274,-1.5186,-1.5079,-1.5167,-1.5196,-1.4834,-1.4245,-3.0017,-2.9375,-2.9273,-2.9068,-2.8881,-2.9026,-2.9089,-2.9216,-2.9212,-2.9117,-2.8817,-2.8274,-2.7597,-2.7066,-2.6794,-2.6654,-2.6607,-2.6068,-2.539,-2.4981,-2.4698,-2.4078,-2.3437,-2.3387,-2.3682,-2.3438,-2.3291,-2.3296,-2.3294,-2.3108,-2.2778,-2.2426,-2.2178,-2.2115,-2.215,-2.1875,-2.1476,-2.0941,-2.029,-1.9565,-1.9006,-1.9031,-1.8865,-1.863,-1.8509,-1.8455,-1.8238,-1.8265,-1.7933,-1.7492,-1.7275,-1.7099,-1.6922,-1.6698,-1.6742,-1.649,-1.6624,-1.6403,-1.6201,-1.6131,-1.5982,-1.5904,-1.5856,-1.5846,-1.5817,-1.6038,-1.6228,-1.6257,-1.6627,-1.6853,-1.6899,-1.7039,-1.6994,-1.6937,-1.6994,-1.705,-1.7099,-1.7093,-1.7047,-1.6935,-1.6825,-1.6678,-1.6472,-1.6506,-1.6333,-1.6058,-1.5933,-1.5895,-1.5856,-1.5856,-1.5904,-1.5951,-1.5923,-1.5875,-1.5904,-1.5904,-1.5856,-1.5856,-1.5856,-1.5827,-1.5817,-1.5759,-1.573,-1.5604,-1.5488,-1.5362,-1.5245,-1.5117,-1.5009,-1.5,-1.4931,-1.4677,-1.4529,-1.427,-1.4025,-2.9345,-2.9046,-2.8972,-2.8976,-2.9004,-2.856,-2.8578,-2.8803,-2.8546,-2.843,-2.8254,-2.7776,-2.7255,-2.6829,-2.6692,-2.6624,-2.6521,-2.6449,-2.5695,-2.5124,-2.4863,-2.4265,-2.3624,-2.3541,-2.3843,-2.3414,-2.3329,-2.355,-2.3718,-2.3398,-2.2975,-2.2522,-2.2324,-2.2336,-2.2309,-2.2071,-2.1354,-2.0748,-2.0036,-1.9515,-1.9062,-1.8939,-1.8841,-1.8617,-1.865,-1.8687,-1.8465,-1.8539,-1.8375,-1.7847,-1.7687,-1.7513,-1.7246,-1.6766,-1.6696,-1.6779,-1.6517,-1.6337,-1.6198,-1.6007,-1.5847,-1.5759,-1.5701,-1.5633,-1.5575,-1.5904,-1.6038,-1.6061,-1.6463,-1.6568,-1.6496,-1.6431,-1.6801,-1.6764,-1.6854,-1.6806,-1.6835,-1.6764,-1.6688,-1.6524,-1.6494,-1.6553,-1.6515,-1.6586,-1.6261,-1.5955,-1.5807,-1.5769,-1.574,-1.573,-1.5759,-1.5788,-1.5769,-1.574,-1.573,-1.5759,-1.5798,-1.5798,-1.5769,-1.574,-1.5701,-1.5614,-1.5546,-1.5439,-1.5313,-1.5225,-1.5079,-1.4902,-1.4793,-1.4882,-1.4754,-1.435,-1.4201,-1.4052,-1.3821,-2.9285,-2.9153,-2.8749,-2.8485,-2.8281,-2.8216,-2.8249,-2.8346,-2.83,-2.8026,-2.7617,-2.7175,-2.6863,-2.6624,-2.6589,-2.6568,-2.6487,-2.6487,-2.5836,-2.5514,-2.5314,-2.4664,-2.4004,-2.3655,-2.3907,-2.3389,-2.3298,-2.3358,-2.3524,-2.3359,-2.3176,-2.2824,-2.2608,-2.2751,-2.2662,-2.223,-2.1457,-2.0782,-2.0034,-1.9414,-1.912,-1.8694,-1.8472,-1.8245,-1.8245,-1.8347,-1.8371,-1.8438,-1.8278,-1.8074,-1.7895,-1.7724,-1.751,-1.6941,-1.6799,-1.693,-1.6557,-1.6446,-1.6177,-1.597,-1.5711,-1.5575,-1.5507,-1.5517,-1.5537,-1.5861,-1.6049,-1.6188,-1.6487,-1.6708,-1.685,-1.7101,-1.7312,-1.7009,-1.6806,-1.6711,-1.6619,-1.654,-1.648,-1.6433,-1.6618,-1.6777,-1.6715,-1.6674,-1.6277,-1.586,-1.5732,-1.5643,-1.5693,-1.5614,-1.5633,-1.5672,-1.5672,-1.5711,-1.5701,-1.573,-1.5759,-1.5701,-1.5672,-1.5614,-1.5556,-1.5517,-1.542,-1.5313,-1.5176,-1.5059,-1.4872,-1.4636,-1.4547,-1.4547,-1.427,-1.3872,-1.3782,-1.3812,-1.364,-2.8922,-2.8739,-2.8525,-2.8253,-2.8006,-2.7948,-2.7914,-2.7934,-2.802,-2.7743,-2.7142,-2.6769,-2.6589,-2.6521,-2.6487,-2.6499,-2.6465,-2.6393,-2.5884,-2.5648,-2.5477,-2.4866,-2.4132,-2.3858,-2.4061,-2.3431,-2.321,-2.3268,-2.3484,-2.306,-2.3132,-2.3109,-2.2842,-2.2894,-2.2918,-2.235,-2.1581,-2.0985,-2.0488,-1.963,-1.9278,-1.8838,-1.8359,-1.8135,-1.8042,-1.811,-1.8212,-1.8303,-1.8261,-1.8111,-1.7933,-1.7783,-1.755,-1.7256,-1.6974,-1.6821,-1.6709,-1.6678,-1.6362,-1.6126,-1.594,-1.5958,-1.5889,-1.5879,-1.5889,-1.6084,-1.6302,-1.6351,-1.6761,-1.7053,-1.7073,-1.708,-1.7092,-1.6755,-1.6818,-1.6779,-1.6527,-1.6447,-1.6407,-1.6347,-1.6672,-1.7024,-1.6786,-1.6737,-1.6599,-1.6186,-1.5959,-1.5881,-1.5812,-1.5723,-1.5507,-1.5546,-1.5575,-1.5643,-1.573,-1.5653,-1.5605,-1.5575,-1.5517,-1.5469,-1.543,-1.5371,-1.5245,-1.504,-1.4931,-1.4882,-1.4645,-1.4339,-1.4219,-1.4151,-1.3881,-1.3601,-1.3528,-1.3528,-1.3407,-2.8111,-2.762,-2.8164,-2.8381,-2.8315,-2.7758,-2.7536,-2.757,-2.7523,-2.731,-2.6939,-2.6658,-2.6521,-2.6487,-2.6487,-2.6487,-2.6465,-2.6292,-2.5884,-2.5524,-2.542,-2.4616,-2.4117,-2.3956,-2.3903,-2.3411,-2.323,-2.3324,-2.343,-2.3237,-2.3332,-2.3307,-2.2941,-2.2714,-2.3001,-2.2418,-2.1763,-2.1186,-2.0999,-2.0211,-1.9515,-1.9129,-1.8577,-1.8262,-1.8027,-1.8052,-1.8076,-1.8178,-1.8176,-1.8164,-1.7972,-1.7909,-1.7949,-1.7335,-1.7113,-1.723,-1.6904,-1.6787,-1.6687,-1.6668,-1.6629,-1.6492,-1.6356,-1.6393,-1.657,-1.6668,-1.6677,-1.6697,-1.6897,-1.6792,-1.6702,-1.6724,-1.6824,-1.6865,-1.7017,-1.6931,-1.6729,-1.6627,-1.6648,-1.6729,-1.7007,-1.7279,-1.6963,-1.6755,-1.6804,-1.6611,-1.632,-1.6124,-1.6017,-1.5851,-1.5655,-1.5478,-1.5517,-1.5615,-1.5655,-1.5527,-1.5469,-1.541,-1.543,-1.5429,-1.5351,-1.5283,-1.5087,-1.4823,-1.4715,-1.4656,-1.4339,-1.4019,-1.386,-1.3709,-1.367,-1.3459,-1.3354,-1.3272,-1.3172,-2.8074,-2.8473,-2.8004,-2.82,-2.8616,-2.7861,-2.7469,-2.7335,-2.7087,-2.685,-2.6679,-2.6521,-2.6487,-2.6487,-2.6487,-2.6487,-2.6465,-2.6305,-2.5886,-2.5654,-2.5357,-2.4708,-2.4153,-2.3746,-2.3492,-2.2996,-2.2968,-2.2927,-2.2756,-2.2852,-2.3001,-2.3001,-2.2767,-2.2467,-2.2158,-2.1842,-2.1607,-2.1161,-2.0767,-2.0256,-1.981,-1.9225,-1.8709,-1.8393,-1.8159,-1.7988,-1.7979,-1.8047,-1.8008,-1.7998,-1.7797,-1.7765,-1.7809,-1.7255,-1.7138,-1.7232,-1.7071,-1.7324,-1.7471,-1.7529,-1.7275,-1.697,-1.6775,-1.6731,-1.6538,-1.6957,-1.7035,-1.7119,-1.7288,-1.7333,-1.7564,-1.7687,-1.774,-1.7582,-1.755,-1.7337,-1.7177,-1.7132,-1.7161,-1.7249,-1.748,-1.7613,-1.7496,-1.7183,-1.7131,-1.7035,-1.6744,-1.6315,-1.6133,-1.6026,-1.585,-1.5527,-1.5459,-1.5536,-1.5564,-1.5632,-1.5715,-1.581,-1.5683,-1.5537,-1.5421,-1.5257,-1.4946,-1.469,-1.4545,-1.441,-1.4038,-1.3704,-1.3419,-1.3263,-1.3369,-1.3366,-1.3263,-1.315,-1.3019,-2.8161,-2.8482,-2.7864,-2.7967,-2.8415,-2.7738,-2.7302,-2.7066,-2.6782,-2.6611,-2.6521,-2.6487,-2.6487,-2.6487,-2.6487,-2.643,-2.6396,-2.6201,-2.598,-2.5723,-2.5182,-2.4636,-2.4143,-2.3604,-2.3165,-2.2665,-2.2402,-2.2289,-2.2252,-2.2214,-2.2327,-2.2478,-2.244,-2.208,-2.1749,-2.1606,-2.1568,-2.1237,-2.0883,-2.0569,-2.0148,-1.9607,-1.9007,-1.8657,-1.8289,-1.7906,-1.7814,-1.7737,-1.7632,-1.7598,-1.7486,-1.7373,-1.7303,-1.7258,-1.7011,-1.6968,-1.7063,-1.7321,-1.7562,-1.7881,-1.758,-1.7301,-1.7155,-1.7103,-1.7015,-1.7395,-1.7482,-1.7575,-1.7803,-1.7794,-1.7886,-1.8076,-1.807,-1.7857,-1.7735,-1.7516,-1.7425,-1.7402,-1.7405,-1.7531,-1.7638,-1.7789,-1.7872,-1.7755,-1.7518,-1.7341,-1.7178,-1.6677,-1.6222,-1.6129,-1.5954,-1.5623,-1.5516,-1.563,-1.5762,-1.5854,-1.6002,-1.6182,-1.5977,-1.5729,-1.5486,-1.5312,-1.4946,-1.4569,-1.4341,-1.4088,-1.3743,-1.3432,-1.3304,-1.3258,-1.3341,-1.3312,-1.3169,-1.3083,-1.2985,-2.8308,-2.786,-2.7818,-2.7818,-2.778,-2.7451,-2.7066,-2.6726,-2.6679,-2.6611,-2.6487,-2.6487,-2.6487,-2.6487,-2.6487,-2.6396,-2.6188,-2.5992,-2.5805,-2.5477,-2.4981,-2.4562,-2.4043,-2.3482,-2.2889,-2.2467,-2.2203,-2.2025,-2.1845,-2.1921,-2.1911,-2.1911,-2.1959,-2.1769,-2.1655,-2.1502,-2.1436,-2.1242,-2.1038,-2.0685,-2.0276,-1.9901,-1.9338,-1.8839,-1.8278,-1.7836,-1.7571,-1.735,-1.7105,-1.6971,-1.6822,-1.6813,-1.6908,-1.7091,-1.6782,-1.6631,-1.6768,-1.6979,-1.722,-1.7579,-1.775,-1.7504,-1.7683,-1.7847,-1.7876,-1.7774,-1.7774,-1.7803,-1.7901,-1.775,-1.7676,-1.7769,-1.7896,-1.7774,-1.7696,-1.7581,-1.7531,-1.7488,-1.7499,-1.7596,-1.7639,-1.7711,-1.7716,-1.7623,-1.7529,-1.7239,-1.6973,-1.6598,-1.6233,-1.622,-1.6009,-1.5655,-1.5596,-1.5747,-1.5854,-1.5929,-1.6192,-1.6374,-1.6169,-1.5932,-1.5688,-1.5382,-1.4993,-1.4595,-1.4124,-1.3842,-1.3669,-1.3516,-1.3346,-1.3363,-1.3445,-1.3314,-1.3237,-1.3091,-1.2982,-2.8417,-2.8702,-2.8094,-2.7943,-2.8079,-2.7271,-2.6782,-2.6679,-2.6589,-2.6533,-2.6487,-2.6487,-2.6487,-2.6487,-2.6327,-2.627,-2.6084,-2.5863,-2.5723,-2.5336,-2.4766,-2.4345,-2.3787,-2.315,-2.259,-2.2252,-2.1987,-2.1873,-2.1807,-2.1807,-2.1807,-2.1807,-2.1807,-2.1731,-2.1617,-2.1436,-2.1282,-2.1128,-2.0974,-2.0594,-2.0188,-1.9764,-1.9307,-1.8769,-1.8258,-1.7798,-1.7433,-1.7287,-1.7051,-1.6657,-1.6759,-1.6768,-1.6491,-1.6983,-1.7143,-1.6981,-1.6928,-1.6867,-1.6828,-1.7028,-1.7245,-1.7314,-1.7289,-1.7486,-1.7647,-1.7862,-1.7906,-1.7862,-1.7872,-1.7735,-1.7598,-1.7657,-1.7725,-1.7681,-1.7647,-1.7605,-1.7552,-1.7615,-1.7615,-1.7658,-1.7745,-1.7653,-1.7623,-1.7495,-1.7358,-1.7038,-1.6686,-1.6372,-1.6142,-1.6109,-1.5907,-1.5561,-1.5582,-1.5724,-1.5799,-1.5858,-1.6227,-1.6477,-1.6276,-1.612,-1.5971,-1.5635,-1.5133,-1.4614,-1.4127,-1.3909,-1.3786,-1.3623,-1.3453,-1.3566,-1.3622,-1.3437,-1.3284,-1.3171,-1.3033,-2.8537,-2.8937,-2.8068,-2.7713,-2.7521,-2.6927,-2.6624,-2.6589,-2.6452,-2.6396,-2.6499,-2.6408,-2.643,-2.6465,-2.6305,-2.6166,-2.6062,-2.5758,-2.5571,-2.5253,-2.4503,-2.4152,-2.3556,-2.2852,-2.2327,-2.2073,-2.1921,-2.1807,-2.1807,-2.1807,-2.1807,-2.1807,-2.1807,-2.1769,-2.1693,-2.1502,-2.1331,-2.1089,-2.0809,-2.0372,-1.9945,-1.9579,-1.9193,-1.8649,-1.8188,-1.7707,-1.7212,-1.7114,-1.6669,-1.621,-1.6247,-1.6359,-1.6144,-1.6622,-1.6925,-1.6744,-1.6546,-1.6484,-1.6493,-1.6675,-1.6822,-1.6874,-1.6892,-1.7141,-1.7348,-1.7554,-1.7623,-1.7657,-1.7691,-1.7701,-1.7623,-1.7545,-1.7579,-1.7613,-1.7613,-1.7613,-1.7638,-1.7672,-1.775,-1.7808,-1.775,-1.7657,-1.7529,-1.7392,-1.7141,-1.6821,-1.6499,-1.6183,-1.5962,-1.5849,-1.5614,-1.5309,-1.5443,-1.5662,-1.5703,-1.577,-1.6066,-1.6319,-1.6343,-1.6183,-1.6163,-1.5739,-1.5141,-1.4563,-1.4048,-1.3979,-1.4022,-1.3772,-1.3619,-1.3779,-1.3898,-1.3796,-1.3597,-1.3348,-1.3156,-2.8602,-2.8837,-2.7953,-2.7182,-2.6518,-2.6499,-2.6499,-2.6452,-2.627,-2.6317,-2.6396,-2.6305,-2.6327,-2.6327,-2.6201,-2.6015,-2.584,-2.5548,-2.5288,-2.5206,-2.425,-2.3751,-2.3335,-2.2692,-2.2176,-2.2035,-2.1921,-2.1807,-2.1807,-2.1769,-2.1769,-2.1769,-2.1769,-2.1731,-2.1693,-2.1502,-2.1359,-2.132,-2.0886,-2.0411,-1.9962,-1.9599,-1.9271,-1.8616,-1.8027,-1.7463,-1.6818,-1.6329,-1.5911,-1.5559,-1.5544,-1.5889,-1.6134,-1.6149,-1.6325,-1.64,-1.63,-1.6201,-1.6335,-1.6509,-1.6678,-1.6801,-1.6877,-1.6988,-1.7185,-1.732,-1.7392,-1.752,-1.7598,-1.7529,-1.7417,-1.7417,-1.7417,-1.7417,-1.7382,-1.7407,-1.751,-1.7554,-1.7588,-1.7623,-1.7579,-1.7495,-1.7351,-1.7197,-1.7138,-1.6703,-1.6431,-1.6146,-1.5849,-1.5678,-1.548,-1.5183,-1.5398,-1.5539,-1.5454,-1.5549,-1.5835,-1.6026,-1.6123,-1.6271,-1.6216,-1.5721,-1.5086,-1.4625,-1.4233,-1.4292,-1.4252,-1.4061,-1.4013,-1.422,-1.4283,-1.418,-1.396,-1.3651,-1.3428,-2.8438,-2.8964,-2.8288,-2.7218,-2.6146,-2.6396,-2.6408,-2.627,-2.605,-2.6062,-2.6236,-2.6327,-2.6258,-2.6084,-2.598,-2.5828,-2.5606,-2.5194,-2.4909,-2.4527,-2.3838,-2.3372,-2.3001,-2.244,-2.2025,-2.1883,-2.1807,-2.1807,-2.1807,-2.1769,-2.1693,-2.1589,-2.154,-2.1454,-2.1502,-2.132,-2.1282,-2.1397,-2.1041,-2.045,-1.9844,-1.9411,-1.8975,-1.8278,-1.7635,-1.7369,-1.6896,-1.663,-1.6297,-1.5951,-1.6156,-1.6472,-1.682,-1.6437,-1.6333,-1.6425,-1.6396,-1.6196,-1.6206,-1.6473,-1.667,-1.6654,-1.6725,-1.6854,-1.6996,-1.7104,-1.7248,-1.7386,-1.7426,-1.7323,-1.7245,-1.7245,-1.7245,-1.7176,-1.7141,-1.7235,-1.7329,-1.7407,-1.7451,-1.7417,-1.7382,-1.7298,-1.7197,-1.7082,-1.7,-1.6846,-1.667,-1.6378,-1.5943,-1.5715,-1.5552,-1.5367,-1.5417,-1.5475,-1.5342,-1.5357,-1.5659,-1.5759,-1.5814,-1.6008,-1.6211,-1.5651,-1.5062,-1.4765,-1.4514,-1.4486,-1.4478,-1.4478,-1.4502,-1.4573,-1.455,-1.4383,-1.4304,-1.4077,-1.3825,-2.807,-2.8682,-2.7913,-2.6845,-2.5798,-2.5781,-2.5781,-2.5653,-2.5535,-2.5465,-2.5548,-2.5933,-2.6119,-2.5828,-2.5723,-2.5535,-2.5276,-2.4766,-2.4478,-2.4068,-2.3545,-2.3075,-2.2628,-2.2187,-2.1997,-2.1807,-2.1807,-2.1807,-2.1769,-2.1578,-2.1425,-2.1233,-2.1108,-2.0992,-2.1069,-2.1002,-2.1041,-2.132,-2.0974,-2.0459,-1.9814,-1.942,-1.8705,-1.7942,-1.7609,-1.7361,-1.6971,-1.6696,-1.6413,-1.6144,-1.6148,-1.6485,-1.6645,-1.6459,-1.6419,-1.6459,-1.6438,-1.6286,-1.6329,-1.651,-1.6745,-1.6706,-1.6626,-1.6795,-1.6882,-1.6962,-1.6947,-1.7054,-1.7146,-1.7056,-1.7012,-1.7003,-1.7003,-1.6978,-1.6934,-1.6959,-1.7132,-1.7304,-1.7382,-1.7461,-1.7382,-1.7314,-1.7135,-1.6771,-1.6714,-1.6666,-1.6536,-1.632,-1.5964,-1.5869,-1.5675,-1.5575,-1.5659,-1.5478,-1.5275,-1.5316,-1.5471,-1.5518,-1.5568,-1.5659,-1.5757,-1.5424,-1.5046,-1.48,-1.4621,-1.4581,-1.4589,-1.4569,-1.4605,-1.4589,-1.4597,-1.4565,-1.4474,-1.4403,-1.4147,-2.7585,-2.7977,-2.715,-2.6177,-2.5289,-2.5087,-2.5004,-2.4945,-2.4945,-2.4767,-2.4671,-2.5371,-2.5688,-2.563,-2.543,-2.517,-2.4814,-2.4286,-2.4007,-2.3629,-2.315,-2.2703,-2.2365,-2.2073,-2.1883,-2.1769,-2.1693,-2.1655,-2.1617,-2.131,-2.0992,-2.075,-2.0518,-2.0284,-2.0401,-2.0479,-2.0566,-2.0693,-2.0537,-2.0342,-1.9942,-1.9578,-1.8665,-1.8072,-1.7691,-1.7451,-1.6932,-1.6666,-1.6511,-1.6331,-1.6214,-1.6469,-1.6579,-1.6533,-1.6621,-1.6637,-1.6619,-1.6628,-1.6713,-1.684,-1.6894,-1.6877,-1.6746,-1.6733,-1.6864,-1.6851,-1.6813,-1.6811,-1.6929,-1.6968,-1.6924,-1.6869,-1.6913,-1.6833,-1.6789,-1.6895,-1.7105,-1.7278,-1.7392,-1.7505,-1.7426,-1.7357,-1.7118,-1.6722,-1.6607,-1.6525,-1.6345,-1.6091,-1.5928,-1.6044,-1.6029,-1.5957,-1.597,-1.5747,-1.5415,-1.5349,-1.5485,-1.5381,-1.5409,-1.5376,-1.5355,-1.5265,-1.508,-1.4868,-1.4716,-1.4593,-1.4569,-1.4569,-1.4569,-1.4533,-1.4453,-1.4382,-1.4402,-1.4319,-1.4386,-2.6817,-2.6244,-2.6217,-2.5647,-2.4789,-2.4886,-2.4826,-2.4623,-2.4599,-2.4455,-2.4358,-2.4527,-2.4826,-2.5004,-2.4921,-2.4731,-2.4539,-2.3934,-2.3457,-2.3124,-2.2703,-2.2289,-2.2025,-2.1921,-2.1807,-2.1693,-2.154,-2.1359,-2.1233,-2.0886,-2.0489,-2.0089,-2.005,-1.9854,-1.9717,-1.9805,-1.9805,-1.9932,-1.9775,-1.9499,-1.9143,-1.8895,-1.8904,-1.8385,-1.7902,-1.7496,-1.7163,-1.7203,-1.696,-1.6701,-1.6555,-1.6635,-1.661,-1.6635,-1.6748,-1.6903,-1.6854,-1.6972,-1.7073,-1.7186,-1.726,-1.7133,-1.7035,-1.7029,-1.705,-1.6971,-1.6946,-1.6931,-1.7026,-1.7187,-1.7198,-1.7126,-1.7081,-1.683,-1.6688,-1.7152,-1.751,-1.7501,-1.7537,-1.7537,-1.7501,-1.7424,-1.735,-1.7116,-1.7081,-1.6962,-1.6713,-1.6482,-1.6284,-1.6349,-1.6317,-1.6285,-1.6253,-1.6047,-1.5752,-1.5513,-1.5487,-1.5349,-1.529,-1.5375,-1.5397,-1.5275,-1.5105,-1.4895,-1.4711,-1.4585,-1.4569,-1.4461,-1.4461,-1.4389,-1.4238,-1.4158,-1.4194,-1.4238,-1.4238]},{"header":{"parameterUnit":"m.s-1","parameterCategory":1,"la1":31.0,"la2":29.5877,"lo1":-88.7671,"lo2":-86.6584,"dy":0.0162,"dx":0.0185,"nx":115,"ny":88,"refTime":"2023-05-05T12:00:00:Z","depth":0,"parameterNumber":3,"parameterNumberName":"V-component_of_WINDS"},"data":[0.0,0.0,0.0,0.0,0.0,0.0,0.0,0.0,0.0,0.0,0.0,0.0,0.0,0.0,0.0,0.0,0.0,0.0,0.0,0.0,0.0,0.0,0.0,0.0,0.0,0.0,0.0,0.0,0.0,0.0,0.0,0.0,0.0,0.0,0.0,0.0,0.0,0.0,0.0,0.0,0.0,0.0,0.0,0.0,0.0,0.0,0.0,0.0,0.0,0.0,0.0,0.0,0.0,0.0,0.0,0.0,0.0,0.0,0.0,0.0,0.0,0.0,0.0,0.0,0.0,0.0,0.0,0.0,0.0,0.0,0.0,0.0,0.0,0.0,0.0,0.0,0.0,0.0,0.0,0.0,0.0,0.0,0.0,0.0,0.0,0.0,0.0,0.0,0.0,0.0,0.0,0.0,0.0,0.0,0.0,0.0,0.0,0.0,0.0,0.0,0.0,0.0,0.0,0.0,0.0,0.0,0.0,0.0,0.0,0.0,0.0,0.0,0.0,0.0,0.0,0.0,0.0,0.0,0.0,0.0,0.0,0.0,0.0,0.0,0.0,0.0,0.0,0.0,0.0,0.0,0.0,0.0,0.0,0.0,0.0,0.0,0.0,0.0,0.0,0.0,0.0,0.0,0.0,0.0,0.0,0.0,0.0,0.0,0.0,0.0,0.0,0.0,0.0,0.0,0.0,0.0,0.0,0.0,0.0,0.0,0.0,0.0,0.0,0.0,0.0,0.0,0.0,0.0,0.0,0.0,0.0,0.0,0.0,0.0,0.0,0.0,0.0,0.0,0.0,0.0,0.0,0.0,0.0,0.0,0.0,0.0,0.0,0.0,0.0,0.0,0.0,0.0,0.0,0.0,0.0,0.0,0.0,0.0,0.0,0.0,0.0,0.0,0.0,0.0,0.0,0.0,0.0,0.0,0.0,0.0,0.0,0.0,0.0,0.0,0.0,0.0,0.0,0.0,0.0,0.0,0.0,0.0,0.0,0.0,0.0,0.0,0.0,0.0,0.0,0.0,0.0,0.0,0.0,0.0,0.0,0.0,0.0,0.0,0.0,0.0,0.0,0.0,0.0,0.0,0.0,0.0,0.0,0.0,0.0,0.0,0.0,0.0,0.0,0.0,0.0,0.0,0.0,0.0,0.0,0.0,0.0,0.0,0.0,0.0,0.0,0.0,0.0,0.0,0.0,0.0,0.0,0.0,0.0,0.0,0.0,0.0,0.0,0.0,0.0,0.0,0.0,0.0,0.0,0.0,0.0,0.0,0.0,0.0,0.0,0.0,0.0,0.0,0.0,0.0,0.0,0.0,0.0,0.0,0.0,0.0,0.0,0.0,0.0,0.0,0.0,0.0,0.0,0.0,0.0,0.0,0.0,0.0,0.0,0.0,0.0,0.0,0.0,0.0,0.0,0.0,0.0,0.0,0.0,0.0,0.0,0.0,0.0,0.0,0.0,0.0,0.0,0.0,0.0,0.0,0.0,0.0,0.0,0.0,0.0,0.0,0.0,0.0,0.0,0.0,0.0,0.0,0.0,0.0,0.0,0.0,0.0,0.0,0.0,0.0,0.0,0.0,0.0,0.0,0.0,0.0,0.0,0.0,0.0,0.0,0.0,0.0,0.0,0.0,0.0,0.0,0.0,0.0,0.0,0.0,0.0,0.0,0.0,0.0,0.0,0.0,0.0,0.0,0.0,0.0,0.0,0.0,0.0,0.0,0.0,0.0,0.0,0.0,0.0,0.0,0.0,0.0,0.0,0.0,0.0,0.0,0.0,0.0,0.0,0.0,0.0,0.0,0.0,0.0,0.0,0.0,0.0,0.0,0.0,0.0,0.0,0.0,0.0,0.0,0.0,0.0,0.0,0.0,0.0,0.0,0.0,0.0,0.0,0.0,0.0,0.0,0.0,0.0,0.0,0.0,0.0,0.0,0.0,0.0,0.0,0.0,0.0,0.0,0.0,0.0,0.0,0.0,0.0,0.0,0.0,0.0,0.0,0.0,0.0,0.0,0.0,0.0,0.0,0.0,0.0,0.0,0.0,0.0,0.0,0.0,0.0,0.0,0.0,0.0,0.0,0.0,0.0,0.0,0.0,0.0,0.0,0.0,0.0,0.0,0.0,0.0,0.0,0.0,0.0,0.0,0.0,0.0,0.0,0.0,0.0,0.0,0.0,0.0,0.0,0.0,0.0,0.0,0.0,0.0,0.0,0.0,0.0,0.0,0.0,0.0,0.0,0.0,0.0,0.0,0.0,0.0,0.0,0.0,0.0,0.0,0.0,0.0,0.0,0.0,0.0,0.0,0.0,0.0,0.0,0.0,0.0,0.0,0.0,0.0,0.0,0.0,0.0,0.0,0.0,0.0,0.0,0.0,0.0,0.0,0.0,0.0,0.0,0.0,0.0,0.0,0.0,0.0,0.0,0.0,0.0,0.0,0.0,0.0,0.0,0.0,0.0,0.0,0.0,0.0,0.0,0.0,0.0,0.0,0.0,0.0,0.0,0.0,0.0,0.0,0.0,0.0,0.0,0.0,0.0,0.0,0.0,0.0,0.0,0.0,0.0,0.0,0.0,0.0,0.0,0.0,0.0,0.0,0.0,0.0,0.0,0.0,0.0,0.0,0.0,0.0,0.0,0.0,0.0,0.0,0.0,0.0,0.0,0.0,0.0,0.0,0.0,0.0,0.0,0.0,0.0,0.0,0.0,0.0,0.0,0.0,0.0,0.0,0.0,0.0,0.0,0.0,0.0,0.0,0.0,0.0,0.0,0.0,0.0,0.0,0.0,0.0,0.0,0.0,0.0,0.0,0.0,0.0,0.0,0.0,0.0,0.0,0.0,0.0,0.0,0.0,0.0,0.0,0.0,0.0,0.0,0.0,0.0,0.0,0.0,0.0,0.0,0.0,0.0,0.0,0.0,0.0,0.0,0.0,0.0,0.0,0.0,0.0,0.0,0.0,0.0,0.0,0.0,0.0,0.0,0.0,0.0,0.0,0.0,0.0,0.0,0.0,0.0,0.0,0.0,0.0,0.0,0.0,0.0,0.0,0.0,0.0,0.0,0.0,0.0,0.0,0.0,0.0,0.0,0.0,0.0,0.0,0.0,0.0,0.0,0.0,0.0,0.0,0.0,0.0,0.0,0.0,0.0,0.0,0.0,0.0,0.0,0.0,0.0,0.0,0.0,0.0,0.0,0.0,0.0,0.0,0.0,0.0,0.0,0.0,0.0,0.0,0.0,0.0,0.0,0.0,0.0,0.0,0.0,0.0,0.0,0.0,0.0,0.0,0.0,0.0,0.0,0.0,0.0,0.0,0.0,0.0,0.0,0.0,0.0,0.0,0.0,0.0,0.0,0.0,0.0,0.0,0.0,0.0,0.0,0.0,0.0,0.0,0.0,0.0,0.0,0.0,0.0,0.0,0.0,0.0,0.0,0.0,0.0,0.0,0.0,0.0,0.0,0.0,0.0,0.0,0.0,0.0,0.0,0.0,0.0,0.0,0.0,0.0,0.0,0.0,0.0,0.0,0.0,0.0,0.0,0.0,0.0,0.0,0.0,0.0,0.0,0.0,0.0,0.0,0.0,0.0,0.0,0.0,0.0,0.0,0.0,0.0,0.0,0.0,0.0,0.0,0.0,0.0,0.0,0.0,0.0,0.0,0.0,0.0,0.0,0.0,0.0,0.0,0.0,0.0,0.0,0.0,0.0,0.0,0.0,0.0,0.0,0.0,0.0,0.0,0.0,0.0,0.0,0.0,0.0,0.0,0.0,0.0,0.0,0.0,0.0,0.0,0.0,0.0,0.0,0.0,0.0,0.0,0.0,0.0,0.0,0.0,0.0,0.0,0.0,0.0,0.0,0.0,0.0,0.0,0.0,0.0,0.0,0.0,0.0,0.0,0.0,0.0,0.0,0.0,0.0,0.0,0.0,0.0,0.0,0.0,0.0,0.0,0.0,0.0,0.0,0.0,0.0,0.0,0.0,0.0,0.0,0.0,0.0,0.0,0.0,0.0,0.0,0.0,0.0,0.0,0.0,0.0,0.0,0.0,0.0,0.0,0.0,0.0,0.0,0.0,0.0,0.0,0.0,0.0,0.0,0.0,0.0,0.0,0.0,0.0,0.0,0.0,0.0,0.0,0.0,0.0,0.0,0.0,0.0,0.0,0.0,0.0,0.0,0.0,0.0,0.0,0.0,0.0,0.0,0.0,0.0,0.0,0.0,0.0,0.0,0.0,0.0,0.0,0.0,0.0,0.0,0.0,0.0,0.0,0.0,0.0,0.5221,0.0,0.0,0.0,0.0,0.0,0.0,0.0,0.0,0.0,0.0,0.0,0.0,0.0,0.0,0.0,0.0,0.0,0.0,0.0,0.0,0.0,0.0,0.0,0.0,0.0,0.0,0.0,0.0,0.0,0.0,0.0,0.0,0.0,0.0,0.0,0.0,0.0,0.0,0.0,0.0,0.0,0.0,0.0,0.0,0.0,0.0,0.0,0.0,0.0,0.0,0.0,0.0,0.0,0.0,0.0,0.0,0.0,0.0,0.0,0.0,0.0,0.0,0.0,0.0,0.0,0.0,0.0,0.0,0.0,0.0,0.0,0.0,0.0,0.0,0.0,0.0,0.0,0.0,0.0,0.0,0.0,0.0,0.0,0.0,0.0,0.0,0.0,0.0,0.0,0.0,0.0,0.0,0.0,0.0,0.0,0.0,0.0,0.0,0.0,0.0,0.0,0.0,0.0,0.0,0.0,0.0,0.0,0.0,0.0,0.0,0.4752,0.4969,0.5081,0.523,0.5343,0.0,0.0,0.0,0.0,0.0,0.0,0.0,0.0,0.0,0.0,0.0,0.0,0.0,0.0,0.0,0.0,0.0,0.0,0.0,0.0,0.0,0.0,0.0,0.0,0.0,0.0,0.0,0.0,0.0,0.0,0.0,0.0,0.0,0.0,0.0,0.0,0.0,0.0,0.0,0.0,0.0,0.0,0.0,0.0,0.0,0.0,0.0,0.0,0.0,0.0,0.0,0.0,0.0,0.0,0.0,0.0,0.0,0.0,0.0,0.0,0.0,0.0,0.0,0.0,0.0,0.0,0.0,0.0,0.0,0.0,0.0,0.0,0.0,0.0,0.0,0.0,0.0,0.0,0.0,0.0,0.0,0.0,0.0,0.0,0.0,0.0,0.0,0.0,0.0,0.0,0.0,0.0,0.0,0.0,0.0,0.0,0.0,0.0,0.0,0.0,0.0,0.0,0.0,0.0,0.0,0.0,0.0,0.0,0.0,0.0,0.0,0.0,0.5271,0.5404,0.5515,0.0,0.0,0.0,0.0,0.0,0.0,0.0,0.0,0.0,0.0,0.0,0.0,0.0,0.0,0.0,0.0,0.0,0.0,0.0,0.0,0.0,0.0,0.0,0.0,0.0,0.0,0.0,0.0,0.0,0.0,0.0,0.0,0.0,0.0,0.0,0.0,0.0,0.0,0.0,0.0,0.0,0.0,0.0,0.0,0.0,0.0,0.0,0.0,0.0,0.0,0.0,0.0,0.0,0.0,0.0,0.0,0.0,0.0,0.0,0.0,0.0,0.0,0.0,0.0,0.0,0.0,0.0,0.0,0.0,0.0,0.0,0.0,0.0,0.0,0.0,0.0,0.0,0.0,0.0,0.0,0.0,0.0,0.0,0.0,0.0,0.0,0.0,0.0,0.0,0.0,0.0,0.0,0.0,0.0,0.0,0.0,0.0,0.0,0.0,0.0,0.0,0.0,0.0,0.0,0.0,0.0,0.0,0.0,0.0,0.0,0.5071,0.5277,0.5412,0.0,0.5834,0.0,0.0,0.0,0.0,0.0,0.0,0.0,0.0,0.0,0.0,0.0,0.0,0.0,0.0,0.0,0.0,0.0,0.0,0.0,0.0,0.0,0.0,0.0,0.0,0.0,0.0,0.0,0.0,0.0,0.0,0.0,0.0,0.0,0.0,0.0,0.0,0.0,0.0,0.0,0.0,0.0,0.0,0.0,0.0,0.0,0.0,0.0,0.0,0.0,0.0,0.0,0.0,0.0,0.0,0.0,0.0,0.0,0.0,0.0,0.0,0.0,0.0,0.0,0.0,0.0,0.0,0.0,0.0,0.0,0.0,0.0,0.0,0.0,0.0,0.0,0.0,0.0,0.0,0.0,0.0,0.0,0.0,0.0,0.0,0.0,0.0,0.0,0.0,0.0,0.0,0.0,0.0,0.0,0.0,0.0,0.0,0.0,0.0,0.0,0.0,0.0,0.0,0.0,0.0,0.0,0.0,0.0,0.0,0.0,0.0,0.5284,0.5521,0.5702,0.5889,0.0,0.0,0.0,0.0,0.0,0.0,0.0,0.0,0.0,0.0,0.0,0.0,0.0,0.0,0.0,0.0,0.0,0.0,0.0,0.0,0.0,0.0,0.0,0.0,0.0,0.0,0.0,0.0,0.0,0.0,0.0,0.0,0.0,0.0,0.0,0.0,0.0,0.0,0.0,0.0,0.0,0.0,0.0,0.0,0.0,0.0,0.0,0.0,0.0,0.0,0.0,0.0,0.0,0.0,0.0,0.0,0.0,0.0,0.0,0.0,0.0,0.0,0.0,0.0,0.0,0.0,0.0,0.0,0.0,0.0,0.0,0.0,0.0,0.0,0.0,0.0,0.0,0.0,0.0,0.0,0.0,0.0,0.0,0.0,0.0,0.0,0.0,0.0,0.0,0.0,0.0,0.0,0.0,0.0,0.0,0.0,0.0,0.0,0.0,0.0,0.0,0.0,0.0,0.0,0.0,0.0,0.0,0.0,0.0,0.0,0.5318,0.5489,0.5748,0.5936,0.6145,0.6322,0.0,0.0,0.0,0.0,0.0,0.0,0.0,0.0,0.0,0.0,0.0,0.0,0.0,0.0,0.0,0.0,0.0,0.0,0.0,0.0,0.0,0.0,0.0,0.0,0.0,0.0,0.0,0.0,0.0,0.0,0.0,0.0,0.0,0.0,0.0,0.0,0.0,0.0,0.0,0.0,0.0,0.0,0.0,0.0,0.0,0.0,0.0,0.0,0.0,0.0,0.0,0.0,0.0,0.0,0.0,0.0,0.0,0.0,0.0,0.0,0.0,0.0,0.0,0.0,0.0,0.0,0.0,0.0,0.0,0.0,0.0,0.0,0.0,0.0,0.0,0.0,0.0,0.0,0.0,0.0,0.0,0.0,0.0,0.0,0.0,0.0,0.0,0.0,0.0,0.0,0.0,0.0,0.0,0.0,0.0,0.0,0.0,0.0,0.0,0.0,0.0,0.0,0.0,0.0,0.0,0.0,0.0,0.0,0.5383,0.5444,0.5624,0.5888,0.6068,0.626,0.0,0.0,0.0,0.0,0.0,0.0,0.0,0.0,0.0,0.0,0.0,0.0,0.0,0.0,0.0,0.0,0.0,0.0,0.0,0.0,0.0,0.0,0.0,0.0,0.0,0.0,0.0,0.0,0.0,0.0,0.0,0.0,0.0,0.0,0.0,0.0,0.0,0.0,0.0,0.0,0.0,0.0,0.0,0.0,0.0,0.0,0.0,0.0,0.0,0.0,0.0,0.0,0.0,0.0,0.0,0.0,0.0,0.0,0.0,0.0,0.0,0.0,0.0,0.0,0.0,0.0,0.0,0.0,0.0,0.0,0.0,0.0,0.0,0.0,0.0,0.0,0.0,0.0,0.0,0.0,0.0,0.0,0.0,0.0,0.0,0.0,0.0,0.0,0.0,0.0,0.0,0.0,0.0,0.0,0.0,0.0,0.0,0.0,0.0,0.0,0.0,0.0,0.0,0.0,0.0,0.0,0.0,0.0,0.0,0.5584,0.5733,0.5912,0.6098,0.6276,0.6475,0.0,0.0,0.0,0.0,0.0,0.0,0.0,0.0,0.0,0.0,0.0,0.0,0.0,0.0,0.0,0.0,0.0,0.0,0.0,0.0,0.0,0.0,0.0,0.0,0.0,0.0,0.0,0.0,0.0,0.0,0.0,0.0,0.0,0.0,0.0,0.0,0.0,0.0,0.0,0.0,0.0,0.0,0.0,0.0,0.0,0.0,0.0,0.0,0.0,0.0,0.0,0.0,0.0,0.0,0.0,0.0,0.0,0.0,0.0,0.0,0.0,0.0,0.0,0.0,0.0,0.0,0.0,0.0,0.0,0.0,0.0,0.0,0.0,0.0,0.0,0.0,0.0,0.0,0.0,0.0,0.0,0.0,0.0,0.0,0.0,0.0,0.0,0.0,0.0,0.0,0.0,0.0,0.0,0.0,0.0,0.0,0.0,0.0,0.0,0.0,0.0,0.0,0.0,0.0,0.0,0.0,0.0,0.0,0.0,0.5888,0.0,0.6075,0.6315,0.6437,0.6636,0.0,0.0,0.0,0.0,0.0,0.0,0.0,0.0,0.0,0.0,0.0,0.0,0.0,0.0,0.0,0.0,0.0,0.0,0.0,0.0,0.0,0.0,0.0,0.0,0.0,0.0,0.0,0.0,0.0,0.0,0.0,0.0,0.0,0.0,0.0,0.0,0.0,0.0,0.0,0.0,0.0,0.0,0.0,0.0,0.0,0.0,0.0,0.0,0.0,0.0,0.0,0.0,0.0,0.0,0.0,0.0,0.0,0.0,0.0,0.0,0.0,0.0,0.0,0.0,0.0,0.0,0.0,0.0,0.0,0.0,0.0,0.0,0.0,0.0,0.0,0.0,0.0,0.0,0.0,0.0,0.0,0.0,0.0,0.0,0.0,0.0,0.0,0.0,0.0,0.0,0.0,0.0,0.0,0.0,0.0,0.0,0.0,0.0,0.0,0.0,0.0,0.0,0.0,0.0,0.0,0.0,0.0,0.0,0.6106,0.6276,0.6044,0.6168,0.6597,0.6568,0.6712,0.0,0.0,0.0,0.0,0.0,0.0,0.0,0.0,0.0,0.0,0.0,0.0,0.0,0.0,0.0,0.0,0.0,0.0,0.0,0.0,0.0,0.0,0.0,0.0,0.0,0.0,0.0,0.0,0.0,0.0,0.0,0.0,0.0,0.0,0.0,0.0,0.0,0.0,0.0,0.0,0.0,0.0,0.0,0.0,0.0,0.0,0.0,0.0,0.0,0.0,0.0,0.0,0.0,0.0,0.0,0.0,0.0,0.0,0.0,0.0,0.0,0.0,0.0,0.0,0.0,0.0,0.0,0.0,0.0,0.0,0.0,0.0,0.0,0.0,0.0,0.0,0.0,0.0,0.0,0.0,0.0,0.0,0.0,0.0,0.0,0.0,0.0,0.0,0.0,0.0,0.0,0.0,0.0,0.0,0.0,0.0,0.0,0.0,0.0,0.0,0.0,0.0,0.0,0.0,0.0,0.0,0.0,0.0,0.0,0.6779,0.6528,0.6768,0.75,0.7139,0.719,0.0,0.0,0.0,0.0,0.0,0.0,0.0,0.0,0.0,0.0,0.0,0.0,0.0,0.0,0.0,0.0,0.0,0.0,0.0,0.0,0.0,0.0,0.0,0.0,0.0,0.0,0.0,0.0,0.0,0.0,0.0,0.0,0.0,0.0,0.0,0.0,0.0,0.0,0.0,0.0,0.0,0.0,0.0,0.0,0.0,0.0,0.0,0.0,0.0,0.0,0.0,0.0,0.0,0.0,0.0,0.0,0.0,0.0,0.0,0.0,0.0,0.0,0.0,0.0,0.0,0.0,0.0,0.0,0.0,0.0,0.0,0.0,0.0,0.0,0.0,0.0,0.0,0.0,0.0,0.0,0.0,0.0,0.0,0.0,0.0,0.0,0.0,0.0,0.0,0.0,0.0,0.0,0.0,0.0,0.0,0.0,0.0,0.0,0.0,0.0,0.0,0.0,0.0,0.0,0.0,0.0,0.0,0.0,0.0,0.766,0.719,0.729,0.8061,0.7578,0.763,0.822,0.0,0.0,0.0,0.0,0.0,0.0,0.0,0.0,0.0,0.0,0.0,0.0,0.0,0.0,0.0,0.0,0.0,0.0,0.0,0.0,0.0,0.0,0.0,0.0,0.0,0.0,0.0,0.0,0.0,0.0,0.0,0.0,0.0,0.0,0.0,0.0,0.0,0.0,0.0,0.0,0.0,0.0,0.0,0.0,0.0,0.0,0.0,0.0,0.0,0.0,0.0,0.0,0.0,0.0,0.0,0.0,0.0,0.0,0.0,0.0,0.0,0.0,0.0,0.0,0.0,0.0,0.0,0.0,0.0,0.0,0.0,0.0,0.0,0.0,0.0,0.0,0.0,0.0,0.0,0.0,0.0,0.0,0.0,0.0,0.0,0.0,0.0,0.0,0.0,0.0,0.0,0.0,0.0,0.0,0.0,0.0,0.0,0.0,0.0,0.0,0.0,0.0,0.0,0.0,0.0,0.0,0.0,0.0,0.8839,0.8034,0.7839,0.8308,0.7954,0.7994,0.0,0.0,0.0,0.0,0.0,0.0,0.0,0.0,0.0,0.0,0.0,0.0,0.0,0.0,0.0,0.0,0.0,0.0,0.0,0.0,0.0,0.0,0.0,0.0,0.0,0.0,0.0,0.0,0.0,0.0,0.0,0.0,0.0,0.0,0.0,0.0,0.0,0.0,0.0,0.0,0.0,0.0,0.0,0.0,0.0,0.0,0.0,0.0,0.0,0.0,0.0,0.0,0.0,0.0,0.0,0.0,0.0,0.0,0.0,0.0,0.0,0.0,0.0,0.0,0.0,0.0,0.0,0.0,0.0,0.0,0.0,0.0,0.0,0.0,0.0,0.0,0.0,0.0,0.0,0.0,0.0,0.0,0.0,0.0,0.0,0.0,0.0,0.0,0.0,0.0,0.0,0.0,0.0,0.0,0.0,0.0,0.0,0.0,0.0,0.0,0.0,0.0,0.0,0.0,0.0,0.0,0.0,0.0,0.0,0.9489,0.9067,0.9112,0.9629,0.8779,0.8586,0.0,0.0,0.0,0.0,0.0,0.0,0.0,0.0,0.0,0.0,0.0,0.0,0.0,0.0,0.0,0.0,0.0,0.0,0.0,0.0,0.0,0.0,0.0,0.0,0.0,0.0,0.0,0.0,0.0,0.0,0.0,0.0,0.0,0.0,0.0,0.0,0.0,0.0,0.0,0.0,0.0,0.0,0.0,0.0,0.0,0.0,0.0,0.0,0.0,0.0,0.0,0.0,0.0,0.0,0.0,0.0,0.0,0.0,0.0,0.0,0.0,0.0,0.0,0.0,0.0,0.0,0.0,0.0,0.0,0.0,0.0,0.0,0.0,0.0,0.0,0.0,0.0,0.0,0.0,0.0,0.0,0.0,0.0,0.0,0.0,0.0,0.0,0.0,0.0,0.0,0.0,0.0,0.0,0.0,0.0,0.0,0.0,0.0,0.0,0.0,0.0,0.0,0.0,0.0,0.0,0.0,0.0,0.0,0.9364,1.0157,0.9665,0.979,1.0683,0.9697,0.9317,0.0,0.0,0.0,0.0,0.0,0.0,0.0,0.0,0.0,0.0,0.0,0.0,0.0,0.0,0.0,0.0,0.0,0.0,0.0,0.0,0.0,0.0,0.0,0.0,0.0,0.0,0.0,0.0,0.0,0.0,0.0,0.0,0.0,0.0,0.0,0.0,0.0,0.0,0.0,0.0,0.0,0.0,0.0,0.0,0.0,0.0,0.0,0.0,0.0,0.0,0.0,0.0,0.0,0.0,0.0,0.0,0.0,0.0,0.0,0.0,0.0,0.0,0.0,0.0,0.0,0.0,0.0,0.0,0.0,0.0,0.0,0.0,0.0,0.0,0.0,0.0,0.0,0.0,0.0,0.0,0.0,0.0,0.0,0.0,0.0,0.0,0.0,0.0,0.0,0.0,0.0,0.0,0.0,0.0,0.0,0.0,0.0,0.0,0.0,0.0,0.0,0.0,0.0,0.0,0.0,0.0,0.0,0.0,0.9501,1.0632,0.9917,1.0127,1.132,1.0534,1.004,0.0,0.0,0.0,0.0,0.0,0.0,0.0,0.0,0.0,0.0,0.0,0.0,0.0,0.0,0.0,0.0,0.0,0.0,0.0,0.0,0.0,0.0,0.0,0.0,0.0,0.0,0.0,0.0,0.0,0.0,0.0,0.0,0.0,0.0,0.0,0.0,0.0,0.0,0.0,0.0,0.0,0.0,0.0,0.0,0.0,0.0,0.0,0.0,0.0,0.0,0.0,0.0,0.0,0.0,0.0,0.0,0.0,0.0,0.0,0.0,0.0,0.0,0.0,0.0,0.0,0.0,0.0,0.0,0.0,0.0,0.0,0.0,0.0,0.0,0.0,0.0,0.0,0.0,0.0,0.0,0.0,0.0,0.0,0.0,0.0,0.0,0.0,0.0,0.0,0.0,0.0,0.0,0.0,0.0,0.0,0.0,0.0,0.0,0.0,0.0,0.0,0.0,0.0,0.0,0.0,0.0,0.0,0.0,0.964,1.0498,1.0015,1.0289,1.1439,1.0781,1.0304,0.0,0.0,0.0,0.0,0.0,0.0,0.0,0.0,0.0,0.0,0.0,0.0,0.0,0.0,0.0,0.0,0.0,0.0,0.0,0.0,0.0,0.0,0.0,0.0,0.0,0.0,0.0,0.0,0.0,0.0,0.0,0.0,0.0,0.0,0.0,0.0,0.0,0.0,0.0,0.0,0.0,0.0,0.0,0.0,0.0,0.0,0.0,0.0,0.8512,0.0,0.0,0.0,0.0,0.0,0.0,0.0,0.0,0.0,0.0,0.0,0.0,0.0,0.0,0.0,0.0,0.0,0.0,0.0,0.0,0.0,0.0,0.0,0.0,0.0,0.0,0.0,0.0,0.0,0.0,0.0,0.0,0.0,0.0,0.0,0.0,0.0,0.0,0.0,0.0,0.0,0.0,0.0,0.0,0.0,0.0,0.0,0.0,0.0,0.0,0.0,0.0,0.0,0.0,0.0,0.0,0.0,0.0,0.0,0.9908,1.0588,1.023,1.0538,1.151,1.1062,1.0636,0.0,0.0,0.0,0.0,0.0,0.0,0.0,0.0,0.0,0.0,0.0,0.0,0.0,0.0,0.0,0.0,0.0,0.0,0.0,0.0,0.0,0.0,0.0,0.0,0.0,0.0,0.0,0.0,0.0,0.0,0.0,0.0,0.0,0.0,0.0,0.0,0.0,0.0,0.0,0.0,0.0,0.0,0.0,0.0,0.0,0.0,0.0,0.0,0.0,0.0,0.0,0.0,0.0,0.0,0.0,0.0,0.0,0.0,0.0,0.0,0.0,0.0,0.0,0.0,0.0,0.0,0.0,0.0,0.0,0.0,0.0,0.0,0.0,0.0,0.0,0.0,0.0,0.0,0.0,0.0,0.0,0.0,0.0,0.0,0.0,0.0,0.0,0.0,0.0,0.0,0.0,0.0,0.0,0.0,0.0,0.0,0.0,0.0,0.0,0.0,0.0,0.0,0.0,0.0,0.0,0.0,0.0,0.9941,1.0121,1.0648,1.0469,1.0754,1.1608,1.1318,1.1018,1.08,0.0,0.0,0.0,0.0,0.0,0.0,0.0,0.0,0.0,0.0,0.0,0.0,0.0,0.0,0.0,0.0,0.0,0.0,0.0,0.0,0.0,0.0,0.0,0.0,0.0,0.0,0.0,0.0,0.0,0.0,0.0,0.0,0.0,0.0,0.0,0.0,0.0,0.0,0.7945,0.8105,0.0,0.0,0.0,0.0,0.0,0.0,0.0,0.0,0.8892,0.0,0.0,0.0,0.0,0.0,0.0,0.0,0.0,0.0,0.0,0.0,0.0,0.0,0.0,0.0,0.0,0.0,0.0,0.0,0.0,0.0,0.0,0.0,0.0,0.0,0.0,0.0,0.0,0.0,0.0,0.0,0.0,0.0,0.0,0.0,0.0,0.0,0.0,0.0,0.0,0.0,0.0,0.0,0.0,0.0,0.0,0.0,0.0,0.0,0.0,0.0,0.0,0.0,0.0,0.0,0.0,1.0108,1.0059,1.0097,1.0224,1.0449,1.0785,1.1267,1.1326,1.1442,1.1561,0.0,0.0,0.0,0.0,0.0,0.0,0.0,0.0,0.0,0.0,0.0,0.0,0.0,0.0,0.0,0.0,0.0,0.0,0.0,0.0,0.0,0.0,0.0,0.0,0.0,0.0,0.0,0.0,0.0,0.0,0.0,0.0,0.0,0.0,0.0,0.0,0.0,0.0,0.0,0.8262,0.8315,0.0,0.0,0.0,0.0,0.0,0.0,0.0,0.0,0.8634,0.0,0.0,0.0,0.0,0.0,0.0,0.0,0.0,0.0,0.0,0.0,0.0,0.0,0.0,0.0,0.0,0.0,0.0,0.0,0.0,0.0,0.0,0.0,0.0,0.0,0.0,0.0,0.0,0.0,0.0,0.0,0.0,0.0,0.0,0.0,0.0,0.0,0.0,0.0,0.0,0.0,0.0,0.0,0.0,0.0,0.0,0.0,0.0,0.0,0.0,0.0,0.0,0.0,0.0,0.0,1.0244,1.038,1.039,1.0273,1.0659,1.0887,1.0938,1.1279,1.1561,0.0,0.0,0.0,0.0,0.0,0.0,0.0,0.0,0.0,0.0,0.0,0.0,0.0,0.0,0.0,0.0,0.0,0.0,0.0,0.0,0.0,0.0,0.0,0.0,0.0,0.0,0.0,0.0,0.0,0.0,0.0,0.0,0.0,0.0,0.0,0.0,0.0,0.0,0.0,0.0,0.8286,0.8416,0.826,0.0,0.0,0.0,0.0,0.0,0.0,0.8668,0.8959,0.0,0.0,0.0,0.0,0.0,0.0,0.0,0.0,0.0,0.0,0.0,0.0,0.0,0.0,0.0,0.0,0.0,0.0,0.0,0.0,0.0,0.0,0.0,0.0,0.0,0.0,0.0,0.0,0.0,0.0,0.0,0.0,0.0,0.0,0.0,0.0,0.0,0.0,0.0,0.0,0.0,0.0,0.0,0.0,0.0,0.0,0.0,0.0,0.0,0.0,0.0,0.0,0.0,0.0,0.0,1.0438,1.0678,1.0736,1.0515,1.0945,1.1041,1.0791,1.1366,1.1785,0.0,0.0,0.0,0.0,0.0,0.0,0.0,0.0,0.0,0.0,0.0,0.0,0.0,0.0,0.0,0.0,0.0,0.0,0.0,0.0,0.0,0.0,0.0,0.0,0.0,0.0,0.0,0.0,0.0,0.0,0.0,0.0,0.0,0.0,0.0,0.0,0.0,0.0,0.0,0.0,0.0,0.8656,0.8361,0.8709,0.0,0.0,0.0,0.0,0.8773,0.9126,0.0,0.0,0.0,0.0,0.0,0.0,0.0,0.0,0.0,0.0,0.0,0.0,0.0,0.0,0.0,0.0,0.0,0.0,0.0,0.0,0.0,0.0,0.0,0.0,0.0,0.0,0.0,0.0,0.0,0.0,0.0,0.0,0.0,0.0,0.0,0.0,0.0,0.0,0.0,0.0,0.0,0.0,0.0,0.0,0.0,0.0,0.0,0.0,0.0,0.0,0.0,0.0,0.0,0.0,0.0,0.0,1.0765,1.0831,1.0859,1.0859,1.125,1.13,1.0999,1.1885,1.2354,0.0,0.0,0.0,0.0,0.0,0.0,0.0,0.0,0.0,0.0,0.0,0.0,0.0,0.0,0.0,0.0,0.0,0.0,0.0,0.0,0.0,0.0,0.0,0.0,0.0,0.0,0.0,0.0,0.0,0.0,0.0,0.0,0.0,0.0,0.0,0.0,0.0,0.0,0.0,0.0,0.0,0.9396,0.9403,0.9235,0.9267,0.0,0.0,0.0,0.9498,0.938,0.0,0.0,0.0,0.0,0.0,0.0,0.0,0.0,0.0,0.0,0.0,0.0,0.0,0.0,0.0,0.0,0.0,0.0,0.0,0.0,0.0,0.0,0.0,0.0,0.0,0.0,0.0,0.0,0.0,0.0,0.0,0.0,0.0,0.0,0.0,0.0,0.0,0.0,0.0,0.0,0.0,0.0,0.0,0.0,0.0,0.0,0.0,0.0,0.0,0.0,0.0,0.0,0.0,0.0,0.0,1.0966,1.0869,1.0879,1.0937,1.1021,1.1298,1.1223,1.0791,1.1908,1.2321,0.0,0.0,0.0,0.0,0.0,0.0,0.0,0.0,0.0,0.0,0.0,0.0,0.0,0.0,0.0,0.0,0.0,0.0,0.0,0.0,0.0,0.0,0.0,0.0,0.0,0.0,0.0,0.0,0.0,0.0,0.0,0.0,0.0,0.0,0.0,0.0,0.0,0.0,0.0,0.0,0.0,0.0,0.9638,0.9374,0.0,0.0,0.0,0.9427,0.9712,0.0,0.0,0.0,0.0,0.0,0.0,0.0,0.0,0.0,0.0,0.0,0.0,0.0,0.0,0.0,0.0,0.0,0.0,0.0,0.0,0.0,0.0,0.0,0.0,0.0,0.0,0.0,0.0,0.0,0.0,0.0,0.0,0.0,0.0,0.0,0.0,0.0,0.0,0.0,0.0,0.0,0.0,0.0,0.0,0.0,0.0,0.0,0.0,0.0,0.0,0.0,0.0,0.0,0.0,0.0,0.0,0.0,1.0983,1.0966,1.1052,1.1182,1.1448,1.1266,1.0639,1.1768,0.0,0.0,0.0,0.0,0.0,0.0,0.0,0.0,0.0,0.0,0.0,0.0,0.0,0.0,0.0,0.0,0.0,0.0,0.0,0.0,0.0,0.0,0.0,0.0,0.0,0.0,0.0,0.9479,0.0,0.0,0.0,0.0,0.0,0.0,0.0,0.0,0.0,0.0,0.0,0.0,0.0,0.0,0.9772,0.9928,0.9686,0.9513,0.0,0.0,1.004,1.0132,0.9903,0.9875,0.0,0.0,0.0,0.0,0.0,0.0,0.0,0.0,0.0,0.0,0.0,0.0,0.0,0.0,0.0,0.0,0.0,0.0,0.0,0.0,0.0,0.0,0.0,0.0,0.0,0.0,0.0,0.0,0.0,0.0,0.0,0.0,0.0,0.0,0.0,0.0,0.0,0.0,0.0,0.0,0.0,0.0,0.0,0.0,0.0,0.0,0.0,0.0,0.0,0.0,0.0,0.0,0.0,0.0,0.0,1.1185,1.1185,1.1252,1.1384,1.1815,1.1566,1.0644,1.1664,1.2118,0.0,0.0,0.0,0.0,0.0,0.0,0.0,0.0,0.0,0.0,0.0,0.0,0.0,0.0,0.0,0.0,0.0,0.0,0.0,0.0,0.0,0.0,0.0,0.0,0.0,0.0,0.0,0.0,0.0,0.0,0.0,0.0,0.0,0.0,0.0,0.0,0.0,0.0,0.0,0.0,0.0,0.9991,1.056,1.0407,1.0266,0.0,0.0,1.0879,1.1095,1.083,1.0617,1.0584,0.0,0.0,0.0,0.0,0.0,0.0,0.0,0.0,0.0,0.0,0.0,0.0,0.0,0.0,0.0,0.0,0.0,0.0,0.0,0.0,0.0,0.0,0.0,0.0,0.0,0.0,0.0,0.0,0.0,0.0,0.0,0.0,0.0,0.0,0.0,0.0,0.0,0.0,0.0,0.0,0.0,0.0,0.0,0.0,0.0,0.0,0.0,0.0,0.0,0.0,0.0,0.0,0.0,1.1392,1.1392,1.1346,1.1429,1.1649,1.1932,1.1757,1.1063,1.1824,1.2162,0.0,0.0,0.0,0.0,0.0,0.0,0.0,0.0,0.0,0.0,0.0,0.0,0.0,0.0,0.0,0.0,0.0,0.0,0.0,0.0,0.0,0.0,0.0,0.0,0.0,0.0,0.0,0.0,0.8252,0.8686,0.9153,0.0,0.0,0.0,0.0,0.0,0.0,0.0,0.0,0.0,0.0,1.0587,1.0529,1.0179,0.0,0.0,1.0391,1.0769,1.1242,1.1073,1.1121,1.184,1.142,0.0,0.0,0.0,0.0,0.0,0.0,0.0,0.0,0.0,0.0,0.0,0.0,0.0,0.0,0.0,0.0,0.0,0.0,0.0,0.0,0.0,0.0,0.0,0.0,0.0,0.0,0.0,0.0,0.0,0.0,0.0,0.0,0.0,0.0,0.0,0.0,0.0,0.0,0.0,0.0,0.0,0.0,0.0,0.0,0.0,0.0,0.0,0.0,0.0,0.0,0.0,0.0,1.1578,1.1623,1.1567,1.1667,1.1932,1.2204,1.2097,1.1591,1.1971,1.2245,0.0,0.0,0.0,0.0,0.0,0.0,0.0,0.0,0.0,0.0,0.0,0.0,0.0,0.0,0.0,0.0,0.0,0.0,0.0,0.0,0.0,0.0,0.0,0.0,0.0,0.0,0.0,0.0,0.8422,0.929,1.0212,0.0,0.0,0.0,0.0,0.0,0.0,0.0,0.0,0.0,0.0,1.077,1.0753,1.0535,1.0448,1.0557,1.0978,1.1389,1.171,1.166,1.1811,1.2414,0.0,0.0,0.0,0.0,0.0,0.0,0.0,0.0,0.0,0.0,0.0,0.0,0.0,0.0,0.0,0.0,0.0,0.0,0.0,0.0,0.0,0.0,0.0,0.0,0.0,0.0,0.0,0.0,0.0,0.0,0.0,0.0,0.0,0.0,0.0,0.0,0.0,0.0,0.0,0.0,0.0,0.0,0.0,0.0,0.0,0.0,0.0,0.0,0.0,0.0,0.0,0.0,0.0,0.0,1.1902,1.1902,1.1993,1.2198,1.265,1.2633,1.2107,1.2048,1.2354,1.3041,0.0,0.0,0.0,0.0,0.0,0.0,0.0,0.0,0.0,0.0,0.0,0.0,0.0,0.0,0.0,0.0,0.0,0.0,0.0,0.0,0.0,0.0,0.0,0.0,0.0,0.0,0.9805,0.9463,0.9713,0.0,0.0,0.0,0.0,0.0,0.0,0.0,0.0,0.0,0.0,1.0931,1.0425,1.1429,1.179,1.1945,1.2075,1.2711,1.306,1.2635,1.2789,1.2729,0.0,0.0,0.0,0.0,0.0,0.0,0.0,0.0,0.0,0.0,0.0,0.0,0.0,0.0,0.0,0.0,0.0,0.0,0.0,0.0,0.0,0.0,0.0,0.0,0.0,0.0,0.0,0.0,1.1803,0.0,0.0,0.0,0.0,0.0,0.0,0.0,0.0,0.0,0.0,0.0,1.3083,1.3736,0.0,0.0,0.0,0.0,0.0,0.0,0.0,0.0,0.0,0.0,0.0,0.0,1.2371,1.2724,1.2457,1.2401,1.2597,1.289,1.2838,1.2436,1.2579,1.2902,1.3359,0.0,0.0,0.0,0.0,0.0,0.0,0.0,0.0,0.0,0.0,0.0,0.0,0.0,0.0,0.0,0.0,0.0,0.0,0.0,0.0,0.0,0.0,0.0,0.0,0.0,1.1158,0.0,0.0,0.0,0.0,0.0,0.0,0.0,0.0,0.0,0.0,0.0,1.2126,1.2131,1.2008,1.1965,1.2066,1.2153,1.2135,0.0,0.0,0.0,0.0,0.0,0.0,0.0,0.0,0.0,0.0,0.0,0.0,0.0,0.0,1.3473,1.2488,1.2229,1.21,1.1881,0.0,0.0,0.0,0.0,0.0,0.0,0.0,0.0,0.0,0.0,0.0,0.0,0.0,0.0,0.0,0.0,1.2654,0.0,0.0,0.0,0.0,0.0,0.0,0.0,0.0,1.3846,1.405,1.4075,1.4851,1.5143,0.0,1.4797,1.4269,0.0,0.0,0.0,0.0,0.0,0.0,0.0,0.0,1.2828,1.3507,1.3166,1.3034,1.3213,1.3403,1.3348,1.3045,1.3266,1.336,1.3194,1.3993,1.4432,0.0,0.0,0.0,0.0,0.0,0.0,0.0,0.0,0.0,0.0,0.0,0.0,0.0,0.0,0.0,0.0,0.0,0.0,0.0,0.0,0.0,0.0,0.0,1.1554,0.0,0.0,0.0,0.0,0.0,0.0,0.0,0.0,0.0,1.2977,1.2821,1.2603,1.2308,1.2616,1.2849,1.2806,0.0,0.0,0.0,0.0,0.0,0.0,0.0,1.4399,1.4299,1.3857,1.3357,1.2868,1.3253,1.3579,1.3408,0.0,0.0,1.2753,1.2482,1.2373,1.2194,1.228,1.2241,1.1652,1.1694,1.1722,0.0,0.0,0.0,0.0,0.0,0.0,0.0,0.0,1.3372,1.3306,0.0,1.3402,0.0,0.0,0.0,0.0,0.0,0.0,0.0,0.0,1.4368,1.4479,1.4778,1.5502,1.5615,1.5216,1.5662,1.5571,1.491,1.3828,0.0,0.0,0.0,0.0,0.0,0.0,1.316,1.4292,1.4036,1.3908,1.4036,1.4205,1.4145,1.3821,1.4043,1.3726,1.2784,1.3876,1.4299,1.3877,1.453,0.0,0.0,0.0,0.0,0.0,0.0,0.0,0.0,0.0,0.0,0.0,0.0,0.0,0.0,0.0,0.0,0.0,0.0,0.0,0.0,1.0795,0.0,0.0,0.0,0.0,0.0,0.0,0.0,0.0,0.0,0.0,1.3288,1.2684,1.2352,1.2621,0.0,0.0,0.0,0.0,1.4194,1.4655,1.4842,1.4889,1.4862,1.5118,1.5095,1.4512,0.0,0.0,1.3214,1.4123,1.4745,1.4362,1.4196,1.4139,1.4004,1.3876,1.3691,1.3122,1.347,1.3477,1.2268,1.2357,1.2595,1.814,0.0,0.0,0.0,0.0,1.5289,1.5542,1.5967,1.5467,1.5251,1.5287,1.4692,0.0,0.0,0.0,0.0,0.0,0.0,1.4651,1.4631,1.5179,1.5487,1.5575,1.6412,1.6715,1.6593,1.6373,1.6145,1.5944,1.522,1.4673,1.4331,0.0,0.0,0.0,0.0,1.4617,1.5364,1.5011,1.4815,1.4859,1.4627,1.4371,1.4086,1.417,1.4108,1.3972,1.4306,1.454,1.4572,1.4741,0.0,0.0,0.0,0.0,0.0,0.0,0.0,0.0,0.0,0.0,0.0,0.0,0.0,0.0,0.0,0.0,0.0,0.0,0.0,1.3299,1.1945,1.17,0.0,0.0,0.0,0.0,0.0,0.0,0.0,0.0,0.0,1.3912,1.3582,1.3383,0.0,0.0,1.4254,1.4513,1.4602,1.4594,1.4457,0.0,0.0,0.0,1.514,1.5301,1.4819,1.394,1.3435,1.382,1.3872,1.3961,1.4233,1.3972,1.3834,1.4233,1.3914,1.3541,1.333,1.3134,1.2822,1.2375,1.2432,1.2505,1.9285,1.8031,1.74,1.7267,1.7408,1.7111,1.7098,1.7295,1.6966,1.6591,1.6175,1.5857,1.5408,1.4857,1.5179,0.0,0.0,0.0,1.5497,1.5436,1.6013,1.6281,1.6335,1.6905,1.7212,1.7186,1.6872,1.6735,1.6796,1.6382,1.6016,1.5745,0.0,0.0,1.5713,1.5244,1.5385,1.6147,1.576,1.5428,1.5247,1.4646,1.4305,1.4121,1.4203,1.4303,1.4465,1.4499,1.4594,1.4794,1.4794,1.4689,0.0,0.0,0.0,0.0,0.0,0.0,0.0,0.0,0.0,0.0,0.0,1.3713,0.0,0.0,0.0,0.0,1.2899,1.3234,1.3234,1.2485,0.0,0.0,0.0,0.0,0.0,0.0,0.0,1.5427,1.4941,1.4587,1.4616,1.4469,1.4296,1.4127,1.4581,1.4979,1.5087,0.0,1.5064,1.4805,1.5096,1.5242,1.5063,1.5358,1.5488,1.5036,1.4651,1.427,1.4267,1.4183,1.4284,1.4636,1.4472,1.4448,1.5175,1.4782,1.411,1.3616,1.3256,1.2943,1.2596,1.2542,1.2542,2.016,2.0444,2.0461,2.0204,1.9835,1.9456,1.8903,1.8247,1.809,1.7495,1.6654,1.6975,1.6571,1.5736,1.6502,0.0,0.0,1.7016,1.685,1.6606,1.6854,1.6935,1.6952,1.7167,1.7264,1.7277,1.7264,1.7353,1.7449,1.734,1.7298,1.7238,1.6055,1.562,1.5934,1.5489,1.5731,1.6705,1.6309,1.5878,1.5414,1.4594,1.4152,1.4132,1.4265,1.4381,1.4431,1.4513,1.4578,1.4716,1.4777,1.4393,1.3552,0.0,0.0,0.0,0.0,0.0,0.0,0.0,0.0,0.0,0.0,0.0,0.0,0.0,0.0,0.0,1.2233,0.0,1.1849,1.2692,0.0,0.0,0.0,1.4993,1.5099,1.5162,1.5267,1.5385,0.0,0.0,0.0,0.0,1.5153,1.4658,1.4994,1.5313,1.5389,1.5433,1.5492,1.5448,1.5492,1.5492,1.5521,1.5696,1.5703,1.5335,1.572,1.5657,1.4921,1.4934,1.5314,1.5625,1.5487,1.5593,1.6454,1.6038,1.532,1.4143,1.3908,1.3666,1.2996,1.289,1.2864,2.234,2.2451,2.2049,2.1052,1.9692,1.9877,2.0168,2.0425,1.9483,1.9158,1.9277,1.8338,1.7675,1.73,1.7773,1.7848,1.7604,1.7905,1.7814,1.7441,1.7494,1.7372,1.7154,1.7648,1.7891,1.7878,1.7891,1.7922,1.8003,1.8038,1.8016,1.7968,1.7697,1.7253,1.6696,1.6555,1.6619,1.6918,1.6923,1.6776,1.6451,1.5828,1.5391,1.5083,1.4761,1.4653,1.4777,1.4779,1.4825,1.4855,1.4824,1.4775,1.476,1.5291,0.0,0.0,0.0,0.0,0.0,0.0,0.0,0.0,0.0,1.5653,1.5144,0.0,1.524,0.0,1.2556,1.2528,1.4026,1.3827,0.0,0.0,1.5065,1.544,1.5983,1.5695,1.5639,1.6167,1.5771,1.5448,1.5448,1.5979,1.6306,1.6219,1.5638,1.5283,1.5448,1.5388,1.5388,1.5492,1.5507,1.5595,1.5826,1.6011,1.6063,1.5965,1.5752,1.564,1.5842,1.5703,1.5744,1.6145,1.5953,1.6015,1.67,1.6315,1.5831,1.5471,1.5025,1.4422,1.3698,1.3563,1.3402,2.3373,2.3079,2.28,2.1862,2.0637,2.092,2.1172,2.1278,2.0426,2.0127,2.0131,1.8753,1.8095,1.8095,1.8367,1.8414,1.832,1.8531,1.849,1.8238,1.8251,1.8137,1.797,1.8296,1.8498,1.8543,1.8543,1.8464,1.8314,1.8653,1.8498,1.7903,1.8259,1.7993,1.7154,1.7065,1.7065,1.7073,1.6971,1.6844,1.6761,1.6352,1.6018,1.5729,1.5618,1.5571,1.5607,1.5593,1.5656,1.5738,1.5705,1.5547,1.5295,1.5992,1.6157,0.0,0.0,0.0,0.0,0.0,0.0,0.0,0.0,0.0,0.0,0.0,1.5736,0.0,1.3374,0.0,1.4976,1.476,1.474,1.5374,1.5448,1.5712,1.6466,1.601,1.5891,1.6513,1.598,1.5522,1.5551,1.6263,1.6787,1.6864,1.6621,1.6335,1.6114,1.5847,1.5595,1.5566,1.561,1.5755,1.5968,1.6081,1.6179,1.6231,1.5993,1.5922,1.6425,1.6216,1.6116,1.6483,1.6317,1.6254,1.67,1.6556,1.6317,1.6322,1.6112,1.5505,1.4519,1.4234,1.3994,2.3884,2.3071,2.316,2.2695,2.1886,2.223,2.2093,2.1644,2.1293,2.0818,2.0169,1.8918,1.844,1.8607,1.8783,1.8936,1.9073,1.911,1.9081,1.9028,1.9015,1.8989,1.8898,1.8976,1.9084,1.9222,1.9186,1.8989,1.8692,1.9289,1.8985,1.795,1.8524,1.8433,1.7663,1.746,1.7319,1.722,1.6856,1.6725,1.6856,1.6563,1.6418,1.6423,1.6534,1.6634,1.6659,1.6606,1.6652,1.6792,1.684,1.6444,1.5647,1.6679,1.6908,0.0,1.7,0.0,0.0,0.0,0.0,0.0,0.0,0.0,0.0,1.67,1.6131,1.5526,1.4551,1.4367,1.5373,1.5506,1.5566,1.5624,1.5624,1.5876,1.6472,1.6129,1.5994,1.6532,1.6114,1.5787,1.5817,1.6473,1.7046,1.7365,1.7638,1.7637,1.7152,1.6531,1.6005,1.5713,1.5798,1.5942,1.5982,1.6067,1.6165,1.6316,1.6285,1.6384,1.6657,1.6554,1.6461,1.6659,1.663,1.6604,1.6722,1.6802,1.6844,1.6895,1.6923,1.654,1.5374,1.4931,1.4597,2.4314,2.3374,2.3959,2.3247,2.1766,2.3093,2.3424,2.3006,2.2633,2.1926,2.103,2.0447,2.0,1.975,2.0124,2.0174,1.9962,2.0248,2.0098,1.9643,1.9643,1.9345,1.895,1.9407,1.9701,1.9819,1.9724,1.979,1.9999,2.006,1.9993,1.9861,1.9978,1.9691,0.0,0.0,0.0,0.0,1.745,1.7572,1.7731,1.7238,1.7303,1.7976,1.7096,0.0,1.7487,1.7192,1.6941,1.6878,1.6978,0.0,0.0,0.0,0.0,0.0,0.0,0.0,0.0,0.0,0.0,0.0,1.8502,1.823,1.7843,1.7195,1.6829,1.6861,1.5889,1.555,1.6276,1.598,1.5755,1.5755,1.5755,1.583,1.5964,1.5873,1.5859,1.5949,1.6353,1.6638,1.6683,1.7426,1.8191,1.8668,1.8531,1.8254,1.8053,1.7243,1.6487,1.6047,1.5997,1.6039,1.5996,1.6053,1.6137,1.622,1.6409,1.6517,1.6567,1.6759,1.6827,1.6863,1.6837,1.6863,1.6991,1.6994,1.6998,1.7124,1.7074,1.674,1.5843,1.5607,1.5211,2.5071,0.0,2.4612,2.3829,0.0,2.335,2.3673,2.3502,2.285,2.2015,2.1104,2.0953,2.0643,2.0271,2.0574,2.0599,2.0473,2.0637,2.0517,2.0255,2.0242,2.0085,1.9797,2.0111,2.0329,2.0439,2.0366,2.0294,2.022,2.0508,2.0408,1.9873,2.0244,1.998,1.9051,1.8446,1.7974,1.7569,1.7747,1.7935,1.8082,1.7988,1.8142,1.8567,0.0,0.0,0.0,0.0,0.0,0.0,0.0,0.0,0.0,0.0,0.0,1.8766,1.9086,1.9166,1.8918,1.8855,1.9027,1.9444,1.9592,1.9302,1.8502,1.7945,1.7571,1.7373,1.6567,1.6304,1.6927,1.6293,1.5904,1.6189,1.5979,1.5918,1.6159,1.5979,1.5977,1.6292,1.6352,1.6517,1.7013,1.7716,1.8485,1.9228,1.9415,1.9261,1.8842,1.7808,1.6801,1.6204,1.6123,1.6123,1.6067,1.615,1.6234,1.626,1.6423,1.6528,1.6541,1.6701,1.6818,1.6821,1.6892,1.6972,1.7036,1.7061,1.7061,1.7086,1.7036,1.6892,1.6412,1.6323,1.5875,2.5669,2.4939,2.5154,2.4478,2.3252,2.3683,2.382,2.3685,0.0,0.0,0.0,2.1256,2.1068,2.0772,2.0937,2.0936,2.0831,2.0831,2.0804,2.0699,2.0699,2.0699,2.0699,2.0699,2.0775,2.0888,2.0863,2.0624,2.0223,2.0868,2.0663,1.9773,2.0307,2.0161,1.9125,1.8506,1.8133,1.7963,1.801,1.8115,1.8301,1.8586,1.8778,1.8867,1.8936,1.9018,1.9152,1.9089,1.913,1.9284,1.9321,1.9372,1.9431,1.9614,1.9708,1.9726,1.9884,2.0003,2.0005,2.0045,2.0098,2.0118,2.0287,2.0037,1.9167,1.8728,1.8303,1.7872,1.7112,1.6875,1.7423,1.656,1.6144,1.6636,1.6159,1.6024,1.6562,1.6308,1.6277,1.6804,1.6758,1.6712,1.756,1.813,1.8702,1.948,1.9932,2.0101,1.9434,1.8207,1.7082,1.6576,1.6374,1.6193,1.6123,1.6207,1.6361,1.6518,1.6505,1.6532,1.6723,1.6739,1.6712,1.6779,1.6889,1.6985,1.7023,1.7074,1.7083,1.7052,1.6998,1.6988,1.6921,1.6853,1.6368,2.5673,2.5015,2.5566,2.5121,2.4178,2.4975,2.4781,2.3954,2.3572,2.3009,2.2341,2.2067,2.1852,2.1722,2.2045,2.1891,2.1394,2.1381,2.1158,0.0,2.0699,2.0699,2.0699,2.0699,2.0775,2.0888,2.08,2.0759,2.0866,2.0981,2.0964,2.0965,2.1164,2.0925,2.0274,1.9727,1.9257,1.8927,1.8445,1.8327,1.8615,1.8576,1.8874,1.9501,1.9075,1.9113,1.9732,1.9425,1.9265,1.9288,1.9358,1.9431,1.9574,1.965,1.9726,1.978,1.9797,1.9884,1.9988,2.0023,2.0078,2.0252,2.0287,2.0206,1.9928,1.9239,1.8897,1.9033,1.7942,1.7234,1.7375,1.6882,1.6576,1.6681,1.6189,1.6054,1.6667,1.6758,1.6804,1.703,1.8161,1.8811,1.8936,1.9249,1.9657,2.0287,2.0127,1.9718,1.9436,1.8389,1.7533,1.7154,1.6718,1.6322,1.6123,1.6095,1.6407,1.7065,1.6642,1.6579,1.7216,1.6963,1.6756,1.6918,1.6959,1.7039,1.714,1.7137,1.7108,1.7124,1.7061,1.6985,1.6921,1.684,1.6502,2.5718,2.543,2.5968,2.5694,2.4859,2.5079,2.4732,2.4023,2.3882,2.3424,2.2709,2.2542,2.2371,2.2197,2.2333,2.2243,2.1969,2.1995,2.1695,2.1146,2.1145,2.0975,2.0725,2.0699,2.0712,2.0788,2.075,2.0787,2.0949,2.0972,2.1071,2.1177,2.1015,2.0938,2.0925,2.0134,1.9869,2.0206,1.9322,1.8815,1.8755,1.8793,1.8999,1.9353,1.9156,1.9232,1.9609,1.9519,1.9468,1.9527,1.9545,1.9581,1.965,1.9795,1.9833,1.9797,1.9904,1.9993,2.0061,2.0131,2.02,2.0287,2.0287,2.0287,2.0202,1.9786,1.9499,1.9522,1.8596,1.8143,1.8408,1.7617,1.7208,1.7691,1.7173,1.6904,1.7143,1.7281,1.7375,1.7561,1.8206,1.8764,1.8936,1.9045,1.9358,1.9988,2.0065,2.0143,2.0126,1.939,1.8446,1.7639,1.7261,1.686,1.6368,1.6248,1.6414,1.6722,1.6504,1.6483,1.6876,1.6671,1.6681,1.6694,1.6856,1.6998,1.709,1.7099,1.7111,1.7124,1.7074,1.6985,1.6921,1.6772,1.6396,2.5833,2.5711,2.6176,2.603,2.556,2.5202,2.4822,2.4431,2.4155,2.3733,2.3247,2.3055,2.2887,2.2735,2.2765,2.2701,2.2597,2.2584,2.2256,2.1747,2.1721,2.1407,2.0923,2.087,2.083,2.0712,2.0699,2.0762,2.0888,2.0985,2.1082,2.1175,2.0891,2.0952,2.1372,2.0574,2.0538,2.1142,2.0394,1.9671,1.9118,1.9243,1.928,1.9172,1.9265,1.9372,1.9431,1.9556,1.965,1.969,1.9723,1.9723,1.9708,1.9833,1.9884,1.983,1.994,2.0048,2.0083,2.0185,2.027,2.0287,2.0287,2.0287,2.0287,2.0166,1.9955,1.9666,1.9132,1.8895,1.8927,1.8261,1.7882,1.8505,1.8034,1.7662,1.7827,1.7921,1.8052,1.8246,1.848,1.8778,1.8936,1.9014,1.9311,1.9908,2.0364,2.0695,2.0663,2.0304,1.9499,1.8539,1.8018,1.7567,1.6829,1.6647,1.6678,1.6575,1.6437,1.6483,1.6559,1.6665,1.6683,1.6748,1.6857,1.7062,1.7149,1.7104,1.7077,1.7061,1.701,1.6959,1.6895,1.6691,1.6318,2.5996,2.5877,2.5945,2.6129,2.6302,2.5929,2.5717,2.5572,2.4646,2.4349,2.4374,2.3829,2.3601,2.3764,2.3858,2.3587,2.3158,2.3104,2.2831,2.2347,2.2335,2.2008,2.1433,2.142,2.1159,2.0764,2.0699,2.08,2.0913,2.0985,2.1131,2.1375,2.1331,2.1342,2.1407,2.154,2.1518,2.1397,2.1512,2.1053,2.0049,1.9996,1.9769,1.9284,1.9358,1.9465,1.9574,1.965,1.969,1.9708,1.9723,1.9723,1.9708,1.9726,1.9762,1.9795,1.9815,1.9889,2.0098,2.0115,2.0185,2.0287,2.0287,2.0287,2.0287,2.027,2.0113,1.9749,1.9467,1.9107,1.8588,1.8381,1.8419,1.8678,1.8173,1.7921,1.8476,1.8697,1.8897,1.9145,1.964,2.0256,2.0237,2.0238,2.0363,2.0348,2.0586,2.0794,2.0778,2.0699,2.0399,1.9641,1.9088,1.832,1.7578,1.7362,1.7344,1.7313,1.6791,1.6727,1.7013,1.6927,1.6714,1.7243,1.7297,1.7295,1.7452,1.7415,1.7046,1.6998,1.6943,1.6892,1.6798,1.6649,1.6302,2.5777,2.5758,2.598,2.6223,2.6411,2.6063,2.5889,2.5808,2.481,2.451,2.4615,2.4064,2.3878,2.4037,2.4096,2.3952,2.3731,2.3746,2.3417,2.291,2.2884,2.24,2.1577,2.159,2.1339,2.0839,2.0861,2.0947,2.1084,2.1193,2.1302,2.1423,2.1568,2.164,2.1688,2.1996,2.216,2.2192,2.2357,2.2113,2.1421,2.0665,2.0172,1.9935,1.9675,1.9553,1.9608,1.9669,1.9723,1.9723,1.9723,1.9723,1.9723,1.9744,1.9744,1.9744,1.9848,1.9955,2.0043,2.0133,2.0252,2.0287,2.0287,2.0287,2.0287,2.0287,2.0183,1.9919,1.969,1.9411,1.9153,1.9051,1.9054,1.9165,1.8991,1.8932,1.9185,1.9303,1.9426,1.9561,1.9982,2.0186,1.9962,1.9968,2.0033,2.0128,2.0429,2.0794,2.0811,2.0828,2.0717,2.0447,2.021,1.956,1.8494,1.8107,1.7966,1.7698,1.7538,1.7588,1.7001,1.7546,1.7672,1.7706,1.7801,1.782,1.7773,1.7716,1.7463,1.72,1.6972,1.6918,1.684,1.6678,1.6452,2.5571,2.5711,2.6119,2.6396,2.653,2.6295,2.6217,2.6131,2.521,2.489,2.4922,2.4231,2.3979,2.4096,2.4125,2.4125,2.4125,2.4125,2.3861,2.3456,2.343,2.2908,2.2034,2.2062,2.176,2.1205,2.1174,2.1193,2.1231,2.1423,2.152,2.1568,2.1783,2.1902,2.1949,2.2301,2.2549,2.2754,2.2957,2.2937,2.2543,2.1578,2.0838,2.0429,1.9897,1.9593,1.9614,1.9672,1.9708,1.9726,1.9726,1.9744,1.9795,1.983,1.9848,1.9797,1.9937,2.0025,2.0025,2.02,2.0287,2.0287,2.0287,2.0287,2.0287,2.0287,2.0235,2.0096,1.9902,1.9741,1.9611,1.9505,1.952,1.9611,1.9632,1.9669,1.9708,1.978,1.9839,1.9925,2.0137,2.0135,1.9721,1.9825,2.0034,2.0065,2.0445,2.0684,2.0637,2.0686,2.0813,2.0589,2.0766,2.0432,1.9277,1.8933,1.8619,1.8212,1.8157,1.7943,1.7174,1.8002,1.8609,1.8492,1.8707,1.8768,1.8592,1.838,1.7729,1.7226,1.7023,1.7101,1.7205,1.7019,1.6966,2.5535,2.591,2.6327,2.6568,2.6714,2.6858,2.7048,2.7002,2.5987,2.5615,2.5501,2.4416,2.3979,2.4125,2.4112,2.4125,2.4112,2.4112,2.4112,2.4073,2.4047,2.3733,2.3143,2.3132,2.2626,2.1758,2.1718,2.158,2.1334,2.1592,2.1783,2.1807,2.2067,2.2184,2.224,2.2549,2.2754,2.2934,2.326,2.3465,2.3417,2.2877,2.1844,2.0663,1.9931,1.9692,1.969,1.969,1.9726,1.9795,1.9795,1.9833,1.9955,2.0003,2.0018,2.0003,2.0076,2.0113,2.0146,2.025,2.0287,2.0287,2.0287,2.0287,2.0287,2.0287,2.0287,2.027,2.0096,1.9884,1.9683,1.9647,1.965,1.9693,1.9782,1.9874,2.0048,2.0063,2.0202,2.034,2.034,2.0326,2.0399,2.0614,2.0618,2.0586,2.0713,2.0636,2.0257,2.0543,2.0591,2.0321,2.04,2.0573,1.9925,1.9673,1.9358,1.8964,1.87,1.8576,1.8574,1.8666,1.8997,1.9185,1.9183,1.9228,1.9339,1.8862,1.7914,1.7399,1.7255,1.7297,1.7829,1.7841,1.7771,2.5535,2.591,2.6188,2.6452,2.6726,2.6909,2.6886,2.666,2.6005,2.554,2.5184,2.4393,2.4067,2.4112,2.4173,2.4218,2.4232,2.4305,2.4503,2.4748,2.449,2.4187,2.3918,2.3661,2.3202,2.2631,2.2602,2.2488,2.2142,2.1928,2.1902,2.21,2.2365,2.2503,2.2609,2.2971,2.3238,2.3319,2.3494,2.3566,2.355,2.3017,2.2239,2.1374,2.0673,2.0102,1.9723,1.9723,1.9726,1.9744,1.9744,1.978,1.9896,2.0379,2.0628,2.0628,2.0703,2.0757,2.073,2.0466,2.0287,2.0287,2.0287,2.0302,2.0287,2.0287,2.0287,2.0287,2.0252,2.0111,1.9975,1.9922,1.9922,1.9975,2.0063,2.0133,2.0202,2.022,2.0254,2.034,2.0392,2.0492,2.0594,2.0694,2.0744,2.0777,2.0778,2.0652,2.0558,2.0734,2.075,2.0574,2.0669,2.0764,2.0475,2.03,2.0079,1.9704,1.9406,1.9186,1.9091,1.9594,1.9987,1.9736,1.9657,1.9688,1.9814,1.9362,1.8411,1.8198,1.8014,1.7929,1.8612,1.8446,1.8379,2.5653,2.5945,2.6223,2.6533,2.6794,2.7011,2.6961,2.6687,2.6087,2.5602,2.5158,2.4465,2.4125,2.4141,2.4261,2.435,2.4392,2.4494,2.4646,2.483,2.4722,2.458,2.4469,2.432,2.4014,2.3565,2.3246,2.3004,2.2702,2.2299,2.2306,2.2691,2.2838,2.302,2.3219,2.3415,2.3509,2.3531,2.3545,2.3595,2.3535,2.3212,2.2609,2.1858,2.1285,2.0602,1.9786,1.9726,1.9744,1.9744,1.9797,1.9869,2.0,2.0631,2.1029,2.1029,2.1301,2.1445,2.1433,2.1142,2.0857,2.0641,2.0628,2.0564,2.0349,2.0287,2.0287,2.0287,2.0287,2.027,2.0235,2.022,2.022,2.0202,2.0254,2.0357,2.0424,2.044,2.0407,2.0407,2.051,2.0628,2.0695,2.0727,2.0761,2.0811,2.0827,2.0763,2.0558,2.0717,2.0717,2.0509,2.0603,2.0648,2.0516,2.0369,2.0401,2.0107,2.0001,1.9782,1.9767,2.0333,2.0554,2.0303,2.0209,2.0257,2.0067,1.9692,1.9412,1.9169,1.8705,1.8411,1.8762,1.8926,1.8988,2.5875,2.5968,2.644,2.676,2.6977,2.718,2.7356,2.717,2.625,2.5728,2.544,2.4566,2.4112,2.4141,2.429,2.4421,2.462,2.4664,2.46,2.4461,2.4886,2.5058,2.4931,2.5134,2.5094,2.47,2.3697,2.3077,2.2928,2.2847,2.3051,2.3557,2.3441,2.3636,2.4248,2.3807,2.3554,2.3531,2.3588,2.3595,2.3595,2.3556,2.2999,2.2033,2.1744,2.1094,1.9918,1.9827,1.978,1.9815,1.9975,2.015,2.031,2.0839,2.1136,2.1308,2.18,2.2152,2.2202,2.2171,2.1812,2.1411,2.1273,2.0965,2.0533,2.0333,2.0287,2.0287,2.0381,2.0399,2.0483,2.0629,2.0583,2.0323,2.0392,2.051,2.0627,2.0677,2.0644,2.0561,2.0646,2.0794,2.081,2.0794,2.0811,2.086,2.0828,2.0636,2.0273,2.0526,2.043,2.0097,2.0285,2.0611,2.0492,2.0371,2.0455,2.0509,2.0484,2.041,2.0333,2.0663,2.0713,2.0541,2.0525,2.0541,2.0464,2.014,2.0081,1.98,1.9312,1.9171,1.9646,1.9976,1.9814,2.5758,2.5945,2.6336,2.6679,2.7024,2.7214,2.7194,2.6883,2.6125,2.5602,2.5145,2.4452,2.4128,2.4261,2.4434,2.4635,2.4863,2.5089,2.5293,2.5505,2.599,2.6104,2.5936,2.5716,2.559,2.546,2.4797,2.4467,2.4382,2.3784,2.3811,2.4455,2.4307,2.4252,2.443,2.4306,2.4052,2.3633,2.3573,2.3653,2.3717,2.3739,2.3402,2.2722,2.2197,2.1496,2.0722,2.011,1.9795,1.9744,1.9937,2.0078,2.0349,2.1292,2.1894,2.2002,2.257,2.2955,2.2893,2.2544,2.2274,2.1951,2.1596,2.1257,2.0965,2.0533,2.0335,2.0381,2.0742,2.1107,2.1272,2.1768,2.1614,2.0702,2.0628,2.071,2.0744,2.0761,2.0745,2.0728,2.0761,2.0795,2.0844,2.086,2.0827,2.0861,2.0844,2.0652,2.0605,2.0636,2.0763,2.0492,2.0646,2.0782,2.0869,2.1035,2.121,2.1122,2.1002,2.0912,2.0867,2.0745,2.0778,2.0795,2.0795,2.0764,2.0687,2.0653,2.0597,2.0616,2.035,2.0603,2.1096,2.0958,2.0513,2.607,2.6062,2.6452,2.676,2.7024,2.7268,2.7228,2.6896,2.6151,2.5615,2.5197,2.4452,2.4187,2.4334,2.452,2.4765,2.5117,2.5688,2.6036,2.6245,2.675,2.675,2.6414,2.6214,2.6281,2.6321,2.5718,2.5449,2.5494,2.4805,2.4736,2.5383,2.512,2.4916,2.4871,2.4664,2.4261,2.3699,2.3595,2.3638,2.3717,2.376,2.3564,2.3072,2.261,2.2082,2.1503,2.0965,2.04,1.9972,1.9955,2.017,2.0581,2.1652,2.2394,2.2748,2.3255,2.3671,2.3625,2.3317,2.2902,2.2644,2.2058,2.1723,2.1556,2.0939,2.0397,2.0758,2.1102,2.1452,2.1668,2.229,2.2315,2.1657,2.1345,2.1094,2.0905,2.081,2.081,2.081,2.081,2.0844,2.0877,2.0844,2.0828,2.0861,2.0844,2.1016,2.1031,2.0935,2.1029,2.1155,2.1258,2.1379,2.1489,2.1721,2.2003,2.1802,2.1522,2.1368,2.1261,2.0969,2.0877,2.0845,2.0828,2.086,2.0783,2.1022,2.1081,2.1167,2.1165,2.1176,2.1222,2.0945,2.0663,2.6661,2.6295,2.6752,2.6956,2.7058,2.7335,2.7443,2.7294,2.6308,2.5816,2.5612,2.4702,2.429,2.4436,2.4708,2.5032,2.5465,2.6315,2.6721,2.6786,2.711,2.7042,2.6375,2.6543,2.6866,2.7097,2.6442,2.6039,2.5959,2.5585,2.5782,2.6302,2.5908,2.5636,2.5531,2.5008,2.441,2.3849,2.3655,2.3631,2.3638,2.376,2.364,2.3158,2.3026,2.2731,2.2321,2.1953,2.1366,2.0345,2.0294,2.0597,2.1316,2.2015,2.2725,2.3156,2.3876,2.4102,2.4225,2.4087,2.3902,2.3363,2.2782,2.2374,2.2232,2.1391,2.0789,2.1104,2.1512,2.1721,2.1923,2.2608,2.2967,2.288,2.2185,2.1553,2.0984,2.0921,2.0984,2.0968,2.0906,2.0938,2.1099,2.0986,2.1003,2.1003,2.1018,2.1301,2.1663,2.1708,2.1687,2.1796,2.1904,2.1998,2.2126,2.2602,2.2852,2.2705,2.2346,2.2049,2.1596,2.1193,2.0958,2.0926,2.0877,2.0893,2.1023,2.1214,2.1387,2.1425,2.1365,2.1288,2.1201,2.1056,2.1044,2.6673,2.6248,2.6602,2.6875,2.7024,2.7248,2.7403,2.7346,2.6416,2.61,2.6024,2.5202,2.4975,2.53,2.5383,2.5869,2.6553,2.7002,2.7567,2.8019,2.8192,2.7657,2.6808,2.6727,2.6934,2.7103,2.689,2.6751,2.678,2.6352,2.6495,2.7089,2.6589,2.6318,2.6228,2.5659,2.4993,2.4358,2.3921,2.3754,2.3782,2.3982,2.4027,2.3885,2.3458,2.3191,2.2893,2.2036,2.1713,2.1707,2.1203,2.135,2.2044,2.2769,2.3049,2.2991,2.3812,2.4184,2.383,2.404,2.4179,2.404,2.3388,2.2863,2.2452,2.2158,2.1525,2.1364,2.2043,2.2929,2.2797,2.3595,2.4046,2.3572,2.2627,2.182,2.1663,2.1584,2.1551,2.1632,2.1995,2.1997,2.1778,2.1651,2.1651,2.1652,2.1683,2.1824,2.2251,2.2422,2.2355,2.2532,2.2643,2.269,2.288,2.3391,2.366,2.3604,2.3288,2.288,2.2157,2.1337,2.1133,2.1022,2.0925,2.0909,2.1103,2.134,2.1463,2.157,2.1609,2.1549,2.1599,2.1551,2.1501,2.7026,2.6339,2.6589,2.6829,2.7011,2.7214,2.7436,2.7453,2.6743,2.6591,2.6695,2.5842,2.5642,2.6036,2.5827,2.6131,2.6827,2.7182,2.7505,2.7797,2.81,2.7955,2.7547,2.729,2.7146,2.7419,2.7236,2.7248,2.7287,2.7036,2.715,2.7339,2.7176,2.6871,2.6542,2.6291,2.5625,2.4815,2.4406,2.42,2.3934,2.4082,2.4166,2.4147,2.3876,2.3717,2.3579,2.2759,2.2207,2.1846,2.1306,2.1234,2.2024,2.2839,2.3136,2.2982,2.4053,2.4447,2.4169,2.4286,2.4436,2.4388,2.3871,2.3545,2.3293,2.2985,2.2129,2.2267,2.3168,2.3456,2.3525,2.4295,2.4681,2.4286,2.3101,2.2327,2.2313,2.228,2.228,2.2406,2.2629,2.2839,2.2448,2.2434,2.2487,2.2523,2.2521,2.2678,2.2897,2.2954,2.2977,2.3059,2.3185,2.323,2.3386,2.3834,2.3866,2.3875,2.3815,2.3473,2.2796,2.1799,2.142,2.1261,2.1052,2.1038,2.1375,2.1565,2.1495,2.1601,2.1721,2.1781,2.1781,2.1781,2.1781,2.7457,2.6533,2.6658,2.6794,2.7011,2.7214,2.7469,2.765,2.7226,2.7215,2.7352,2.6537,2.631,2.6623,2.6174,2.6141,2.6693,2.7393,2.743,2.7723,2.7981,2.8285,2.8281,2.7642,2.7527,2.7756,2.7558,2.7482,2.7509,2.753,2.7555,2.7545,2.7555,2.7285,2.6881,2.6738,2.6124,2.5364,2.5152,2.49,2.4489,2.4444,2.4453,2.4422,2.4297,2.423,2.4066,2.3555,2.279,2.1633,2.0954,2.1332,2.19,2.2673,2.3139,2.3631,2.4304,2.4812,2.4772,2.4598,2.4695,2.4689,2.4151,2.394,2.4151,2.3533,2.3095,2.3158,2.3789,2.3982,2.4064,2.463,2.4891,2.4717,2.3752,2.323,2.2993,2.2946,2.2882,2.2882,2.2882,2.3211,2.3161,2.3282,2.3351,2.3372,2.3304,2.317,2.3211,2.3138,2.3222,2.3354,2.3512,2.3702,2.3939,2.4226,2.4084,2.3954,2.3961,2.3745,2.3399,2.2609,2.1961,2.1596,2.15,2.1616,2.194,2.1954,2.1819,2.1763,2.2013,2.1912,2.1781,2.1781,2.1781,2.7457,2.6487,2.6658,2.6829,2.7024,2.7201,2.7503,2.7756,2.7613,2.7683,2.7711,2.7224,2.7046,2.7088,2.681,2.7153,2.7961,2.8278,2.8636,2.9286,2.9458,2.9,2.8485,2.7883,2.77,2.7624,2.7465,2.7463,2.7575,2.7585,2.7585,2.7585,2.761,2.7525,2.737,2.7043,2.6736,2.6322,2.6092,2.5795,2.549,2.521,2.506,2.4977,2.4657,2.4493,2.4214,2.3336,2.2843,2.2936,2.2963,2.3032,2.3425,2.3936,2.4057,2.4004,2.4441,2.4729,2.4503,2.4712,2.4843,2.4906,2.4725,2.4441,2.4021,2.4284,2.3821,2.3614,2.4065,2.4599,2.4677,2.4855,2.5005,2.4914,2.4625,2.4147,2.3733,2.323,2.2785,2.2645,2.3486,2.4227,2.3407,2.3845,2.3999,2.4141,2.4011,2.3697,2.351,2.3387,2.3422,2.3552,2.3602,2.37,2.3575,2.3752,2.3613,2.3771,2.3916,2.384,2.3494,2.3331,2.2669,2.2255,2.1998,2.223,2.2557,2.2589,2.2505,2.24,2.2275,2.2177,2.2079,2.1963,2.196,2.7812,2.6764,2.6807,2.6977,2.7146,2.7281,2.7536,2.7914,2.8082,2.8252,2.8322,2.795,2.7883,2.8011,2.7544,2.7781,2.8533,2.8793,2.917,2.9621,2.9676,2.9096,2.8453,2.8119,2.7879,2.7476,2.7448,2.7524,2.7575,2.7585,2.7585,2.7585,2.765,2.77,2.7725,2.7512,2.7306,2.6996,2.6833,2.6635,2.6303,2.6099,2.5845,2.5576,2.5138,2.4806,2.4721,2.4295,2.3821,2.3826,2.4111,2.4057,2.3713,2.4053,2.42,2.4185,2.4767,2.5138,2.5099,2.5123,2.523,2.5227,2.515,2.4819,2.4535,2.4729,2.4591,2.4207,2.453,2.4985,2.5005,2.5103,2.5103,2.5005,2.4786,2.4309,2.3666,2.3391,2.3101,2.2837,2.3655,2.4106,2.4202,2.4388,2.4912,2.5175,2.5038,2.4688,2.393,2.379,2.3592,2.3615,2.3636,2.3551,2.3267,2.3104,2.2934,2.3285,2.3779,2.3655,2.3385,2.3369,2.3335,2.3062,2.2838,2.2882,2.3113,2.3161,2.3193,2.294,2.2754,2.259,2.2539,2.2585,2.2582,2.8234,2.7079,2.7045,2.7146,2.7315,2.7369,2.7683,2.8079,2.8457,2.873,2.8913,2.846,2.8426,2.874,2.8049,2.8087,2.8649,2.9109,2.953,2.9617,2.9407,2.8954,2.8471,2.8278,2.7995,2.7497,2.7524,2.7585,2.7585,2.7585,2.7625,2.765,2.774,2.779,2.7865,2.8048,2.7887,2.7483,2.7557,2.7473,2.7143,2.6998,2.6745,2.6059,2.5715,2.5289,2.5185,2.4939,2.4761,2.4156,2.4805,2.4274,2.3592,2.3563,2.4201,2.439,2.5161,2.5542,2.5709,2.5703,2.564,2.564,2.5524,2.5294,2.5088,2.5013,2.493,2.4926,2.5025,2.5025,2.5025,2.5123,2.5162,2.5031,2.4592,2.3989,2.3453,2.3581,2.3386,2.271,2.3392,2.4099,2.4543,2.485,2.5575,2.6081,2.5892,2.5504,2.4692,2.4098,2.384,2.362,2.3592,2.3629,2.338,2.3843,2.3476,2.3385,2.3896,2.3872,2.3718,2.3833,2.3958,2.3908,2.3802,2.3849,2.3968,2.4216,2.4066,2.3582,2.3381,2.3364,2.3313,2.3244,2.3207,2.8395,2.7403,2.7315,2.7281,2.7335,2.759,2.7855,2.8131,2.856,2.8881,2.8983,2.8516,2.8597,2.8755,2.8136,2.8186,2.9038,2.9572,2.9755,2.9491,2.922,2.8928,2.8457,2.8267,2.7984,2.7699,2.7585,2.7585,2.7585,2.7585,2.765,2.774,2.7831,2.788,2.798,2.8128,2.8174,2.8047,2.8231,2.828,2.8209,2.7977,2.7519,2.6683,2.641,2.6008,2.5375,2.4914,2.47,2.4968,2.4639,2.4588,2.4563,2.4846,2.5142,2.5303,2.5456,2.577,2.6023,2.5952,2.5879,2.586,2.5805,2.56,2.5355,2.5256,2.5182,2.5064,2.5048,2.5068,2.5072,2.5146,2.5107,2.5001,2.489,2.4509,2.3964,2.372,2.3259,2.2188,2.311,2.4186,2.4563,2.5071,2.5724,2.6033,2.5849,2.548,2.4815,2.4288,2.3942,2.3709,2.3512,2.3564,2.3549,2.4327,2.4609,2.4164,2.4388,2.4679,2.4574,2.456,2.4601,2.4639,2.4781,2.4892,2.5062,2.523,2.5029,2.4594,2.4394,2.4227,2.4126,2.4041,2.3866,2.8995,2.8046,2.759,2.7536,2.7703,2.7756,2.7934,2.8177,2.8592,2.8817,2.8823,2.8736,2.8921,2.9135,2.8944,2.913,2.9797,3.0082,2.9928,2.9379,2.9044,2.8618,2.8143,2.7976,2.7823,2.7634,2.7585,2.76,2.7585,2.7675,2.774,2.7815,2.794,2.8039,2.8152,2.8308,2.8365,2.8477,2.8708,2.8951,2.8989,2.8792,2.8269,2.7981,2.746,2.701,2.6444,2.6136,2.5575,2.5167,2.5141,2.5106,2.5167,2.5466,2.577,2.5719,2.5735,2.5862,2.6132,2.6096,2.6007,2.5915,2.5915,2.577,2.553,2.5416,2.5355,2.522,2.5068,2.5091,2.5091,2.5169,2.5204,2.5162,2.5162,2.4808,2.4271,2.4062,2.3188,2.2206,2.3317,2.4234,2.4434,2.5004,2.5773,2.5947,2.582,2.5437,2.4969,2.4805,2.4541,2.4273,2.4138,2.4093,2.4112,2.4563,2.5188,2.4935,2.4852,2.5114,2.5283,2.5187,2.5343,2.5512,2.5655,2.5646,2.5881,2.5949,2.5782,2.5631,2.548,2.5279,2.5011,2.4825,2.47,2.9585,2.8554,2.7967,2.7835,2.7967,2.7987,2.8,2.821,2.8624,2.883,2.8762,2.897,2.9288,2.9673,2.9894,3.0207,3.069,3.039,2.9894,2.9163,2.8797,2.8278,2.7779,2.76,2.7655,2.768,2.765,2.764,2.764,2.7715,2.7806,2.7905,2.8088,2.8235,2.8284,2.8453,2.8573,2.8748,2.9013,2.925,2.9416,2.9362,2.9251,2.9284,2.8715,2.8108,2.7451,2.7373,2.6619,2.6003,2.5842,2.5997,2.5346,2.5766,2.6045,2.5883,2.5899,2.6025,2.6132,2.6185,2.6115,2.6026,2.599,2.5864,2.5698,2.5586,2.5473,2.5375,2.5259,2.5169,2.5188,2.5285,2.5336,2.5298,2.5285,2.516,2.4656,2.4341,2.423,2.387,2.4201,2.4333,2.4565,2.5208,2.6013,2.6134,2.6023,2.5923,2.5571,2.5772,2.5571,2.5182,2.4948,2.4838,2.479,2.4742,2.5199,2.5268,2.5264,2.547,2.5625,2.5719,2.5904,2.6005,2.598,2.6,2.6335,2.652,2.6269,2.6169,2.6353,2.6235,2.5832,2.5745,2.5735,2.9833,2.86,2.8522,2.8131,2.7769,2.8262,2.8327,2.821,2.878,2.9067,2.9008,2.9104,2.948,3.0076,3.0673,3.066,3.0522,3.0397,2.9884,2.9017,2.8745,2.8334,2.7705,2.76,2.7821,2.7856,2.7836,2.7715,2.7775,2.7841,2.788,2.8005,2.8162,2.829,2.8559,2.8816,2.8677,2.8912,2.9282,2.9694,3.0092,3.0074,2.9802,2.953,2.927,2.887,2.8285,2.8207,2.7689,2.6902,2.6943,2.6748,2.6217,2.6085,2.6185,2.615,2.6168,2.6184,2.6203,2.6187,2.624,2.6224,2.6241,2.6136,2.5974,2.5715,2.5586,2.5647,2.5476,2.5362,2.5343,2.5378,2.5391,2.5352,2.5336,2.5282,2.4974,2.4843,2.4681,2.4785,2.4898,2.4765,2.4814,2.5542,2.6169,2.6222,2.6225,2.6142,2.6108,2.6227,2.6277,2.5802,2.5653,2.554,2.5457,2.5408,2.5443,2.561,2.5707,2.5819,2.5939,2.6094,2.616,2.6247,2.6235,2.6286,2.6505,2.6607,2.6573,2.6607,2.6674,2.664,2.6522,2.6555,2.659,3.1048,2.9615,2.8986,2.8656,2.8546,2.8688,2.8638,2.856,2.8702,2.8908,2.9153,2.9414,2.9916,3.0628,3.1102,3.1086,3.0831,3.0645,3.0058,2.9325,2.9082,2.8629,2.8016,2.8101,2.8348,2.8329,2.8162,2.8208,2.8183,2.8137,2.8063,2.8113,2.8403,2.8781,2.9126,2.9556,2.9745,2.9844,2.9862,3.0055,3.0401,3.0447,3.0336,3.0246,3.0188,2.9696,2.9211,2.9015,2.8414,2.7543,2.728,2.6949,2.6535,2.6518,2.6702,2.6274,2.6673,2.6673,2.6342,2.6292,2.6329,2.6381,2.6416,2.6347,2.6224,2.6028,2.5864,2.5974,2.5698,2.5567,2.5532,2.5473,2.5492,2.5489,2.547,2.5432,2.5397,2.5397,2.5341,2.5478,2.557,2.5456,2.5386,2.5826,2.6305,2.6294,2.6364,2.6348,2.6314,2.6382,2.6365,2.6228,2.6212,2.6231,2.6146,2.6079,2.603,2.6132,2.6132,2.6229,2.6298,2.6417,2.6451,2.6469,2.6488,2.6573,2.6708,2.6758,2.6792,2.6842,2.6925,2.6875,2.6859,2.7038,2.6933,3.1909,3.0552,2.9724,2.9323,2.9261,2.9089,2.9026,2.8899,2.8958,2.9053,2.9324,2.9794,3.0448,3.0999,3.1234,3.1277,3.1291,3.0929,3.0325,2.9903,2.963,2.9079,2.8494,2.856,2.905,2.9073,2.889,2.8961,2.9088,2.8986,2.87,2.8256,2.8773,2.9214,2.9798,3.0386,3.0742,3.0612,3.051,3.0563,3.0638,3.0531,3.0634,3.0777,3.0804,3.0563,3.0055,2.9879,2.9121,2.8268,2.7713,2.7431,2.7081,2.6853,2.7055,2.6843,2.7128,2.6965,2.6699,2.6582,2.6467,2.6468,2.652,2.6503,2.652,2.6365,2.6225,2.6207,2.5974,2.5828,2.5775,2.5682,2.5735,2.5772,2.5735,2.5698,2.5712,2.5763,2.5817,2.5891,2.6032,2.6242,2.6234,2.6351,2.6458,2.6398,2.6451,2.6519,2.652,2.652,2.6468,2.6417,2.6434,2.6486,2.6468,2.6468,2.652,2.652,2.652,2.6537,2.652,2.6555,2.6572,2.6623,2.6691,2.6742,2.6808,2.6925,2.7008,2.6991,2.7006,2.7101,2.7181,2.734,2.7378,3.1814,3.0945,3.0934,3.0203,2.9194,2.9574,2.9529,2.931,2.956,2.9699,2.9839,3.0312,3.0807,3.1205,3.1322,3.138,3.1467,3.1451,3.0758,3.0343,3.0229,2.9633,2.9173,2.9266,2.9774,2.9567,2.9659,3.0007,3.0222,3.015,2.9341,2.8504,2.9424,2.9708,3.0288,3.1158,3.1584,3.1495,3.1375,3.108,3.0879,3.068,3.0671,3.0831,3.081,3.072,3.0808,3.0627,3.0132,2.9196,2.8652,2.8232,2.7869,2.7293,2.7313,2.7583,2.7353,2.7256,2.7226,2.6839,2.6571,2.6555,2.6589,2.6606,2.664,2.6468,2.6365,2.6533,2.6539,2.645,2.6334,2.6168,2.6372,2.6442,2.6455,2.6253,2.6235,2.6188,2.6259,2.6316,2.6589,2.7011,2.7149,2.7266,2.6732,2.662,2.6503,2.6571,2.6589,2.6572,2.6555,2.6537,2.6571,2.6589,2.6572,2.6555,2.6554,2.6554,2.6571,2.6589,2.6589,2.664,2.6657,2.6742,2.6792,2.6842,2.6925,2.7023,2.7105,2.7056,2.7104,2.7276,2.7353,2.743,2.7569,3.224,3.1884,3.1512,3.0747,2.9867,2.9929,2.9898,2.9806,2.9822,3.0054,3.0404,3.0851,3.1176,3.138,3.1409,3.1453,3.1496,3.1496,3.0996,3.0882,3.0845,3.0593,3.0245,3.0346,3.1016,3.0968,3.0988,3.1138,3.1502,3.1211,3.0616,3.022,3.0553,3.0957,3.1552,3.212,3.2572,3.2543,3.2138,3.1603,3.1508,3.1035,3.0895,3.1052,3.1052,3.0992,3.0955,3.0915,3.0419,2.9858,2.9418,2.9065,2.8715,2.7987,2.789,2.8176,2.783,2.785,2.7601,2.7111,2.6606,2.664,2.6657,2.6742,2.6911,2.6994,2.7178,2.7345,2.7508,2.7534,2.7699,2.7568,2.7505,2.7487,2.7291,2.7005,2.6856,2.6859,2.6827,2.6947,2.7589,2.8199,2.8236,2.8237,2.7496,2.6858,2.6707,2.6623,2.6707,2.664,2.6606,2.6606,2.6606,2.6606,2.6589,2.6572,2.6555,2.6589,2.6606,2.664,2.6674,2.6674,2.6708,2.6792,2.6892,2.6958,2.7039,2.7168,2.7215,2.7215,2.734,2.7522,2.7567,2.7552,2.7659,3.2121,3.1917,3.1611,3.1172,3.063,3.0366,3.0264,3.0219,3.0113,3.0342,3.0881,3.1204,3.1409,3.1467,3.1496,3.1511,3.1539,3.1523,3.1261,3.1252,3.1392,3.1331,3.1237,3.1446,3.2003,3.225,3.2241,3.2247,3.2621,3.218,3.1912,3.188,3.2024,3.2394,3.2354,3.3291,3.3794,3.3501,3.3028,3.2112,3.2005,3.1586,3.1167,3.1252,3.1171,3.1131,3.1072,3.0995,3.0771,3.0291,2.992,2.9669,2.9353,2.9005,2.8673,2.8627,2.8579,2.8598,2.8126,2.7721,2.7332,2.757,2.752,2.7503,2.752,2.7858,2.8093,2.8178,2.8526,2.8807,2.8841,2.8496,2.8375,2.8303,2.8129,2.7856,2.7711,2.7645,2.7578,2.7614,2.8374,2.9119,2.8783,2.8699,2.8463,2.7754,2.7366,2.7231,2.7113,2.6961,2.6657,2.6657,2.664,2.6623,2.6572,2.664,2.6691,2.664,2.6674,2.6725,2.6725,2.6759,2.6808,2.6924,2.7006,2.7056,2.7185,2.7326,2.7388,2.7402,2.7539,2.7657,2.7736,2.7736,2.7795,3.1221,3.0743,3.1279,3.1451,3.1379,3.0829,3.0582,3.0552,3.0568,3.0732,3.1058,3.1351,3.1467,3.1496,3.1496,3.1496,3.1539,3.1683,3.1539,3.1379,3.1814,3.1578,3.1716,3.2154,3.2824,3.2746,3.2946,3.331,3.3617,3.3418,3.3399,3.3441,3.3457,3.3517,3.2773,3.395,3.4327,3.3905,3.3769,3.3062,3.2479,3.2073,3.1695,3.1472,3.1224,3.1188,3.1151,3.1092,3.0934,3.076,3.0283,3.0253,3.0547,2.9503,2.9271,2.9768,2.9279,2.9076,2.8976,2.8942,2.8874,2.8637,2.84,2.8537,2.8773,2.8942,2.8959,2.8993,2.9193,2.9231,2.9148,2.9113,2.9213,2.9211,2.9033,2.8743,2.8613,2.8582,2.8547,2.8613,2.931,2.9852,2.9381,2.9094,2.9179,2.8772,2.8196,2.7858,2.7603,2.7316,2.6978,2.6674,2.6674,2.6911,2.6911,2.6826,2.6793,2.6759,2.686,2.7063,2.6995,2.6944,2.7009,2.7088,2.7103,2.7135,2.7326,2.7513,2.7572,2.7647,2.7644,2.7748,2.7842,2.7903,2.7929,3.1385,3.1972,3.1238,3.1456,3.2132,3.1078,3.0642,3.0762,3.0955,3.1161,3.1307,3.1467,3.1496,3.1496,3.1496,3.1496,3.1539,3.1698,3.1613,3.1751,3.2238,3.2493,3.2641,3.2986,3.355,3.3774,3.4052,3.4151,3.4218,3.4201,3.4101,3.4101,3.4234,3.4268,3.4283,3.4785,3.4748,3.4701,3.4392,3.3879,3.3463,3.2719,3.2161,3.1938,3.1532,3.1314,3.1297,3.1258,3.119,3.1173,3.0748,3.0925,3.108,3.0114,2.991,3.0149,2.9792,3.0006,3.026,3.0362,2.9922,2.9467,2.9128,2.9199,2.9083,2.9519,2.9655,2.9876,3.0095,3.0249,3.0499,3.0405,3.042,3.0376,3.0169,2.9728,2.9527,2.9599,2.9649,2.9802,3.0277,3.0584,3.0381,3.0065,3.0049,2.988,2.9371,2.8401,2.7943,2.7689,2.7384,2.6894,2.6776,2.7114,2.7301,2.742,2.7777,2.8015,2.7862,2.7743,2.7606,2.7384,2.7244,2.7339,2.7283,2.7244,2.7701,2.802,2.7898,2.7885,2.8029,2.7944,2.7885,2.7961,2.8,3.1831,3.2407,3.1494,3.1611,3.2258,3.1214,3.0791,3.0999,3.1219,3.1365,3.1467,3.1496,3.1496,3.1496,3.1496,3.1568,3.1597,3.1784,3.194,3.2122,3.2523,3.2841,3.323,3.371,3.3942,3.4325,3.4497,3.457,3.4594,3.4618,3.4546,3.4448,3.4472,3.4658,3.489,3.5001,3.5024,3.4998,3.4755,3.4488,3.4034,3.3537,3.3004,3.2642,3.2244,3.181,3.1728,3.1592,3.1404,3.1423,3.1464,3.1504,3.1297,3.1054,3.061,3.0455,3.0313,3.0615,3.104,3.1128,3.0603,3.0042,2.9788,2.9773,2.9846,3.0281,3.0434,3.0673,3.0992,3.1133,3.1215,3.1151,3.1064,3.1007,3.0874,3.0415,3.0106,3.0142,3.0298,3.0518,3.0705,3.1046,3.1269,3.1223,3.1042,3.0806,3.0517,2.9476,2.8455,2.8148,2.7843,2.7335,2.7148,2.7555,2.793,2.8237,2.8646,2.9194,2.8972,2.8596,2.8373,2.8201,2.7888,2.769,2.7919,2.8179,2.8413,2.8561,2.8449,2.8514,2.8691,2.8467,2.8081,2.8057,2.8167,3.2637,3.212,3.2001,3.2001,3.1957,3.1233,3.0999,3.1292,3.1307,3.1365,3.1496,3.1496,3.1496,3.1496,3.1496,3.1597,3.1769,3.1955,3.2081,3.2318,3.2703,3.3043,3.3398,3.3771,3.4176,3.4431,3.4602,3.4739,3.4875,3.4828,3.4811,3.4811,3.4804,3.4923,3.4994,3.5088,3.5152,3.5178,3.5186,3.4942,3.4594,3.4382,3.4007,3.3639,3.3146,3.2764,3.2531,3.2206,3.1916,3.1833,3.189,3.1872,3.18,3.1724,3.1314,3.0952,3.0722,3.1029,3.1387,3.1389,3.1293,3.0938,3.1017,3.1147,3.1041,3.0942,3.0942,3.0992,3.1162,3.1293,3.1402,3.1327,3.1232,3.1257,3.1278,3.0917,3.0518,3.052,3.0694,3.0864,3.1019,3.1225,3.1312,3.1387,3.1462,3.1422,3.1099,3.057,2.9589,2.8815,2.844,2.7811,2.7777,2.8117,2.8527,2.911,2.959,3.0158,2.978,2.942,2.9197,2.9006,2.8725,2.8644,2.8879,2.9102,2.9313,2.9234,2.9033,2.9154,2.9417,2.9047,2.8631,2.8397,2.8404,3.3419,3.3458,3.2461,3.2358,3.2731,3.1649,3.1219,3.1307,3.1409,3.1482,3.1496,3.1496,3.1496,3.1496,3.1655,3.1727,3.1855,3.201,3.2122,3.2428,3.2866,3.3203,3.3581,3.4,3.4374,3.4594,3.4763,3.4835,3.4899,3.4899,3.4899,3.4899,3.4899,3.4947,3.5018,3.5152,3.5245,3.5337,3.5429,3.5403,3.5232,3.5023,3.4831,3.4569,3.4068,3.3649,3.3047,3.2771,3.2409,3.1998,3.2539,3.2644,3.2018,3.2885,3.3286,3.2446,3.1922,3.1556,3.1732,3.1691,3.1596,3.1559,3.1595,3.1464,3.1351,3.1252,3.1249,3.1252,3.1269,3.1346,3.1423,3.1368,3.1329,3.1332,3.1351,3.1196,3.0866,3.0898,3.1055,3.1053,3.1206,3.1281,3.1387,3.1481,3.1557,3.1709,3.163,3.12,3.0681,2.9902,2.9145,2.851,2.8699,2.9111,2.9713,3.03,3.068,3.0989,3.061,3.0317,3.0196,2.9954,2.962,2.9553,2.9702,2.9913,3.0163,2.998,2.9692,2.9941,3.0152,2.9656,2.9233,2.8984,2.8682,3.4541,3.4181,3.3228,3.2735,3.2437,3.1737,3.138,3.1409,3.1524,3.1597,3.1511,3.1612,3.1568,3.1539,3.1698,3.1813,3.1898,3.2094,3.2219,3.2468,3.3038,3.3319,3.372,3.4201,3.4546,3.4732,3.4828,3.4899,3.4899,3.4899,3.4899,3.4899,3.4899,3.4923,3.497,3.5088,3.5238,3.536,3.5503,3.5734,3.5705,3.5596,3.5628,3.5541,3.5032,3.438,3.369,3.3498,3.2892,3.2424,3.3037,3.3265,3.2827,3.3615,3.4227,3.3401,3.2561,3.2351,3.2456,3.2033,3.189,3.1818,3.1853,3.1653,3.154,3.1426,3.1387,3.1368,3.1349,3.1366,3.1387,3.1408,3.1389,3.137,3.137,3.137,3.1334,3.1315,3.1293,3.1237,3.1293,3.1368,3.1462,3.1538,3.1653,3.1802,3.1948,3.1847,3.1411,3.0855,3.0075,2.9331,2.9746,3.0248,3.082,3.1202,3.1446,3.1601,3.1479,3.1254,3.1132,3.0889,3.0534,3.0446,3.0472,3.0762,3.1128,3.0662,3.041,3.0766,3.1034,3.0716,3.0184,2.9546,2.9205,3.5797,3.4596,3.4137,3.2975,3.1673,3.1511,3.1511,3.1524,3.1727,3.1713,3.1597,3.1698,3.1655,3.1655,3.1784,3.1912,3.2053,3.2262,3.2441,3.248,3.3224,3.3607,3.3873,3.4284,3.4643,3.4756,3.4828,3.4899,3.4899,3.4923,3.4923,3.4923,3.4923,3.4947,3.497,3.5088,3.5198,3.5222,3.5458,3.5711,3.592,3.6097,3.6339,3.6438,3.6057,3.5509,3.4867,3.4235,3.3547,3.3367,3.3525,3.4075,3.4306,3.3953,3.4323,3.4287,3.3512,3.3125,3.3125,3.2842,3.2383,3.2188,3.1993,3.2288,3.2405,3.1734,3.1538,3.1445,3.1423,3.1462,3.1502,3.1502,3.1502,3.1502,3.1521,3.1485,3.1428,3.1426,3.1406,3.1387,3.1389,3.1481,3.1627,3.1756,3.2231,3.2172,3.2509,3.2652,3.2406,3.1968,3.1304,3.0535,3.0799,3.1252,3.1425,3.1792,3.2021,3.2144,3.2074,3.1933,3.1655,3.1532,3.1452,3.1453,3.1504,3.182,3.201,3.1581,3.1474,3.1938,3.2081,3.1849,3.1263,3.0481,2.9896,3.6399,3.553,3.4164,3.2945,3.193,3.1597,3.1612,3.1727,3.1883,3.1898,3.1756,3.1655,3.1712,3.1855,3.194,3.2038,3.2191,3.2539,3.2757,3.2996,3.3497,3.3848,3.4101,3.4472,3.4739,3.4851,3.4899,3.4899,3.4899,3.4923,3.497,3.5058,3.5065,3.5095,3.5088,3.5222,3.5245,3.5175,3.5367,3.5689,3.5985,3.622,3.6451,3.6761,3.6663,3.6314,3.5825,3.5561,3.5049,3.48,3.535,3.5936,3.6485,3.535,3.5226,3.5527,3.4765,3.4147,3.3882,3.3775,3.3526,3.3403,3.3454,3.3805,3.3537,3.2337,3.1684,3.1608,3.1519,3.1576,3.1596,3.1596,3.1596,3.1634,3.1653,3.1579,3.1506,3.1485,3.1483,3.1502,3.1521,3.1612,3.1756,3.2127,3.2656,3.3241,3.3896,3.4146,3.3899,3.351,3.3068,3.24,3.2051,3.2262,3.2347,3.2469,3.2737,3.258,3.2423,3.2284,3.2161,3.209,3.2026,3.24,3.2599,3.2632,3.2614,3.2614,3.2668,3.2829,3.2775,3.24,3.2222,3.1617,3.096,3.6831,3.6058,3.4547,3.3225,3.2287,3.2051,3.2051,3.2178,3.2247,3.2302,3.2262,3.1953,3.1826,3.2038,3.2122,3.2247,3.2425,3.2866,3.3081,3.3356,3.3704,3.405,3.4349,3.4659,3.478,3.4899,3.4899,3.4899,3.4923,3.5041,3.5135,3.5251,3.5304,3.5373,3.5327,3.5389,3.5367,3.5222,3.5429,3.5706,3.6023,3.6237,3.6612,3.6992,3.7022,3.6707,3.6394,3.6112,3.5705,3.5527,3.5847,3.6595,3.6844,3.6221,3.6132,3.6221,3.5758,3.4925,3.4818,3.4711,3.462,3.4443,3.4374,3.4531,3.4423,3.3379,3.2904,3.276,3.1828,3.1743,3.1744,3.1727,3.1727,3.1763,3.1764,3.1728,3.1635,3.1542,3.1521,3.15,3.1521,3.1559,3.1723,3.1961,3.254,3.3244,3.4092,3.4801,3.4729,3.4923,3.4496,3.4177,3.3773,3.3383,3.3326,3.3415,3.3559,3.3278,3.2823,3.2737,3.2668,3.2611,3.2636,3.2855,3.2936,3.2846,3.2864,3.2916,3.29,3.2864,3.2882,3.2811,3.2702,3.2541,3.2056,3.7025,3.6214,3.4828,3.3581,3.2588,3.2547,3.2586,3.2656,3.2656,3.2792,3.2888,3.2401,3.215,3.2221,3.233,3.2508,3.278,3.3198,3.3424,3.3668,3.4,3.43,3.4521,3.4732,3.4851,3.4923,3.497,3.4994,3.5018,3.5205,3.5373,3.5492,3.5627,3.5761,3.5694,3.565,3.5622,3.5571,3.5661,3.5773,3.5975,3.6152,3.6632,3.695,3.7091,3.6794,3.6519,3.6255,3.5918,3.6043,3.631,3.6881,3.7238,3.6916,3.7005,3.6933,3.6362,3.5864,3.5738,3.5506,3.522,3.499,3.501,3.5081,3.5061,3.4742,3.4283,3.3717,3.2781,3.2166,3.2167,3.2063,3.2062,3.1994,3.1995,3.2028,3.1916,3.1823,3.1783,3.1743,3.1764,3.1802,3.2109,3.2295,3.2858,3.351,3.4076,3.4606,3.5154,3.5616,3.5687,3.5526,3.5349,3.4957,3.4421,3.4172,3.4175,3.375,3.3329,3.3258,3.3117,3.2922,3.29,3.3103,3.315,3.2969,3.2916,3.2916,3.2916,3.2932,3.2945,3.2977,3.2925,3.2834,3.289,3.6742,3.5467,3.4167,3.3349,3.2971,3.2726,3.2722,3.29,3.2942,3.3049,3.3145,3.2996,3.2796,3.2734,3.2699,3.2819,3.3011,3.3477,3.3813,3.4041,3.43,3.457,3.4739,3.4828,3.4899,3.497,3.5065,3.5198,3.5251,3.5458,3.5667,3.5871,3.5893,3.6002,3.6032,3.6006,3.6006,3.5958,3.6045,3.6195,3.6385,3.6492,3.6509,3.6774,3.7011,3.7097,3.7123,3.7104,3.7109,3.7183,3.7184,3.7362,3.7416,3.7362,3.7397,3.7306,3.677,3.6501,3.6303,3.6336,3.6085,3.582,3.6018,3.6518,3.6357,3.5984,3.5628,3.5397,3.4526,3.3549,3.3302,3.2987,3.29,3.2678,3.2576,3.2687,3.2674,3.2657,3.2638,3.2638,3.2657,3.303,3.3597,3.3958,3.4542,3.5166,3.5738,3.6167,3.6043,3.6399,3.6756,3.6684,3.6613,3.6042,3.5276,3.4741,3.4581,3.4172,3.3942,3.4032,3.3786,3.3133,3.3146,3.3455,3.3237,3.2952,3.2916,3.2963,3.2963,3.2995,3.3039,3.3052,3.3037,3.3039,3.3039]}]]